[[{"header":{"parameterUnit":"m.s-1","parameterCategory":1,"la1":30.6,"la2":29.2853,"lo1":-89.7004,"lo2":-87.6739,"dy":0.0162,"dx":0.0183,"nx":112,"ny":82,"refTime":"2024-04-12T18:00:00:Z","depth":0,"parameterNumber":2,"parameterNumberName":"U-component_of_WINDS"},"data":[0.0,0.0,0.0,0.0,0.0,0.0,0.0,0.0,0.0,0.0,0.0,0.0,0.0,0.0,0.0,0.0,0.0,0.0,0.0,0.0,0.0,0.0,0.0,0.0,0.0,0.0,0.0,0.0,0.0,0.0,0.0,0.0,0.0,0.0,0.0,0.0,0.0,0.0,0.0,0.0,0.0,0.0,0.0,0.0,0.0,0.0,0.0,0.0,0.0,0.0,0.0,0.0,0.0,0.0,0.0,0.0,0.0,0.0,0.0,0.0,0.0,0.0,0.0,0.0,0.0,0.0,0.0,0.0,0.0,0.0,0.0,0.0,0.0,0.0,0.0,0.0,0.0,0.0,0.0,0.0,0.0,0.0,0.0,0.0,0.0,0.0,0.0,0.0,0.0,0.0,-3.9665,-4.2006,-4.3912,-4.4908,-4.4618,-4.3033,-4.0208,-3.591,0.0,0.0,0.0,0.0,0.0,0.0,0.0,0.0,0.0,0.0,0.0,0.0,0.0,0.0,0.0,0.0,0.0,0.0,0.0,0.0,0.0,0.0,0.0,0.0,0.0,0.0,0.0,0.0,0.0,0.0,0.0,0.0,0.0,0.0,0.0,0.0,0.0,0.0,0.0,0.0,0.0,0.0,0.0,0.0,0.0,0.0,0.0,0.0,0.0,0.0,0.0,0.0,0.0,0.0,0.0,0.0,0.0,0.0,0.0,0.0,0.0,0.0,0.0,0.0,0.0,0.0,0.0,0.0,0.0,0.0,0.0,0.0,0.0,0.0,0.0,0.0,0.0,0.0,0.0,0.0,0.0,0.0,0.0,0.0,0.0,0.0,0.0,0.0,0.0,0.0,0.0,0.0,0.0,0.0,0.0,0.0,0.0,0.0,0.0,0.0,0.0,0.0,0.0,0.0,-4.0435,-4.389,-4.4516,-4.4663,-4.4593,-4.2337,-3.9613,-3.6449,0.0,0.0,0.0,0.0,0.0,0.0,0.0,0.0,0.0,0.0,0.0,0.0,0.0,0.0,0.0,0.0,0.0,0.0,0.0,0.0,0.0,0.0,0.0,0.0,0.0,0.0,0.0,0.0,0.0,0.0,0.0,0.0,0.0,0.0,0.0,0.0,0.0,0.0,0.0,0.0,0.0,0.0,0.0,0.0,0.0,0.0,0.0,0.0,0.0,0.0,0.0,0.0,0.0,0.0,0.0,0.0,0.0,0.0,0.0,0.0,0.0,0.0,0.0,0.0,0.0,0.0,0.0,0.0,0.0,0.0,0.0,0.0,0.0,0.0,0.0,0.0,0.0,0.0,0.0,0.0,0.0,0.0,0.0,0.0,0.0,0.0,0.0,0.0,0.0,0.0,0.0,0.0,0.0,0.0,0.0,0.0,0.0,0.0,0.0,0.0,0.0,0.0,0.0,-3.9272,-4.1659,-4.4406,-4.4643,-4.4593,-4.4593,-4.2558,-3.9882,-3.6601,-3.3246,0.0,0.0,0.0,0.0,0.0,0.0,0.0,0.0,0.0,0.0,0.0,0.0,0.0,0.0,0.0,0.0,0.0,0.0,0.0,0.0,0.0,0.0,0.0,0.0,0.0,0.0,0.0,0.0,0.0,0.0,0.0,0.0,0.0,0.0,0.0,0.0,0.0,0.0,0.0,0.0,0.0,0.0,0.0,0.0,0.0,0.0,0.0,0.0,0.0,0.0,0.0,0.0,0.0,0.0,0.0,0.0,0.0,0.0,0.0,0.0,0.0,0.0,0.0,0.0,0.0,0.0,0.0,0.0,0.0,0.0,0.0,0.0,0.0,0.0,0.0,0.0,0.0,0.0,0.0,0.0,0.0,0.0,0.0,0.0,0.0,0.0,0.0,0.0,0.0,0.0,0.0,0.0,0.0,0.0,0.0,0.0,0.0,0.0,0.0,0.0,0.0,0.0,-4.1169,-4.2479,-4.4106,-4.4298,-4.4252,-4.4173,-4.2396,-3.9941,-3.6812,-3.3446,0.0,0.0,0.0,0.0,0.0,0.0,0.0,0.0,0.0,0.0,0.0,0.0,0.0,0.0,0.0,0.0,0.0,0.0,0.0,0.0,0.0,0.0,0.0,0.0,0.0,0.0,0.0,0.0,0.0,0.0,0.0,0.0,0.0,0.0,0.0,0.0,0.0,0.0,0.0,0.0,0.0,0.0,0.0,0.0,0.0,0.0,0.0,0.0,0.0,0.0,0.0,0.0,0.0,0.0,0.0,0.0,0.0,0.0,0.0,0.0,0.0,0.0,0.0,0.0,0.0,0.0,0.0,0.0,0.0,0.0,0.0,0.0,0.0,0.0,0.0,0.0,0.0,0.0,0.0,0.0,0.0,0.0,0.0,0.0,0.0,0.0,0.0,0.0,0.0,0.0,0.0,0.0,0.0,0.0,0.0,0.0,0.0,0.0,0.0,0.0,0.0,0.0,-4.1015,-4.225,-4.2956,-4.3252,-4.3267,-4.2963,-4.098,-3.9024,-3.7339,-3.3059,0.0,0.0,0.0,0.0,0.0,0.0,0.0,0.0,0.0,0.0,0.0,0.0,0.0,0.0,0.0,0.0,0.0,0.0,0.0,0.0,0.0,0.0,0.0,0.0,0.0,0.0,0.0,0.0,0.0,0.0,0.0,0.0,0.0,0.0,0.0,0.0,0.0,0.0,0.0,0.0,0.0,0.0,0.0,0.0,0.0,0.0,0.0,0.0,0.0,0.0,0.0,0.0,0.0,0.0,0.0,0.0,0.0,0.0,0.0,0.0,0.0,0.0,0.0,0.0,0.0,0.0,0.0,0.0,0.0,0.0,0.0,0.0,0.0,0.0,0.0,0.0,0.0,0.0,0.0,0.0,0.0,0.0,0.0,0.0,0.0,0.0,0.0,0.0,0.0,0.0,0.0,0.0,0.0,0.0,0.0,0.0,0.0,0.0,0.0,0.0,0.0,0.0,-4.0565,-4.163,-4.2784,-4.3147,-4.316,-4.2827,-4.127,-3.9414,-3.7431,0.0,0.0,0.0,0.0,0.0,0.0,0.0,0.0,0.0,0.0,0.0,0.0,0.0,0.0,0.0,0.0,0.0,0.0,0.0,0.0,0.0,0.0,0.0,0.0,0.0,0.0,0.0,0.0,0.0,0.0,0.0,0.0,0.0,0.0,0.0,0.0,0.0,0.0,0.0,0.0,0.0,0.0,0.0,0.0,0.0,0.0,0.0,0.0,0.0,0.0,0.0,0.0,0.0,0.0,0.0,0.0,0.0,0.0,0.0,0.0,0.0,0.0,0.0,0.0,0.0,0.0,0.0,0.0,0.0,0.0,0.0,0.0,0.0,0.0,0.0,0.0,0.0,0.0,0.0,0.0,0.0,0.0,0.0,0.0,0.0,0.0,0.0,0.0,0.0,0.0,0.0,0.0,0.0,0.0,0.0,0.0,0.0,0.0,0.0,0.0,0.0,0.0,-3.8955,-4.012,-4.105,-4.184,-4.2262,-4.2337,-4.1924,-4.0257,-3.8581,-3.7021,0.0,0.0,0.0,0.0,0.0,0.0,0.0,0.0,0.0,0.0,0.0,0.0,0.0,0.0,0.0,0.0,0.0,0.0,0.0,0.0,0.0,0.0,0.0,0.0,0.0,0.0,0.0,0.0,0.0,0.0,0.0,0.0,0.0,0.0,0.0,0.0,0.0,0.0,0.0,0.0,0.0,0.0,0.0,0.0,0.0,0.0,0.0,0.0,0.0,0.0,0.0,0.0,0.0,0.0,0.0,0.0,0.0,0.0,0.0,0.0,0.0,0.0,0.0,0.0,0.0,0.0,0.0,0.0,0.0,0.0,0.0,0.0,0.0,0.0,0.0,0.0,0.0,0.0,0.0,0.0,0.0,0.0,0.0,0.0,0.0,0.0,0.0,0.0,0.0,0.0,0.0,0.0,0.0,0.0,0.0,0.0,0.0,0.0,0.0,0.0,0.0,0.0,-3.8084,-3.9743,-4.0541,-3.9861,-4.0389,-4.0544,-3.996,-3.7572,-3.6114,0.0,0.0,0.0,0.0,0.0,0.0,0.0,0.0,0.0,0.0,0.0,0.0,0.0,0.0,0.0,0.0,0.0,0.0,0.0,0.0,0.0,0.0,0.0,0.0,0.0,0.0,0.0,0.0,0.0,0.0,0.0,0.0,0.0,0.0,0.0,0.0,0.0,0.0,0.0,0.0,0.0,0.0,0.0,0.0,0.0,0.0,0.0,0.0,0.0,0.0,0.0,0.0,0.0,0.0,0.0,0.0,0.0,0.0,0.0,0.0,0.0,0.0,0.0,0.0,0.0,0.0,0.0,0.0,0.0,0.0,0.0,0.0,0.0,0.0,0.0,0.0,0.0,0.0,0.0,0.0,0.0,0.0,0.0,0.0,0.0,0.0,0.0,0.0,0.0,0.0,0.0,0.0,0.0,0.0,0.0,0.0,0.0,0.0,0.0,0.0,0.0,0.0,0.0,-3.8168,-3.9109,-3.9701,-3.9785,-3.9682,-3.9672,-3.9874,-3.8095,-3.6699,-3.6149,0.0,0.0,0.0,0.0,0.0,0.0,0.0,0.0,0.0,0.0,0.0,0.0,0.0,0.0,0.0,0.0,0.0,0.0,0.0,0.0,0.0,0.0,0.0,0.0,0.0,0.0,0.0,0.0,0.0,0.0,0.0,0.0,0.0,0.0,0.0,0.0,0.0,0.0,0.0,0.0,0.0,0.0,0.0,0.0,0.0,0.0,0.0,0.0,0.0,0.0,0.0,0.0,0.0,0.0,0.0,0.0,0.0,0.0,0.0,0.0,0.0,0.0,0.0,0.0,0.0,0.0,0.0,0.0,0.0,0.0,0.0,0.0,0.0,0.0,0.0,0.0,0.0,0.0,0.0,0.0,0.0,0.0,0.0,0.0,0.0,0.0,0.0,0.0,0.0,0.0,0.0,0.0,0.0,0.0,0.0,0.0,0.0,0.0,0.0,0.0,0.0,0.0,-3.7629,-3.8246,-3.8623,-3.8699,-3.8374,-3.8368,-3.89,-3.7051,-3.567,-3.5208,0.0,0.0,0.0,0.0,0.0,0.0,0.0,0.0,0.0,0.0,0.0,0.0,0.0,0.0,0.0,0.0,0.0,0.0,0.0,0.0,0.0,0.0,0.0,0.0,0.0,0.0,0.0,0.0,0.0,0.0,0.0,0.0,0.0,0.0,0.0,0.0,0.0,0.0,0.0,0.0,0.0,0.0,0.0,0.0,0.0,0.0,0.0,0.0,0.0,0.0,0.0,0.0,0.0,0.0,0.0,0.0,0.0,0.0,0.0,0.0,0.0,0.0,0.0,0.0,0.0,0.0,0.0,0.0,0.0,0.0,0.0,0.0,0.0,0.0,0.0,0.0,0.0,0.0,0.0,0.0,0.0,0.0,0.0,0.0,0.0,0.0,0.0,0.0,0.0,0.0,0.0,0.0,0.0,0.0,0.0,0.0,0.0,0.0,0.0,0.0,0.0,0.0,-3.6845,-3.7372,-3.7546,-3.7217,-3.68,-3.675,-3.7276,-3.511,-3.3719,-3.3736,0.0,0.0,0.0,0.0,0.0,0.0,0.0,0.0,0.0,0.0,0.0,0.0,0.0,0.0,0.0,0.0,0.0,0.0,0.0,0.0,0.0,0.0,0.0,0.0,0.0,0.0,0.0,0.0,0.0,0.0,0.0,0.0,0.0,0.0,0.0,0.0,0.0,0.0,0.0,0.0,0.0,0.0,0.0,0.0,0.0,0.0,0.0,0.0,0.0,0.0,0.0,0.0,0.0,0.0,0.0,0.0,0.0,0.0,0.0,0.0,-4.2738,-4.1977,0.0,0.0,0.0,0.0,0.0,0.0,0.0,0.0,0.0,0.0,0.0,0.0,0.0,0.0,0.0,0.0,0.0,0.0,0.0,0.0,0.0,0.0,0.0,0.0,0.0,0.0,0.0,0.0,0.0,0.0,0.0,0.0,0.0,0.0,0.0,0.0,0.0,0.0,0.0,0.0,-3.7305,-3.7379,-3.7471,-3.7685,-3.6316,-3.554,-3.5968,-3.459,-3.3564,-3.328,-3.1139,0.0,0.0,0.0,0.0,0.0,0.0,0.0,0.0,0.0,0.0,0.0,0.0,0.0,0.0,0.0,0.0,0.0,0.0,0.0,0.0,0.0,0.0,0.0,0.0,0.0,0.0,0.0,0.0,0.0,0.0,0.0,0.0,0.0,0.0,0.0,0.0,0.0,0.0,0.0,0.0,0.0,0.0,0.0,0.0,0.0,0.0,0.0,0.0,0.0,0.0,0.0,0.0,0.0,0.0,0.0,0.0,0.0,0.0,0.0,-4.4474,-4.3917,0.0,0.0,0.0,0.0,0.0,0.0,0.0,0.0,0.0,0.0,0.0,0.0,0.0,0.0,0.0,0.0,0.0,0.0,0.0,0.0,0.0,0.0,0.0,0.0,0.0,0.0,0.0,0.0,0.0,0.0,0.0,0.0,0.0,0.0,0.0,0.0,0.0,0.0,0.0,0.0,-3.6341,-3.6168,-3.607,-3.6124,-3.5106,-3.4659,-3.5256,-3.396,-3.3051,-3.2862,-3.1119,0.0,0.0,0.0,0.0,0.0,0.0,0.0,0.0,0.0,0.0,0.0,0.0,0.0,0.0,0.0,0.0,0.0,0.0,0.0,0.0,0.0,0.0,0.0,0.0,0.0,0.0,0.0,0.0,0.0,0.0,0.0,0.0,0.0,0.0,0.0,0.0,0.0,0.0,0.0,0.0,0.0,0.0,0.0,0.0,0.0,0.0,0.0,0.0,0.0,0.0,0.0,0.0,0.0,-4.7549,-4.7894,-4.7548,-4.7704,-4.7795,-4.7752,-4.6765,-4.654,-4.6738,-4.5216,0.0,0.0,0.0,0.0,0.0,0.0,0.0,0.0,0.0,0.0,0.0,0.0,0.0,0.0,0.0,0.0,0.0,0.0,0.0,0.0,0.0,0.0,-4.1131,-4.0997,-4.1508,-4.1382,-3.9054,0.0,0.0,0.0,0.0,0.0,0.0,0.0,0.0,0.0,0.0,0.0,-3.5299,-3.502,-3.4703,-3.4382,-3.4015,-3.4037,-3.4645,-3.3342,-3.2484,-3.2467,-3.0987,-2.9888,0.0,0.0,0.0,0.0,0.0,0.0,0.0,0.0,0.0,0.0,0.0,0.0,0.0,0.0,0.0,0.0,0.0,0.0,0.0,0.0,0.0,0.0,0.0,0.0,0.0,0.0,0.0,0.0,0.0,0.0,0.0,0.0,-4.562,-4.5905,0.0,0.0,0.0,0.0,0.0,0.0,0.0,0.0,0.0,0.0,0.0,0.0,0.0,-4.6484,-4.7246,-4.8867,-4.8926,-4.7421,-4.9765,-5.0049,-4.8543,-4.9304,-4.9588,-4.9476,-4.9328,0.0,-4.6203,-4.5896,0.0,0.0,0.0,0.0,0.0,0.0,0.0,0.0,0.0,0.0,0.0,0.0,0.0,0.0,0.0,0.0,0.0,0.0,0.0,0.0,0.0,0.0,-4.3624,-4.2912,-4.2854,-4.2827,-4.2456,-4.1089,-3.9643,-3.8652,-3.8273,-3.7554,0.0,0.0,0.0,0.0,0.0,0.0,-3.5917,-3.5567,-3.5262,-3.493,-3.4238,-3.3703,-3.3465,-3.2864,-3.2333,-3.1915,-3.0784,-3.0345,-3.0886,-2.8869,0.0,0.0,0.0,0.0,0.0,0.0,0.0,0.0,0.0,0.0,0.0,0.0,0.0,0.0,0.0,0.0,0.0,0.0,0.0,0.0,0.0,0.0,0.0,0.0,0.0,0.0,0.0,0.0,0.0,-4.3647,-4.5689,-4.5462,-4.6217,-4.6167,0.0,0.0,0.0,0.0,0.0,0.0,0.0,0.0,0.0,-4.8281,-4.8437,-4.8887,-4.9726,-5.0488,-5.0488,-4.9746,-5.0879,-5.0975,-5.0227,-5.0148,-5.0083,-5.0005,-4.9517,-4.8397,-4.6923,-4.6755,-4.5678,-4.4078,0.0,0.0,0.0,0.0,-4.297,-4.2702,-4.3571,-4.3343,-4.2527,-4.1989,0.0,0.0,0.0,0.0,0.0,0.0,0.0,-4.1816,-4.1931,-4.2797,-4.3643,-4.3739,-4.3778,-4.3643,-4.3201,-4.2748,-4.2018,-4.054,-3.9785,-3.8849,-3.711,-3.6843,0.0,0.0,0.0,-3.5959,-3.531,-3.4555,-3.3981,-3.3687,-3.2926,-3.2549,-3.2844,-3.2472,-3.2218,-3.2195,-3.1477,-3.1088,-3.1193,-3.0243,-2.9726,0.0,0.0,0.0,0.0,0.0,0.0,0.0,0.0,0.0,0.0,0.0,0.0,0.0,0.0,0.0,0.0,0.0,0.0,0.0,0.0,0.0,0.0,0.0,0.0,0.0,0.0,0.0,0.0,-4.4286,-4.6027,-4.5675,-4.7024,-4.7309,0.0,0.0,0.0,0.0,0.0,0.0,-4.6945,-4.7875,-4.8816,-4.9781,-5.0488,-5.123,-5.2051,-5.1836,-5.1738,-5.1738,-5.1504,-5.1289,-5.1074,-5.0469,-5.0078,-4.9824,-4.918,-4.8418,-4.7578,-4.7372,-4.643,-4.5046,-4.4364,-4.3968,-4.3789,-4.3977,-4.385,-4.3699,-4.4572,-4.466,-4.4233,-4.319,-4.269,-4.2079,-3.9946,0.0,0.0,0.0,0.0,-4.1942,-4.2604,-4.2931,-4.3258,-4.3855,-4.3989,-4.3835,-4.3239,-4.3393,-4.3208,-4.1714,-4.094,-3.9907,-3.795,-3.7309,0.0,-3.5652,-3.5387,-3.5163,-3.4762,-3.3822,-3.313,-3.2934,-3.2375,-3.2265,-3.2871,-3.2532,-3.2373,-3.2498,-3.2161,-3.1788,-3.137,-3.1297,-3.1081,-3.072,0.0,0.0,0.0,0.0,0.0,0.0,0.0,0.0,0.0,0.0,0.0,0.0,0.0,0.0,0.0,0.0,0.0,0.0,0.0,0.0,0.0,0.0,0.0,0.0,0.0,0.0,0.0,0.0,0.0,-4.8178,-5.0588,0.0,0.0,0.0,0.0,-4.6903,-4.8369,-4.9364,-4.9417,-5.0434,-5.1405,-5.2289,-5.2474,-5.2988,-5.3867,-5.3047,-5.2637,-5.2617,-5.1797,-5.0996,-5.0254,-5.0215,-4.9746,-4.8965,-4.8926,-4.8418,-4.7598,-4.7597,-4.7031,-4.619,-4.6027,-4.5503,-4.4894,-4.5531,-4.5296,-4.4731,-4.5544,-4.5326,-4.4781,-4.5477,-4.5082,-4.4169,-4.315,-4.2297,0.0,0.0,-4.1104,-4.1808,-4.1846,-4.2489,-4.3104,-4.3143,-4.3162,-4.3143,-4.3104,-4.2489,-4.1904,-4.18,-4.1742,-4.0915,-3.8416,0.0,-3.8327,-3.5865,-3.5718,-3.5584,-3.4788,-3.4147,-3.376,-3.3733,-3.3697,-3.3697,-3.3733,-3.3364,-3.2963,-3.2534,-3.2484,-3.2265,-3.1789,-3.1528,-3.1706,-3.2363,-3.0504,0.0,0.0,0.0,0.0,0.0,0.0,0.0,0.0,0.0,0.0,0.0,0.0,0.0,0.0,0.0,0.0,0.0,0.0,0.0,0.0,0.0,0.0,0.0,0.0,0.0,0.0,0.0,0.0,-4.8034,-5.0196,0.0,-4.9488,-4.9591,-4.9871,-5.0106,-5.0711,-5.1368,-5.2009,-5.2939,-5.3672,-5.4159,-5.4752,-5.5009,-5.4844,-5.3965,-5.3262,-5.2676,-5.1289,-5.0488,-5.0156,-4.9043,-4.8359,-4.8027,-4.7461,-4.7051,-4.6758,-4.6758,-4.6582,-4.6308,-4.6247,-4.6049,-4.5834,-4.6077,-4.5915,-4.5646,-4.5936,-4.5783,-4.5339,-4.4556,-4.3694,-4.2782,-4.1841,-4.1344,-4.1008,-4.0604,-4.1123,-4.1788,-4.1788,-4.2019,-4.2258,-4.2258,-4.2258,-4.2104,-4.1546,-4.1623,-4.1489,-4.0392,-4.0604,-4.0335,-3.8334,-3.8257,-3.7796,-3.5808,-3.5428,-3.523,-3.4752,-3.3863,-3.3223,-3.3049,-3.2559,-3.2467,-3.2981,-3.2898,-3.2845,-3.2947,-3.2952,-3.2745,-3.2264,-3.2169,-3.202,-3.1806,-3.0141,-2.9421,0.0,0.0,0.0,0.0,0.0,0.0,0.0,0.0,0.0,0.0,0.0,0.0,0.0,0.0,0.0,0.0,0.0,0.0,0.0,0.0,0.0,0.0,0.0,0.0,0.0,-4.7315,-4.9176,-4.8218,-5.0502,-5.1636,-5.0348,-5.0875,-5.1527,-5.2091,-5.2525,-5.3061,-5.3748,-5.4625,-5.519,-5.5365,-5.5705,-5.5686,-5.5247,-5.4076,-5.3083,-5.2246,-5.0859,-4.9883,-4.9277,-4.8125,-4.7441,-4.7129,-4.6543,-4.6308,-4.6308,-4.6308,-4.6308,-4.6308,-4.6308,-4.6308,-4.6308,-4.6308,-4.6247,-4.6134,-4.5821,-4.5664,-4.5367,-4.3936,-4.3088,-4.2431,-4.1456,-4.1177,-4.1084,-4.0713,-4.1001,-4.1427,-4.1427,-4.1401,-4.1354,-4.1354,-4.1354,-4.1123,-4.0285,-4.0546,-4.0546,-3.9123,-3.9534,-3.9554,-3.7853,-3.7565,-3.7084,-3.5712,-3.5273,-3.493,-3.4463,-3.3567,-3.2834,-3.2385,-3.2016,-3.2027,-3.2546,-3.2839,-3.3058,-3.3192,-3.3064,-3.2802,-3.2355,-3.2463,-3.2289,-3.1814,-3.0166,-2.9358,-2.9497,0.0,0.0,0.0,0.0,0.0,0.0,0.0,0.0,0.0,0.0,0.0,0.0,0.0,0.0,0.0,0.0,0.0,0.0,0.0,0.0,0.0,0.0,0.0,-4.6085,-4.8123,-4.9508,-4.9056,-5.1804,-5.2971,-5.0989,-5.2622,-5.346,-5.2698,-5.3817,-5.453,-5.4491,-5.5381,-5.5877,-5.5857,-5.5236,-5.4927,-5.5017,-5.3306,-5.2087,-5.1347,-5.0508,-4.9238,-4.7598,-4.7578,-4.7109,-4.6308,-4.6308,-4.6308,-4.6308,-4.6308,-4.6308,-4.6308,-4.6308,-4.6308,-4.6308,-4.6269,-4.623,-4.6094,-4.5273,-4.498,-4.4804,-4.386,-4.355,-4.3383,-4.2365,-4.2062,-4.1887,-4.1031,-4.0752,-4.0703,-4.0703,-4.059,-4.0473,-4.0492,-4.0473,-4.0223,-3.9465,-3.9273,-3.8996,-3.8123,-3.8623,-3.8642,-3.6981,-3.6692,-3.6423,-3.5615,-3.5262,0.0,-3.3903,-3.3324,-3.2683,-3.1924,-3.2305,-3.2614,-3.2638,-3.3348,-3.362,-3.3207,-3.2817,-3.2424,-3.2025,-3.2379,-3.2583,-3.2564,-3.0745,-2.917,-2.794,0.0,0.0,0.0,0.0,0.0,0.0,0.0,0.0,0.0,0.0,0.0,0.0,0.0,0.0,0.0,0.0,0.0,0.0,0.0,0.0,0.0,-4.5131,-4.7223,-4.759,-4.9774,-5.1285,-5.1165,-5.196,-5.26,-5.2916,-5.3201,-5.339,-5.3466,-5.4653,-5.5126,-5.453,-5.5295,-5.5537,-5.5052,-5.4849,-5.4219,-5.3076,-5.2013,-5.1074,-5.0222,-4.8827,-4.7927,-4.744,-4.6892,-4.6523,-4.6308,-4.6308,-4.6308,-4.6308,-4.6308,-4.6308,-4.6308,-4.6308,-4.6308,-4.6211,-4.5586,-4.4961,-4.4473,-4.4863,-4.459,-4.3906,-4.3025,-4.2731,-4.2551,-4.1593,-4.1301,-4.1231,-4.0898,-4.0796,-4.077,-4.077,-4.0315,-3.9995,-4.0582,-3.9796,-3.899,-3.9294,-3.8877,-3.8157,-3.724,-3.6769,-3.6577,-3.6673,-3.6692,-3.6423,-3.5615,-3.4901,-3.4285,-3.3862,-3.312,-3.2657,-3.2672,-3.2787,-3.3044,-3.3435,-3.3678,-3.351,-3.2816,-3.2659,-3.2562,-3.2451,-3.253,-3.2326,-3.1733,-3.1785,-3.0781,0.0,0.0,0.0,0.0,0.0,0.0,0.0,0.0,0.0,0.0,0.0,0.0,0.0,0.0,0.0,0.0,0.0,0.0,0.0,0.0,0.0,0.0,-4.6452,-4.8526,-4.9682,-5.1077,-5.2123,-5.2454,-5.2509,-5.278,-5.3469,-5.3494,-5.3483,-5.3538,-5.439,-5.4783,-5.4511,-5.4607,-5.464,-5.4628,-5.3913,-5.3112,-5.2226,-5.1058,-5.0061,-4.9235,-4.7933,-4.7122,-4.6752,-4.6323,-4.6152,-4.6222,-4.6222,-4.6247,-4.6308,-4.6308,-4.6308,-4.6308,0.0,0.0,0.0,0.0,-4.4687,-4.4258,-4.4414,-4.3887,-4.3027,-4.2168,-4.1894,-4.1797,-4.1241,-4.1081,-4.0998,-4.0541,-4.0649,-4.0721,-3.9977,-3.9694,-3.9622,-3.9739,-3.9015,-3.8218,-3.7928,-3.7444,-3.6736,-3.5472,-3.4811,0.0,-3.5078,-3.5123,-3.4949,-3.4481,-3.3987,-3.3474,-3.2972,-3.2386,-3.1908,-3.164,-3.2146,-3.2585,-3.2768,-3.3403,0.0,0.0,0.0,-3.2454,-3.2118,-3.21,0.0,0.0,0.0,-3.073,-2.9005,-3.0283,0.0,0.0,-3.1137,-3.2392,0.0,0.0,0.0,0.0,0.0,0.0,0.0,0.0,0.0,0.0,0.0,0.0,0.0,0.0,0.0,0.0,-4.8414,-5.0086,-5.1756,-5.2068,-5.2399,-5.3133,-5.3112,-5.3078,-5.3078,-5.3362,-5.3361,-5.295,-5.3385,-5.3816,-5.4192,-5.3568,0.0,0.0,0.0,-5.1904,-5.1935,-5.0279,-4.9104,-4.8448,-4.7495,-4.6644,-4.5881,-4.5894,-4.5951,-4.608,-4.608,-4.6145,-4.6267,-4.6268,-4.623,-4.6152,-4.6269,-4.5762,-4.5019,-4.5117,-4.4961,-4.4609,-4.3926,0.0,0.0,-4.1426,-4.1191,-4.1191,-4.1191,-4.1191,-4.1016,-4.0156,-4.0363,-4.0496,-3.8853,-3.8873,-3.9165,-3.8481,-3.8107,-3.75,-3.6038,-3.5564,-3.4993,-3.3488,-3.3028,-3.2876,-3.2866,-3.2871,-3.2891,-3.2891,-3.2814,-3.2506,-3.1795,-3.1416,-3.0872,-2.9973,-3.1005,0.0,-3.1482,-3.279,-3.3569,-3.3456,-3.2776,-3.2053,-3.1366,-3.1421,-3.1108,-3.0286,-3.0268,-2.9869,-2.9051,-2.9761,-2.9774,-2.9189,-3.1427,-3.2797,0.0,0.0,0.0,0.0,0.0,0.0,0.0,0.0,0.0,0.0,0.0,0.0,0.0,0.0,0.0,-4.6047,-4.8178,-5.0161,-5.1756,-5.2564,-5.3041,-5.3167,-5.2637,-5.2234,-5.2234,-5.201,-5.1658,-5.1217,-5.2216,-5.2712,-5.2413,-5.2914,-5.2972,-5.2423,-5.2077,-5.1607,-5.0971,-4.9256,-4.8311,-4.8169,-4.6751,0.0,-4.5814,-4.5877,-4.5912,-4.5932,-4.5932,-4.5944,-4.5985,-4.6087,-4.579,-4.5312,-4.6035,-4.5762,-4.5098,-4.5781,-4.4707,-4.2988,-4.3516,-4.2695,-4.1406,-4.125,-4.1191,-4.1191,-4.1191,-4.1191,0.0,-4.0156,-4.0,-3.9862,-3.8827,-3.816,-3.7884,-3.8411,-3.6927,-3.5476,-3.5797,-3.4751,-3.3641,-3.3268,-3.26,-3.2101,-3.2037,-3.251,-3.2891,-3.2891,-3.2352,-3.1891,-3.1718,-3.1033,-3.0688,-3.0963,-3.1233,-3.1549,-3.1926,-3.2252,-3.2083,-3.1281,-3.1084,-3.0996,-3.1005,-3.1624,-3.1587,-3.079,-3.0771,-3.0298,-2.932,-2.9469,-2.9702,-2.9989,-3.1109,-3.1366,0.0,0.0,0.0,0.0,0.0,0.0,0.0,0.0,0.0,0.0,0.0,-4.0273,-4.1741,0.0,-4.5484,-4.8113,-4.9812,-5.1226,-5.2435,-5.2601,-5.2747,-5.3148,-5.2858,-5.2601,-5.2601,-5.2035,-5.151,-5.105,-5.1393,-5.163,-5.1595,-5.1823,-5.1933,-5.1904,-5.151,-5.1106,-5.0712,-4.9394,-4.8529,-4.8086,-4.691,-4.6117,-4.57,-4.5736,-4.5789,-4.5839,-4.5839,-4.5862,-4.5903,-4.5978,-4.5572,-4.4989,-4.5868,-4.5719,-4.5058,-4.5488,-4.4551,-4.3105,-4.3555,-4.2598,-4.1191,-4.1191,-4.1191,-4.1191,-4.1191,-4.1191,-4.0937,-3.9629,-3.9551,-3.9492,-3.7754,-3.7305,-3.7305,-3.7305,-3.6309,-3.5214,-3.4759,-3.3955,-3.3092,-3.2214,-3.1646,-3.1288,-3.1254,-3.1493,-3.1689,-3.1647,-3.1308,-3.1058,-3.1058,-3.1058,-3.0951,-3.0681,-3.1401,-3.1781,-3.1525,-3.1874,-3.1901,-3.1388,-3.1359,-3.1212,-3.0903,-3.128,-3.0922,-2.9668,-2.965,-2.9192,-2.8296,-2.8296,-2.8446,-2.87,-2.9109,-2.9843,0.0,0.0,0.0,0.0,0.0,0.0,0.0,-3.7932,-3.8069,-3.846,-3.936,-4.08,-4.311,-4.4819,-4.6921,-5.0198,-5.1314,-5.2053,-5.2855,-5.2417,-5.2179,-5.2692,-5.2726,-5.2726,-5.2726,-5.2013,-5.1334,-5.0856,-5.052,-5.0529,-5.0926,-5.0722,-5.0872,-5.1525,-5.1009,-5.0712,-5.0712,-4.9837,-4.9048,-4.8336,-4.7375,-4.6528,-4.5845,-4.5691,-4.5648,-4.5768,-4.5768,-4.5808,-4.5886,-4.5886,-4.5348,-4.4607,-4.5487,-4.5262,-4.4488,-4.4863,-4.4453,-4.3672,-4.3516,-4.2461,-4.1191,-4.1191,-4.1191,-4.1191,-4.1191,-4.1074,-4.0625,-3.9043,-3.8984,-3.8867,-3.6582,-3.6523,-3.6875,-3.6172,-3.5879,-3.5312,-3.373,-3.3281,-3.2715,-3.1191,-3.0815,-3.0722,-3.0696,-3.06,-3.052,-3.0439,-3.0402,-3.0404,-3.0404,-3.1,-3.1104,-3.0173,-3.1298,-3.1737,-3.0873,-3.1352,-3.1721,-3.1766,-3.1721,-3.1343,-3.0591,-3.0553,-2.9834,-2.8327,-2.8309,-2.7956,-2.7258,-2.7258,-2.7234,-2.7204,-2.7204,-2.8428,-3.7889,-3.7081,-3.6584,-3.6889,-3.6014,-3.5694,0.0,-3.8831,-3.9566,-4.1685,-4.3489,-4.4741,-4.5096,-4.6413,-4.8015,-4.9801,-5.0617,-5.1284,-5.2024,-5.205,-5.1775,-5.1151,-5.1077,-5.1077,-5.1077,-5.0325,-4.9656,-4.9198,-4.9133,-4.927,-4.9679,-5.0006,-5.0209,-5.0305,-5.0562,-5.0712,-5.0712,-4.9837,-4.9356,-4.924,-4.7644,-4.6846,-4.674,-4.5951,-4.5603,-4.561,-4.561,-4.5692,-4.5809,-4.5809,-4.4927,-4.3642,-4.4522,-4.3868,-4.2633,-4.4368,-4.4453,-4.3594,-4.2812,-4.1953,-4.1191,-4.1191,-4.1191,-4.1191,-4.1191,-4.0664,-3.9844,-3.8867,-3.8105,-3.7344,-3.6289,-3.6074,-3.6113,-3.6016,-3.541,-3.457,-3.3613,-3.2832,-3.2051,-3.1094,-3.0898,-3.0837,-3.072,-3.0687,-3.0626,-3.0511,-3.0436,-3.0404,-3.0404,-3.0481,-3.0494,-3.038,-3.0528,-3.0598,-3.0465,-3.0312,-3.034,-3.058,-3.0369,-2.9947,-2.9332,-2.93,-2.8877,-2.7975,-2.7956,-2.7783,-2.7461,-2.7461,-2.7369,-2.7204,-2.7204,-2.7368,-3.641,-3.6151,-3.5912,-3.5123,-3.5181,-3.5783,-3.6968,-3.8064,-3.9205,-4.0609,-4.2458,-4.412,-4.5093,-4.6536,-4.8123,-4.9724,-5.0521,-5.1008,-5.131,-5.0926,-5.0637,-5.0784,-4.9939,-4.9738,-5.071,-5.0068,-4.9523,-4.9307,-4.904,-4.8961,-4.9139,-4.9532,-4.9746,-4.9746,-5.0147,-5.0347,-5.0347,-5.0229,-4.9894,-4.9394,-4.8182,-4.7346,-4.6865,-4.599,-4.5594,-4.5594,-4.5594,-4.5627,-4.563,-4.5129,-4.4272,-4.3313,-4.3673,-4.3122,-4.226,-4.3582,-4.3524,-4.2722,-4.2351,-4.1666,-4.0962,-4.0962,-4.0652,-4.029,-4.0313,-3.9714,-3.8859,-3.8066,-3.7578,-3.7109,-3.623,-3.5996,-3.5996,-3.5996,-3.5723,-3.5078,-3.3691,-3.3144,-3.25,-3.1152,-3.0898,-3.0879,-3.0836,-3.0746,-3.0684,-3.0616,-3.0525,-3.0446,-3.0416,-3.0846,-3.1154,-3.1154,-3.0692,-3.0404,-3.0404,-3.0305,-3.0062,-2.9673,-2.9537,-2.9147,-2.8429,-2.8396,-2.8011,-2.7159,-2.714,-2.6839,-2.6224,-2.6224,-2.619,-2.6092,-2.6092,-2.6092,-3.4926,-3.4775,-3.457,-3.3489,-3.4155,-3.5171,-3.5818,-3.6886,-3.8133,-3.9398,-4.1053,-4.2783,-4.4503,-4.6143,-4.7757,-4.9365,-5.0022,-5.0324,-5.0312,-4.976,-4.9555,-5.012,-4.9292,-4.9132,-5.0343,-4.9719,-4.9243,-4.9243,-4.8919,-4.8727,-4.8727,-4.9108,-4.9341,-4.9341,-4.9733,-4.9987,-5.0092,-5.0399,-5.0152,-4.9394,-4.8529,-4.7682,-4.6865,-4.599,-4.5594,-4.5594,-4.5594,-4.546,-4.519,-4.4566,-4.3713,-4.2807,-4.2808,-4.2342,-4.1743,-4.2374,-4.2392,-4.2035,-4.1568,-4.1136,-4.0719,-4.026,-3.9875,-3.9558,-3.9379,-3.8714,-3.7903,-3.7368,-3.7041,-3.6709,-3.6083,-3.5931,-3.5974,-3.5974,-3.5995,-3.5586,-3.4082,-3.3574,-3.2988,-3.1543,-3.1055,-3.0898,-3.0898,-3.0816,-3.0745,-3.0716,-3.0628,-3.0521,-3.0436,-3.0953,-3.1346,-3.1346,-3.0558,-3.0135,-3.0385,-2.9981,-2.9544,-2.9127,-2.8896,-2.8396,-2.7582,-2.7544,-2.7121,-2.625,-2.6231,-2.5923,-2.5308,-2.5308,-2.5308,-2.5308,-2.5308,-2.5308,-3.4056,-3.3099,-3.2234,-3.2698,-3.2568,-3.2924,-3.5118,-3.565,-3.6466,-3.9239,-4.0574,-4.1797,-4.3515,-4.5373,-4.7068,-4.8436,-4.8815,-4.8939,-4.8859,-4.8742,-4.8638,-4.8674,-4.9198,-4.9592,-4.9629,-4.8838,-4.8343,-4.8343,-4.8343,-4.8325,-4.8325,-4.871,-4.8913,-4.8913,-4.9311,-4.9706,-5.0092,-5.0104,-4.9873,-4.9394,-4.8529,-4.7682,-4.6865,-4.599,-4.5594,-4.5594,-4.5594,-4.5133,-4.4335,-4.4316,-4.3335,-4.1843,-4.1843,-4.1312,-4.055,-4.0577,-4.1228,-4.1879,-4.0248,-4.0167,-4.0529,-3.8889,-3.8932,-3.9434,-3.8604,-3.7728,-3.7044,-3.7027,-3.6398,-3.5733,-3.5713,-3.5807,-3.5903,-3.5903,-3.5949,-3.5742,-3.4844,-3.4004,-3.3144,-3.2324,-3.1484,-3.0898,-3.0898,-3.0898,-3.0857,-3.072,-3.0693,-3.0655,-3.0505,-3.046,-3.0442,-3.0442,-2.966,-2.9486,-3.0327,-2.8909,-2.8299,-2.905,-2.8376,-2.7544,-2.6678,-2.664,-2.6231,-2.5365,-2.5346,-2.5327,-2.5308,-2.5308,-2.5308,-2.5308,-2.5308,-2.5308,-3.1732,-3.089,-3.022,-3.0048,-3.0443,-3.1048,-3.1865,-3.3548,-3.5218,-3.6155,-3.8081,-3.9991,-4.1178,-4.3381,-4.5375,-4.6435,-4.743,-4.8112,-4.8076,-4.7989,-4.7944,-4.7944,-4.8956,-4.9669,-4.9669,-4.9352,-4.8912,-4.8343,-4.8306,-4.8306,-4.8306,-4.8421,-4.8495,-4.8495,-4.888,-4.8909,-4.8517,-4.8777,-4.8681,-4.8192,-4.7588,-4.6855,-4.6028,-4.5729,-4.5594,-4.5575,-4.4998,-4.4566,-4.4201,-4.3104,-4.2316,-4.1731,-4.1162,-4.0766,-4.0496,-4.0496,-4.074,-4.0965,-4.0398,-4.0378,-4.0507,-3.9934,-3.9199,-3.8489,-3.8234,-3.7191,-3.6084,-3.6117,-3.5921,-3.5707,-3.5707,-3.5726,-3.5766,-3.5766,-3.5785,-3.5565,-3.4744,-3.3911,-3.3089,-3.2229,-3.1442,-3.0898,-3.0898,-3.0898,-3.0683,-3.0056,-3.0356,-3.0625,-3.0571,-3.0552,-3.0312,-2.9722,-2.9416,-2.914,-2.8896,-2.832,-2.7847,-2.7582,-2.7275,-2.6734,-2.5893,-2.5877,-2.5722,-2.5431,-2.5431,-2.5431,-2.5431,-2.5431,-2.5431,-2.5431,-2.5431,-2.5431,-3.0701,-2.9924,-2.9159,-2.8778,-2.9818,-3.0796,-3.0445,-3.2276,-3.4167,-3.4579,-3.6198,-3.7926,-3.9106,-4.1344,-4.3292,-4.4169,-4.5336,-4.634,-4.69,-4.6891,-4.7159,-4.7984,-4.907,-4.9887,-5.0118,-5.0097,-4.983,-4.9241,-4.893,-4.8765,-4.8765,-4.8471,-4.8306,-4.8306,-4.855,-4.8371,-4.7721,-4.7968,-4.7706,-4.6939,-4.6361,-4.5778,-4.5243,-4.5243,-4.5081,-4.4746,-4.4308,-4.3789,-4.3146,-4.2187,-4.1623,-4.1277,-4.0727,-4.0496,-4.0496,-4.0496,-4.0496,-4.0458,-4.0169,-4.0265,-4.04,-3.9804,-3.8873,-3.801,-3.8042,-3.7094,-3.5996,-3.6048,-3.6052,-3.5994,-3.5703,-3.5661,-3.5652,-3.5652,-3.5678,-3.5567,-3.5038,-3.4297,-3.3468,-3.2591,-3.1811,-3.1187,-3.0875,-3.0605,-3.0254,-2.9687,-2.969,-2.9767,-2.9747,-2.9719,-2.9485,-2.8938,-2.8588,-2.8315,-2.8112,-2.7492,-2.7019,-2.6815,-2.6466,-2.6039,-2.5527,-2.5491,-2.5491,-2.5491,-2.5491,-2.5491,-2.5491,-2.5491,-2.5491,-2.5491,-2.5491,-2.5491,-3.0719,-2.9938,-2.8798,-2.881,-3.0472,-3.1762,-3.0759,-3.181,-3.3292,-3.4295,-3.4873,-3.5659,-3.7268,-3.9298,-4.0982,-4.1804,-4.2805,-4.4006,-4.5529,-4.5634,-4.6377,-4.855,-4.9424,-5.0112,-5.0741,-5.0893,-5.0913,-5.0812,-5.0068,-4.9574,-4.9537,-4.8746,-4.8288,-4.8251,-4.8251,-4.8016,-4.7541,-4.7518,-4.6903,-4.5698,-4.4938,-4.4593,-4.4593,-4.4555,-4.4083,-4.3316,-4.3551,-4.2749,-4.1293,-4.1574,-4.1215,-4.0481,-4.0481,-4.0489,-4.0496,-4.0496,-4.0496,-4.0381,-3.9573,-3.9804,-4.0189,-3.8623,-3.8065,-3.8007,-3.8046,-3.7469,-3.6769,-3.6769,-3.6731,-3.6519,-3.575,-3.5584,-3.56,-3.56,-3.5633,-3.5689,-3.5689,-3.5067,-3.4231,-3.3362,-3.2518,-3.1679,-3.0846,-3.0071,-2.957,-2.9531,-2.8789,-2.8221,-2.8219,-2.8152,-2.8088,-2.8046,-2.7293,-2.7137,-2.791,-2.6461,-2.5863,-2.6692,-2.596,-2.5517,-2.55,-2.55,-2.55,-2.55,-2.55,-2.55,-2.55,-2.55,-2.55,-2.55,-2.55,-2.55,-2.8407,-2.7872,-2.7617,-2.7926,-2.8978,-2.9893,-2.964,-3.0876,-3.211,-3.1972,-3.2723,-3.3651,-3.44,-3.7373,-4.0052,-4.0982,-4.367,-4.584,-4.6245,-4.638,-4.6669,-4.7277,-4.8394,-4.9228,-4.938,-5.0858,-5.1545,-5.0923,-5.0081,-4.9335,-4.8673,-4.8416,-4.8031,-4.7424,-4.7406,-4.6783,-4.5473,-4.5124,-4.477,-4.446,-4.4554,-4.4593,-4.4574,-4.3926,-4.3511,-4.3228,-4.2122,-4.1412,-4.0957,-4.0398,-4.0184,-4.0195,-4.0195,-4.033,-4.0496,-4.0496,-4.0496,-4.0381,-3.9573,-3.9438,-3.9631,-3.9804,-3.9008,-3.8123,-3.8757,-3.8354,-3.768,-3.768,-3.7199,-3.6654,-3.6442,-3.5957,-3.5528,-3.5528,-3.5547,-3.5558,-3.5558,-3.4916,-3.409,-3.3222,-3.1912,-3.0884,-3.0653,-3.0017,-2.9301,-2.8655,-2.7868,-2.7558,-2.8182,-2.8256,-2.7999,-2.7355,-2.7082,-2.6789,-2.6358,-2.5855,-2.5696,-2.5968,-2.5738,-2.5599,-2.5657,-2.5658,-2.5658,-2.5658,-2.5658,-2.5658,-2.5658,-2.5658,-2.5658,-2.5658,-2.5658,-2.5658,-2.829,-2.8204,-2.8227,-2.8416,-2.9792,-3.0842,-3.0089,-3.1463,-3.2723,-3.2111,-3.2576,-3.3271,-3.3952,-3.6411,-3.8676,-3.9689,-4.2698,-4.5212,-4.5911,-4.6179,-4.6566,-4.7208,-4.7704,-4.8088,-4.8387,-4.9512,-5.0015,-4.9531,-4.9889,-4.9756,-4.8912,-4.8177,-4.7571,-4.7113,-4.6746,-4.5975,-4.4727,-4.4101,-4.3772,-4.3788,-4.4004,-4.4125,-4.4106,-4.3621,-4.3005,-4.2291,-4.1544,-4.0797,-4.009,-3.9741,-3.9701,-3.988,-3.988,-3.9964,-4.012,-4.012,-4.012,-4.0034,-3.9595,-3.9185,-3.8973,-3.9722,-3.8815,-3.7738,-3.9342,-3.87,-3.7507,-3.7892,-3.7373,-3.6615,-3.6269,-3.5846,-3.55,-3.55,-3.55,-3.55,-3.55,-3.5143,-3.4469,-3.3233,-3.1685,-3.0561,-3.0597,-2.9934,-2.9137,-2.8281,-2.7444,-2.6952,-2.7053,-2.7126,-2.6973,-2.6484,-2.6426,-2.623,-2.5742,-2.5661,-2.566,-2.5703,-2.5661,-2.5661,-2.5703,-2.5703,-2.5703,-2.5703,-2.5703,-2.5703,-2.5703,-2.5703,-2.5703,-2.5703,-2.5703,-2.5703,-2.9223,-2.9819,-2.9884,-3.0012,-3.191,-3.3342,-3.1748,-3.3001,-3.4321,-3.3567,-3.3394,-3.3673,-3.4596,-3.5913,-3.7285,-3.8488,-4.122,-4.3717,-4.5276,-4.5784,-4.6447,-4.7631,-4.7192,-4.7009,-4.7479,-4.7684,-4.7692,-4.7424,-4.9165,-4.9962,-4.9327,-4.7901,-4.7003,-4.6782,-4.6012,-4.5241,-4.4562,-4.3846,-4.3515,-4.3515,-4.3515,-4.3515,-4.3515,-4.3404,-4.2525,-4.1111,-4.1289,-4.0486,-3.9077,-3.9358,-3.9505,-3.9541,-3.9541,-3.9564,-3.9599,-3.9599,-3.9599,-3.958,-3.9467,-3.8871,-3.8258,-3.9084,-3.8174,-3.7195,-3.9525,-3.8604,-3.6934,-3.7713,-3.7294,-3.6461,-3.5813,-3.5556,-3.5453,-3.5493,-3.55,-3.55,-3.55,-3.5327,-3.4732,-3.3279,-3.1628,-3.0507,-3.0558,-2.9855,-2.9042,-2.8345,-2.7418,-2.6529,-2.5761,-2.5683,-2.5683,-2.5662,-2.5683,-2.5703,-2.5683,-2.5683,-2.5683,-2.5683,-2.5683,-2.5662,-2.5662,-2.5662,-2.5662,-2.5662,-2.5662,-2.5662,-2.5662,-2.5662,-2.5682,-2.5683,-2.5683,-2.5683,-2.9231,-3.0599,-3.1917,-3.2688,-3.4292,-3.5495,-3.4555,-3.5062,-3.5364,-3.4218,-3.366,-3.3556,-3.408,-3.5257,-3.6836,-3.8906,-4.1919,-4.4484,-4.5872,-4.6923,-4.7394,-4.7022,-4.687,-4.6607,-4.6124,-4.7124,-4.7272,-4.5986,-4.6737,-4.7402,-4.7769,-4.734,-4.6489,-4.515,-4.4342,-4.3863,-4.3699,-4.357,-4.3515,-4.3515,-4.3515,-4.3515,-4.3478,-4.28,-4.1992,-4.1075,-4.0457,-3.9642,-3.8777,-3.8833,-3.8994,-3.9192,-3.9192,-3.9352,-3.9599,-3.9599,-3.9599,-3.9505,-3.8784,-3.8003,-3.7565,-3.9061,-3.8412,-3.7237,-3.8414,-3.7988,-3.7195,-3.7562,-3.6881,-3.6103,-3.64,-3.5826,-3.5223,-3.5446,-3.55,-3.55,-3.55,-3.4365,-3.3263,-3.2961,-3.1561,-3.0411,-3.0439,-2.9752,-2.9171,-2.9035,-2.7744,-2.6759,-2.6587,-2.6009,-2.5599,-2.5545,-2.5634,-2.5682,-2.561,-2.5628,-2.5628,-2.5628,-2.5563,-2.5522,-2.5522,-2.5522,-2.5522,-2.5522,-2.5522,-2.5522,-2.5522,-2.5522,-2.5561,-2.5628,-2.5628,-2.5657,-3.0238,-3.2036,-3.351,-3.4169,-3.5648,-3.6648,-3.5549,-3.5823,-3.593,-3.4577,-3.3974,-3.3923,-3.4635,-3.5441,-3.6524,-3.8117,-4.094,-4.3461,-4.4941,-4.5683,-4.6254,-4.6756,-4.6109,-4.55,-4.5145,-4.5749,-4.5823,-4.5076,-4.5265,-4.5628,-4.6176,-4.5969,-4.5296,-4.4103,-4.3699,-4.3515,-4.3515,-4.3515,-4.3515,-4.3515,-4.3515,-4.3515,-4.3496,-4.3094,-4.2268,-4.1077,-4.0689,-3.9827,-3.8707,-3.8707,-3.8777,-3.888,-3.888,-3.8994,-3.9127,-3.9127,-3.9127,-3.9072,-3.8635,-3.8258,-3.8011,-3.8378,-3.7297,-3.6082,-3.7368,-3.7179,-3.6558,-3.6681,-3.6327,-3.585,-3.5701,-3.5275,-3.4963,-3.5223,-3.5391,-3.5453,-3.5312,-3.4282,-3.3362,-3.3362,-3.2008,-3.0905,-3.1046,-3.0378,-2.9669,-2.9211,-2.8119,-2.7206,-2.6746,-2.6,-2.5508,-2.5491,-2.5558,-2.5573,-2.5552,-2.5551,-2.5551,-2.5551,-2.5526,-2.5491,-2.5491,-2.5491,-2.5491,-2.5491,-2.5491,-2.5491,-2.5491,-2.5491,-2.5526,-2.5551,-2.5551,-2.5563,-3.1279,-3.3254,-3.4641,-3.5329,-3.6806,-3.7701,-3.6255,-3.6409,-3.6453,-3.5023,-3.4506,-3.4576,-3.5359,-3.5712,-3.6225,-3.7257,-3.9531,-4.1896,-4.3917,-4.4348,-4.5025,-4.6596,-4.5618,-4.4784,-4.4632,-4.4615,-4.4462,-4.4141,-4.3821,-4.3951,-4.4605,-4.4464,-4.4035,-4.3358,-4.3339,-4.3392,-4.3515,-4.3515,-4.3515,-4.3515,-4.3515,-4.3423,-4.3239,-4.3239,-4.2359,-4.0838,-4.0838,-4.0029,-3.8707,-3.8707,-3.8707,-3.8707,-3.8707,-3.8707,-3.8707,-3.8707,-3.8707,-3.8707,-3.8707,-3.8597,-3.8303,-3.7511,-3.6231,-3.5248,-3.64,-3.6134,-3.5454,-3.5534,-3.549,-3.5334,-3.4833,-3.4653,-3.4655,-3.4954,-3.5182,-3.5273,-3.507,-3.4342,-3.3705,-3.3705,-3.2365,-3.1291,-3.1498,-3.0816,-3.0011,-2.9327,-2.8591,-2.784,-2.7168,-2.6246,-2.5677,-2.5728,-2.559,-2.5486,-2.5471,-2.549,-2.549,-2.549,-2.5474,-2.5462,-2.5462,-2.5462,-2.5462,-2.5462,-2.5462,-2.5462,-2.5462,-2.5462,-2.5451,-2.5488,-2.5488,-2.5498,-3.1709,-3.3546,-3.4989,-3.6733,-3.8405,-3.9195,-3.766,-3.751,-3.7262,-3.5792,-3.5415,-3.5392,-3.5472,-3.5529,-3.5959,-3.7191,-3.8387,-4.035,-4.3725,-4.4363,-4.5069,-4.6625,-4.6092,-4.5331,-4.4666,-4.4615,-4.4022,-4.2608,-4.1692,-4.1799,-4.3123,-4.3173,-4.3048,-4.2787,-4.2769,-4.2995,-4.3497,-4.3515,-4.3515,-4.3515,-4.3515,-4.3112,-4.2415,-4.2415,-4.1534,-4.001,-4.001,-3.9515,-3.8707,-3.8707,-3.8707,-3.8707,-3.8707,-3.8707,-3.8707,-3.8707,-3.8707,-3.8707,-3.8707,-3.8212,-3.7474,-3.667,-3.6291,-3.6035,-3.5409,-3.4636,-3.4039,-3.4294,-3.4179,-3.411,-3.4577,-3.4467,-3.4334,-3.4663,-3.4763,-3.4783,-3.4734,-3.4054,-3.343,-3.343,-3.2072,-3.093,-3.0976,-3.0304,-2.9746,-2.9652,-2.9118,-2.868,-2.8604,-2.737,-2.6487,-2.6502,-2.5909,-2.5485,-2.5411,-2.5404,-2.5404,-2.5404,-2.535,-2.5322,-2.5322,-2.5322,-2.5322,-2.5322,-2.5322,-2.5322,-2.5322,-2.5322,-2.5361,-2.5413,-2.5401,-2.5447,-3.2371,-3.4306,-3.5986,-3.7733,-3.8622,-3.8938,-3.8394,-3.7687,-3.6835,-3.5752,-3.5507,-3.5504,-3.5504,-3.5504,-3.5669,-3.6178,-3.6932,-3.8591,-4.1869,-4.199,-4.2827,-4.5778,-4.506,-4.4401,-4.4581,-4.4147,-4.325,-4.1745,-4.1308,-4.1138,-4.124,-4.1903,-4.2236,-4.2142,-4.2162,-4.2264,-4.2465,-4.2846,-4.3014,-4.3014,-4.2845,-4.2442,-4.1795,-4.1655,-4.0796,-3.9431,-3.9768,-3.9441,-3.8707,-3.8707,-3.8707,-3.8707,-3.8707,-3.8707,-3.8707,-3.8707,-3.8707,-3.8707,-3.8707,-3.8487,-3.801,-3.6707,-3.6303,-3.6046,-3.4688,-3.438,-3.4444,-3.407,-3.4244,-3.4467,-3.4216,-3.4189,-3.4223,-3.4368,-3.4551,-3.4643,-3.4434,-3.4128,-3.3874,-3.3874,-3.2553,-3.1492,-3.1657,-3.0572,-2.9705,-2.9705,-2.9055,-2.8563,-2.8563,-2.7208,-2.6242,-2.6242,-2.5721,-2.5375,-2.5333,-2.5348,-2.5348,-2.5348,-2.5317,-2.5308,-2.5308,-2.5308,-2.5308,-2.5308,-2.5308,-2.5308,-2.5308,-2.5308,-2.5313,-2.5339,-2.5344,-2.535,-3.2641,-3.4617,-3.6481,-3.7933,-3.8466,-3.8621,-3.8727,-3.7671,-3.6552,-3.5962,-3.566,-3.5504,-3.5504,-3.5504,-3.5504,-3.5504,-3.5893,-3.7275,-4.0352,-4.0281,-4.1195,-4.4619,-4.4079,-4.3639,-4.4181,-4.3538,-4.2557,-4.1305,-4.1001,-4.0646,-4.013,-4.0861,-4.1375,-4.1534,-4.1534,-4.1621,-4.181,-4.2203,-4.2422,-4.2422,-4.2031,-4.1506,-4.0901,-4.0491,-3.9659,-3.8564,-3.8933,-3.8844,-3.8465,-3.8465,-3.8562,-3.8707,-3.8707,-3.8707,-3.8692,-3.853,-3.8465,-3.8465,-3.8465,-3.8465,-3.8225,-3.6773,-3.6303,-3.5991,-3.4302,-3.4211,-3.4527,-3.3972,-3.4211,-3.4509,-3.3954,-3.3935,-3.4074,-3.4074,-3.426,-3.4364,-3.4123,-3.4074,-3.4074,-3.4074,-3.2782,-3.1738,-3.1927,-3.0581,-2.9485,-2.9485,-2.9036,-2.8705,-2.8705,-2.7535,-2.6626,-2.6389,-2.585,-2.5405,-2.5168,-2.5149,-2.5149,-2.5149,-2.5149,-2.5149,-2.5149,-2.5149,-2.5149,-2.5149,-2.5149,-2.5149,-2.5149,-2.5149,-2.5149,-2.5149,-2.5149,-2.5149,-3.2357,-3.4263,-3.6214,-3.7183,-3.8006,-3.8621,-3.8621,-3.7613,-3.6694,-3.6694,-3.606,-3.5504,-3.5504,-3.5504,-3.5504,-3.5504,-3.5504,-3.6542,-3.9586,-4.0005,-4.0864,-4.317,-4.3409,-4.3392,-4.3409,-4.2743,-4.1999,-4.1271,-4.051,-4.0113,-4.0096,-4.0096,-4.0343,-4.088,-4.0903,-4.1201,-4.1793,-4.181,-4.181,-4.1793,-4.1076,-4.0296,-3.9494,-3.8752,-3.7972,-3.7209,-3.7228,-3.7487,-3.7893,-3.7893,-3.8216,-3.8707,-3.8707,-3.8707,-3.8643,-3.8099,-3.7893,-3.7893,-3.7893,-3.7893,-3.7743,-3.6647,-3.6303,-3.5991,-3.4302,-3.3807,-3.3807,-3.3807,-3.3807,-3.3807,-3.3807,-3.3788,-3.3802,-3.3802,-3.382,-3.382,-3.3802,-3.3802,-3.3802,-3.3802,-3.2498,-3.1397,-3.1409,-3.0063,-2.9017,-2.9017,-2.9225,-2.9394,-2.9394,-2.8792,-2.8075,-2.7272,-2.6472,-2.5661,-2.4861,-2.4804,-2.4804,-2.4804,-2.4804,-2.4804,-2.4804,-2.4804,-2.4804,-2.4804,-2.4804,-2.4804,-2.4804,-2.4804,-2.4804,-2.4804,-2.4804,-2.4804,-3.3388,-3.4703,-3.6204,-3.7327,-3.7389,-3.7311,-3.7856,-3.6872,-3.5867,-3.586,-3.5678,-3.5504,-3.5504,-3.5504,-3.5504,-3.5504,-3.5504,-3.6181,-3.8169,-3.8403,-3.943,-4.2315,-4.3581,-4.3809,-4.2743,-4.2439,-4.1779,-4.0527,-4.0231,-4.0096,-4.0096,-4.0096,-4.0179,-4.0343,-3.9866,-3.9689,-3.9886,-3.975,-3.9674,-3.9674,-3.9317,-3.8803,-3.8192,-3.7762,-3.7247,-3.6664,-3.7057,-3.7285,-3.7415,-3.7415,-3.7506,-3.7667,-3.7667,-3.7667,-3.7649,-3.747,-3.7415,-3.7415,-3.7415,-3.7415,-3.7184,-3.5734,-3.5265,-3.4978,-3.3385,-3.3328,-3.3807,-3.3807,-3.3592,-3.3447,-3.3721,-3.3611,-3.3465,-3.3734,-3.3807,-3.3807,-3.3807,-3.3807,-3.3807,-3.3807,-3.2485,-3.1397,-3.1397,-3.0081,-2.9005,-2.9005,-2.9067,-2.9134,-2.9134,-2.8453,-2.7886,-2.7645,-2.6403,-2.5389,-2.485,-2.4804,-2.4804,-2.4804,-2.4804,-2.4804,-2.4804,-2.4804,-2.4804,-2.4804,-2.4804,-2.4804,-2.4804,-2.4804,-2.4804,-2.4804,-2.4804,-2.4804,-3.4025,-3.5047,-3.6295,-3.7053,-3.6876,-3.6693,-3.7483,-3.6523,-3.5584,-3.5869,-3.5701,-3.5504,-3.5504,-3.5733,-3.5799,-3.5569,-3.5718,-3.6315,-3.7513,-3.8072,-3.933,-4.1878,-4.2803,-4.278,-4.161,-4.1711,-4.139,-4.0197,-4.0096,-4.0096,-4.0096,-4.0096,-3.9977,-3.9706,-3.9225,-3.8988,-3.8988,-3.8601,-3.8391,-3.8396,-3.7987,-3.7623,-3.7283,-3.6807,-3.6399,-3.6118,-3.644,-3.6724,0.0,-3.6902,-3.7018,-3.7209,-3.7209,-3.7209,-3.719,-3.6962,-3.6902,-3.6902,-3.6902,-3.6902,-3.6677,-3.526,-3.4411,-3.3756,-3.2784,-3.2887,-3.3314,-3.3314,-3.3136,-3.2999,-3.324,-3.3121,-3.2999,-3.3255,-3.3447,-3.3564,-3.3564,-3.3694,-3.3807,-3.3807,-3.2742,-3.1751,-3.1452,-3.032,-2.93,-2.884,-2.8773,-2.8725,-2.8601,-2.8264,-2.791,-2.7618,-2.6425,-2.5486,-2.5057,-2.4754,-2.4567,-2.4567,-2.4567,-2.4567,-2.4567,-2.4567,-2.4567,-2.4567,-2.4567,-2.4567,-2.4567,-2.4567,-2.4567,-2.4567,-2.4567,-2.4567,0.0,-3.5232,-3.6417,-3.6417,-3.6413,-3.6615,-3.7295,-3.6446,0.0,-3.6369,-3.5975,-3.5504,-3.5504,-3.6117,-3.6353,-3.5619,-3.6117,-3.6817,-3.7435,-3.8783,-4.0226,-4.1662,-4.1327,-4.0745,-4.0069,-4.0635,-4.0736,-4.0071,-4.002,-4.0045,-4.0096,-4.0096,-3.9774,-3.9005,-3.8937,-3.8886,-3.8836,-3.8108,-3.7753,-3.7736,-3.7026,-3.6711,-3.6694,-3.5943,-3.56,-3.56,-3.56,-3.5876,-3.6333,-3.6333,-3.6643,-3.7078,-3.7025,-3.7042,-3.702,-3.6417,-3.6246,-3.6316,-3.6212,-3.6212,-3.6069,-3.4971,-3.3617,-3.2401,-3.2401,-3.2451,-3.2501,-3.2501,-3.2484,-3.2467,-3.2484,-3.2484,-3.2467,-3.2484,-3.2825,-3.3154,-3.3154,-3.3433,-3.3707,-3.3707,-3.3012,-3.2188,-3.145,-3.0607,-2.9655,-2.8528,-2.835,-2.825,-2.794,-2.817,-2.808,-2.7324,-2.6591,-2.5944,-2.5439,-2.4618,-2.4141,-2.4161,-2.4151,-2.4141,-2.4141,-2.4141,-2.4141,-2.4141,-2.4141,-2.4141,-2.4141,-2.4141,-2.4141,-2.4141,-2.4141,-2.4141,-3.4986,0.0,-3.5744,-3.5744,-3.5739,-3.5763,0.0,-3.575,0.0,0.0,0.0,-3.5504,-3.5504,-3.6117,-3.6353,-3.5619,-3.6117,-3.6646,-3.6738,-3.8453,-3.9833,-4.0209,-4.0688,-4.0506,-3.9316,-3.9332,-3.9364,-3.9206,-3.9166,-3.9463,-4.007,-4.0096,-3.9774,-3.9005,-3.8447,-3.7889,-3.732,-3.6535,-3.614,-3.614,-3.5955,-3.5893,-3.5893,-3.5684,-3.56,-3.56,-3.56,-3.5672,-3.5805,-3.5805,-3.5854,-3.5916,-3.5339,-3.5476,-3.5809,-3.4576,-3.4819,-3.5635,-3.4495,-3.4461,-3.4725,-3.3351,-3.2261,-3.1506,-3.1506,-3.1968,-3.2501,-3.2501,-3.223,-3.2057,-3.2417,-3.223,-3.2074,-3.2417,-3.2583,-3.2665,-3.2665,-3.2745,-3.2809,-3.2809,-3.1699,-3.0698,-3.0519,-2.934,-2.833,-2.8055,-2.8024,-2.7996,-2.7911,-2.7982,-2.7952,-2.7757,-2.7032,-2.6276,-2.554,-2.4212,-2.3544,-2.3806,-2.3577,-2.3444,-2.3444,-2.3444,-2.3444,-2.3444,-2.3444,-2.3444,-2.3444,-2.3444,-2.3444,-2.3444,-2.3444,-2.3444,-3.4007,-3.482,-3.5504,-3.5504,-3.5504,-3.5504,-3.5504,0.0,0.0,0.0,0.0,-3.5504,-3.5504,-3.6362,-3.6722,-3.5664,-3.6636,-3.7473,-3.7391,-3.8103,-3.8769,-3.9152,-3.9328,-3.9153,-3.8462,-3.8395,-3.8409,-3.839,-3.8386,-3.8718,-3.9516,-3.9226,-3.8702,-3.8012,-3.7561,-3.7172,-3.6812,-3.6011,-3.56,-3.56,-3.56,-3.56,-3.56,-3.56,-3.56,-3.56,-3.56,-3.56,-3.56,-3.56,-3.56,-3.5515,-3.4793,-3.4962,-3.5414,-3.3926,-3.4134,-3.4928,-3.3795,-3.344,-3.3359,-3.2564,-3.1802,-3.119,-3.119,-3.1524,-3.1896,-3.1896,-3.1714,-3.1565,-3.1841,-3.1455,-3.1172,-3.1755,-3.1795,-3.1775,-3.2108,-3.235,-3.2501,-3.2501,-3.1828,-3.1032,-3.0307,-2.9508,-2.8762,-2.8215,-2.8132,-2.8056,-2.7886,-2.8026,-2.7992,-2.7654,-2.6938,-2.6363,-2.6069,-2.4362,-2.3338,-2.3455,-2.3311,-2.32,-2.32,-2.32,-2.32,-2.32,-2.32,-2.32,-2.32,-2.32,-2.32,-2.32,-2.32,-2.32,-3.2558,-3.3859,-3.5185,-3.5276,-3.5392,-3.5504,-3.5504,0.0,0.0,0.0,0.0,0.0,-3.5428,-3.654,-3.6981,-3.5618,-3.7094,-3.8412,-3.8392,-3.7913,-3.7782,-3.8348,-3.7847,-3.7437,-3.7447,-3.7442,-3.7501,-3.7602,-3.7632,-3.7933,-3.869,-3.8036,-3.7346,-3.6638,-3.6481,-3.6373,-3.6313,-3.5744,-3.5402,-3.5293,-3.5402,-3.5447,-3.5447,-3.5538,-3.56,-3.56,-3.56,-3.56,-3.56,-3.56,-3.56,-3.5515,-3.4793,-3.4878,-3.5245,-3.3778,-3.3694,-3.4218,-3.3491,-3.2747,-3.2141,-3.2141,-3.1718,-3.1173,-3.1072,-3.1106,-3.1173,-3.1055,-3.1106,-3.119,-3.119,-3.0734,-3.0429,-3.1055,-3.0991,-3.0957,-3.1559,-3.2021,-3.2299,-3.2299,-3.2211,-3.1666,-3.0259,-3.0029,-2.9639,-2.8486,-2.8403,-2.8322,-2.7859,-2.81,-2.8023,-2.7296,-2.664,-2.636,-2.6514,-2.4815,-2.3651,-2.34,-2.3186,-2.3063,-2.3063,-2.3063,-2.3063,-2.3063,-2.3063,-2.3063,-2.3063,-2.3063,-2.3063,-2.3063,-2.3063,-2.3063,-3.2393,-3.3159,-3.3796,-3.4137,-3.4872,-3.5504,-3.5504,0.0,0.0,0.0,0.0,0.0,0.0,-3.5967,-3.6378,-3.517,-3.6438,-3.7766,-3.8322,-3.8302,-3.8068,-3.7635,-3.7037,-3.6456,-3.5921,-3.5846,-3.6101,-3.6737,-3.6783,-3.7144,-3.7921,-3.7299,-3.6637,-3.5873,-3.5305,-3.4713,-3.409,-3.4521,-3.4455,-3.3912,-3.4479,-3.4759,-3.4759,-3.5339,-3.56,-3.56,-3.56,-3.56,-3.56,-3.56,-3.56,-3.5515,-3.4793,-3.4556,-3.4489,-3.3021,-3.2933,-3.3457,-3.2713,-3.2005,-3.136,-3.136,-3.1275,-3.1072,-3.0463,-3.07,-3.1072,-3.0446,-3.0717,-3.119,-3.119,-3.1106,-3.1055,-3.1173,-3.1167,-3.1138,-3.1257,-3.1349,-3.1389,-3.1389,-3.0895,-3.0179,-2.9328,-2.9175,-2.8884,-2.8031,-2.8472,-2.8623,-2.7891,-2.7842,-2.7606,-2.6859,-2.669,-2.64,-2.5818,-2.5452,-2.4979,-2.4351,-2.3124,-2.2443,-2.2443,-2.2443,-2.2443,-2.2443,-2.2443,-2.2443,-2.2443,-2.2443,-2.2443,-2.2443,-2.2443,-2.2443,-3.0983,-3.1638,-3.2262,-3.2461,-3.3691,-3.4922,-3.5176,0.0,0.0,0.0,0.0,0.0,0.0,-3.5853,-3.6704,-3.6886,-3.7187,-3.7524,-3.7823,-3.7569,-3.712,-3.6462,-3.6133,-3.5833,-3.5534,-3.5504,-3.5636,-3.5975,-3.5688,-3.5815,-3.6564,-3.5599,-3.4885,-3.4648,-3.4246,-3.3525,-3.2489,-3.3182,-3.3547,-3.3608,-3.3912,-3.4062,-3.4062,-3.4374,-3.4728,-3.5052,-3.5052,-3.527,-3.56,-3.56,-3.5385,-3.5008,-3.4251,-3.3978,-3.3846,-3.2399,-3.1616,-3.1188,-3.0859,-3.0509,-3.023,-3.023,-3.023,-3.0098,-2.9375,-2.9671,-3.0082,-2.9379,-3.0152,-3.1106,-3.0717,-3.0311,-3.0127,-3.0514,-3.0294,-3.0245,-3.1021,-3.119,-3.119,-3.119,-3.092,-3.0463,-2.9719,-2.9583,-2.9465,-2.9092,-2.9364,-2.9313,-2.8552,-2.845,-2.7994,-2.6843,-2.6691,-2.6455,-2.5864,-2.543,-2.4811,-2.3968,-2.3274,-2.2733,-2.2313,-2.2296,-2.2296,-2.2296,-2.2296,-2.2296,-2.2296,-2.2063,-2.2046,-2.2296,-2.2032,-2.1913,-2.9628,-3.0305,-3.104,-3.0897,-3.2417,-3.4071,-3.4689,0.0,0.0,0.0,0.0,0.0,-3.4996,-3.5528,-3.6541,-3.7787,-3.7657,-3.7464,-3.7614,-3.6971,-3.6297,-3.5804,-3.5609,-3.5504,-3.5504,-3.5504,-3.5504,-3.5504,-3.5011,-3.4965,-3.5569,-3.4273,-3.3532,-3.3642,-3.3247,-3.2551,-3.1511,-3.2064,-3.2598,-3.3103,-3.3287,-3.3365,-3.3365,-3.3547,-3.3887,-3.4358,-3.4358,-3.4664,-3.5138,-3.5138,-3.4823,-3.4309,-3.3744,-3.3356,-3.2967,-3.1694,-3.0462,-2.9406,-2.9406,-2.9406,-2.9406,-2.9406,-2.9278,-2.9076,-2.8548,-2.8644,-2.8836,-2.8474,-2.9325,-3.0249,-2.9992,-2.939,-2.9042,-2.9775,-2.9374,-2.9209,-3.0493,-3.0777,-3.073,-3.0563,-3.055,-3.0266,-2.9362,-2.9362,-2.9412,-2.9245,-2.9493,-2.9376,-2.8475,-2.8509,-2.8022,-2.6517,-2.635,-2.621,-2.5852,-2.5255,-2.4509,-2.3612,-2.3243,-2.2824,-2.2243,-2.2074,-2.2005,-2.2005,-2.2005,-2.2005,-2.1988,-2.1628,-2.1628,-2.1991,-2.163,-2.146,-2.9139,-2.9793,-3.0538,-3.0034,-3.1334,0.0,-3.4089,-3.4743,0.0,-3.6445,0.0,0.0,-3.478,-3.4529,-3.491,-3.6014,-3.686,-3.7629,-3.8227,-3.7255,-3.6477,-3.6417,-3.5878,-3.5504,-3.5504,-3.5504,-3.5504,-3.5504,-3.5459,-3.5462,-3.5512,-3.4219,-3.35,-3.3501,-3.2287,-3.1613,-3.1511,-3.1553,-3.1611,-3.1653,-3.2355,-3.2668,-3.2695,-3.3313,-3.3633,-3.3659,-3.3659,-3.371,-3.3735,-3.3735,-3.371,-3.3659,-3.3611,-3.2784,-3.1558,-3.0775,-3.0023,-2.9406,-2.9406,-2.9406,-2.9406,-2.9406,-2.8986,-2.8447,-2.8329,-2.7961,-2.7655,-2.8158,-2.7992,-2.7941,-2.9122,-2.8951,-2.8608,-2.9299,-2.893,-2.8646,-2.938,-2.954,-2.9347,-2.871,-2.8608,-2.8178,-2.682,-2.7151,-2.736,-2.6675,-2.769,-2.8028,-2.6675,-2.7037,-2.6872,-2.5461,-2.5316,-2.5281,-2.5259,-2.5211,-2.4839,-2.4099,-2.2819,-2.2081,-2.2017,-2.1424,-2.1086,-2.1086,-2.1086,-2.1086,-2.1086,-2.1055,-2.1055,-2.1086,-2.1055,-2.1039,-2.8641,-2.9223,-2.9886,-2.8986,0.0,0.0,0.0,-3.4206,-3.489,-3.5208,-3.5986,0.0,-3.4292,-3.3733,-3.3754,-3.4517,-3.5707,-3.6488,-3.6292,-3.6408,-3.6342,-3.5923,-3.5654,-3.5504,-3.5504,-3.5504,-3.5504,-3.5504,-3.51,-3.4681,-3.4277,-3.338,-3.2706,-3.2258,-3.1765,-3.1511,-3.1511,-3.1511,-3.1511,-3.1511,-3.1796,-3.1938,-3.1923,-3.2173,-3.2544,-3.2986,-3.2986,-3.3209,-3.3582,-3.3582,-3.3365,-3.2933,-3.2461,-3.1482,-3.0279,-3.0022,-2.9223,-2.828,-2.828,-2.828,-2.828,-2.828,-2.7818,-2.7288,-2.7241,-2.708,-2.6872,-2.6657,-2.7065,-2.7605,-2.7979,-2.7908,-2.7672,-2.7512,-2.7924,-2.843,-2.8724,-2.9102,-2.9326,-2.907,-2.9028,-2.8852,-2.8324,-2.8452,-2.8394,-2.771,-2.8062,-2.7902,-2.6491,-2.6519,-2.631,-2.5298,-2.4894,-2.4697,-2.4697,-2.441,-2.4092,-2.3805,-2.3088,-2.2666,-2.2614,-2.198,-2.1614,-2.1614,-2.2027,-2.1836,-2.0991,-2.1124,-2.1125,-2.0991,-2.0699,-2.0566,-2.7564,-2.8028,-2.8581,0.0,0.0,0.0,-3.1514,-3.3141,-3.4286,-3.4666,-3.4947,-3.4778,-3.3688,-3.3067,-3.2868,-3.3251,-3.4389,-3.5082,-3.4619,-3.4958,-3.5088,-3.465,-3.4839,-3.492,-3.4591,-3.5148,-3.5359,-3.5052,-3.488,-3.4502,-3.3844,-3.3185,-3.2497,-3.1839,-3.1615,-3.1511,-3.1511,-3.1511,-3.1511,-3.1511,-3.1511,-3.1511,-3.1511,-3.1511,-3.1768,-3.2244,-3.2244,-3.2516,-3.2944,-3.2944,-3.268,-3.2188,-3.1697,-3.0731,-2.9606,-2.9606,-2.8753,-2.76,-2.76,-2.76,-2.76,-2.76,-2.7151,-2.6587,-2.6587,-2.6437,-2.6228,-2.5989,-2.6422,-2.7001,-2.7058,-2.692,-2.6653,-2.6204,-2.6622,-2.7202,-2.746,-2.8041,-2.8442,-2.8245,-2.8363,-2.8379,-2.7962,-2.8056,-2.7962,-2.73,-2.7561,-2.7413,-2.6235,-2.6245,-2.6041,-2.5096,-2.4488,-2.4158,-2.4158,-2.3815,-2.3595,-2.3595,-2.3214,-2.2942,-2.2902,-2.2267,-2.1909,-2.1909,-2.2358,-2.2142,-2.1222,-2.1371,-2.1247,-2.0893,-2.0584,-2.0303,-2.5775,-2.605,-2.6524,0.0,0.0,0.0,-2.9272,-3.1445,-3.3436,-3.5123,-3.4136,-3.2974,-3.2974,-3.2537,-3.2192,-3.2192,-3.2966,-3.3564,-3.3564,-3.3016,-3.2593,-3.2593,-3.3415,-3.3636,-3.2713,-3.4341,-3.5067,-3.4061,-3.4905,-3.519,-3.4502,-3.3844,-3.3185,-3.2497,-3.1854,-3.1511,-3.1511,-3.1511,-3.1511,-3.1511,-3.1511,-3.1511,-3.1511,-3.1511,-3.1511,-3.1511,-3.1511,-3.1511,-3.1511,-3.1511,-3.1511,-3.1511,-3.1511,-3.0731,-2.9606,-2.9606,-2.8753,-2.76,-2.76,-2.76,-2.76,-2.76,-2.7151,-2.6587,-2.6602,-2.6138,-2.5749,-2.6408,-2.6123,-2.5779,-2.6422,-2.6093,-2.5615,-2.5615,-2.5098,-2.4814,-2.548,-2.6138,-2.6408,-2.5749,-2.6153,-2.6183,-2.4859,-2.5173,-2.5382,-2.4724,-2.5749,-2.6363,-2.5689,-2.6183,-2.6078,-2.4739,-2.3992,-2.361,-2.3595,-2.3595,-2.3573,-2.3595,-2.3026,-2.2703,-2.2703,-2.2054,-2.171,-2.171,-2.169,-2.169,-2.1695,-2.1695,-2.1365,-2.0703,-2.0703,-2.0329,-2.5279,-2.5771,-2.6307,-2.5504,0.0,0.0,0.0,-2.9641,0.0,0.0,-3.2472,-3.1414,-3.1796,-3.1135,-3.0509,-3.0509,-3.1307,-3.1901,-3.1901,-3.2322,-3.2593,-3.2593,-3.2855,-3.2925,-3.2629,-3.3115,-3.3359,-3.3031,-3.295,-3.2859,-3.2826,-3.2234,-3.1866,-3.1809,-3.16,-3.1511,-3.1511,-3.1511,-3.1511,-3.1511,-3.1511,-3.1511,-3.1511,-3.1511,-3.1511,-3.1511,-3.1511,-3.1511,-3.1511,-3.1511,-3.1511,-3.1511,-3.1511,-3.0731,-2.9606,-2.9606,-2.8753,-2.76,-2.76,-2.76,-2.76,-2.76,-2.7151,-2.6701,-2.7165,-2.6851,-2.6333,-2.6542,-2.6806,-2.6851,-2.6093,-2.6093,-2.6183,-2.5719,-2.6168,-2.6632,-2.6363,-2.6836,-2.724,-2.7061,-2.7165,-2.718,-2.6791,-2.6881,-2.6791,-2.6108,-2.6348,-2.6363,-2.5689,-2.5779,-2.557,-2.4694,-2.4056,-2.3642,-2.3596,-2.2786,-2.2469,-2.2942,-2.2357,-2.2414,-2.3304,-2.2283,-2.1713,-2.1713,-2.1712,-2.1462,-2.1,-2.148,-2.1601,-2.1376,-2.092,-2.0389,-2.4296,-2.4638,-2.502,-2.4522,-2.5117,-2.5989,-2.6748,0.0,-2.9777,-3.1124,-3.0248,-2.9516,-3.027,-2.9711,-2.9275,-2.9714,-3.0279,-3.062,-3.062,-3.1119,-3.1476,-3.1476,-3.1829,-3.1793,-3.1179,-3.1823,-3.2046,-3.1412,-3.144,-3.1425,-3.1268,-3.0935,-3.0671,-3.0509,-3.0524,-3.0524,-3.0524,-3.0837,-3.1029,-3.1029,-3.1029,-3.1029,-3.1029,-3.1351,-3.1511,-3.1511,-3.1511,-3.1511,-3.1511,-3.1511,-3.1346,-3.1092,-3.1092,-3.0328,-2.919,-2.919,-2.8528,-2.76,-2.76,-2.76,-2.76,-2.76,-2.733,-2.7031,-2.7165,-2.7121,-2.6941,-2.6662,-2.6877,-2.6975,-2.6154,-2.6027,-2.6035,-2.5667,-2.6213,-2.6677,-2.6288,-2.6746,-2.721,-2.721,-2.742,-2.751,-2.7255,-2.742,-2.7375,-2.6692,-2.6574,-2.6415,-2.6007,-2.5452,-2.4897,-2.4273,-2.3645,-2.3145,-2.2867,-2.2156,-2.1875,-2.2276,-2.1922,-2.2025,-2.2809,-2.2112,-2.1702,-2.1702,-2.1695,-2.15,-2.1108,-2.1504,-2.1568,-2.1323,-2.0934,-2.0422,-2.2775,-2.2891,-2.3105,-2.3499,-2.367,-2.4058,-2.508,-2.6885,-2.8422,-2.86,-2.7925,-2.7591,-2.858,-2.8319,-2.8307,-2.9326,-2.9585,-2.9663,-2.9663,-2.9703,-2.9716,-2.9716,-3.0428,-3.0357,-2.8975,-3.0445,-3.0874,-2.9491,-3.0181,-3.0414,-2.9895,-2.9812,-2.9536,-2.9016,-2.9002,-2.9002,-2.9002,-2.9797,-3.0178,-3.0178,-3.0178,-3.0149,-3.0152,-3.0999,-3.1438,-3.1511,-3.1511,-3.1511,-3.1511,-3.1436,-3.1032,-3.0492,-3.0447,-2.9669,-2.8607,-2.8607,-2.8173,-2.76,-2.7509,-2.7484,-2.7484,-2.7408,-2.7408,-2.7303,-2.6684,-2.6907,-2.7274,-2.6654,-2.6451,-2.6404,-2.6404,-2.5906,-2.5421,-2.5551,-2.5589,-2.5589,-2.5589,-2.6098,-2.6579,-2.649,-2.7031,-2.728,-2.6619,-2.6996,-2.7199,-2.6579,-2.6447,-2.6404,-2.6404,-2.5278,-2.4294,-2.3741,-2.3059,-2.244,-2.1825,-2.1674,-2.1623,-2.1615,-2.1554,-2.153,-2.153,-2.1592,-2.1615,-2.1615,-2.1568,-2.1568,-2.1615,-2.1615,-2.1364,-2.0877,-2.0822,-2.0448,-2.026,-2.1229,-2.2162,-2.1905,-2.2827,-2.3922,-2.4509,-2.4741,-2.5416,-2.7224,-2.7442,-2.7381,-2.758,-2.7224,-2.6924,-2.718,-2.7907,-2.8466,-2.8466,-2.8815,-2.9076,-2.9076,-2.8898,-2.8656,-2.8298,-2.8662,-2.8779,-2.8424,-2.8206,-2.8326,-2.8791,-2.8412,-2.8433,-2.8971,-2.9002,-2.9002,-2.9002,-2.9192,-2.9286,-2.9286,-2.9286,-2.9066,-2.868,-2.9978,-3.0896,-3.1511,-3.1511,-3.1511,-3.1466,-3.0913,-3.0642,-3.0447,-2.9968,-2.9295,-2.8607,-2.8607,-2.8173,-2.7524,-2.693,-2.6747,-2.6642,-2.6054,-2.5864,-2.5863,-2.571,-2.5752,-2.5836,-2.571,-2.5657,-2.5646,-2.5646,-2.5508,-2.5411,-2.5446,-2.543,-2.543,-2.543,-2.6009,-2.6347,-2.5775,-2.6236,-2.6505,-2.5789,-2.578,-2.5808,-2.5682,-2.5644,-2.5646,-2.5646,-2.5356,-2.4929,-2.4308,-2.3622,-2.3003,-2.2465,-2.1494,-2.0926,-2.0981,-2.0509,-2.0207,-2.0207,-2.0708,-2.1004,-2.1004,-2.0484,-2.0459,-2.1004,-2.1004,-2.1167,-2.1494,-2.1021,-2.0487,-1.9497,-2.0141,-2.0798,-2.0754,-2.1369,-2.2089,-2.2298,-2.2044,-2.2105,-2.333,-2.4497,-2.5466,-2.5999,-2.5877,-2.5839,-2.6389,-2.68,-2.7242,-2.8008,-2.7908,-2.8063,-2.8813,-2.8448,-2.7996,-2.7733,-2.7708,-2.7607,-2.7344,-2.709,-2.6983,-2.7108,-2.7129,-2.7187,-2.7366,-2.7643,-2.7802,-2.7802,-2.8182,-2.8363,-2.8363,-2.8363,-2.8233,-2.7999,-2.8901,-2.9665,-3.0329,-3.0748,-3.0673,-3.03,-3.0368,-2.9827,-2.8886,-2.8569,-2.7876,-2.7054,-2.7054,-2.6837,-2.6481,-2.6122,-2.5987,-2.5906,-2.5508,-2.5398,-2.5398,-2.5398,-2.5398,-2.5398,-2.5398,-2.5147,-2.4879,-2.4879,-2.4582,-2.4295,-2.4295,-2.4852,-2.5398,-2.5398,-2.5701,-2.5864,-2.5481,-2.5701,-2.5837,-2.5481,-2.5398,-2.5398,-2.5398,-2.5091,-2.4879,-2.4879,-2.4525,-2.407,-2.3476,-2.3087,-2.2665,-2.2128,-2.1463,-2.0977,-2.0759,-2.0409,-2.0087,-1.9811,-2.0131,-2.0321,-2.0321,-2.051,-2.0523,-2.0321,-2.0604,-2.077,-2.0767,-2.0105,-1.9623,-1.8848,-1.9039,-1.9358,-1.9934,-2.0069,-1.9981,-1.9981,-1.9749,-1.9497,-1.9497,-2.1266,-2.3042,-2.3907,-2.4248,-2.4693,-2.5537,-2.5555,-2.5864,-2.7115,-2.6682,-2.6675,-2.7951,-2.7804,-2.738,-2.6955,-2.7059,-2.6939,-2.6386,-2.6436,-2.6197,-2.5498,-2.6034,-2.6122,-2.5611,-2.6097,-2.6348,-2.6348,-2.7111,-2.7379,-2.7183,-2.7183,-2.7288,-2.7491,-2.7597,-2.8054,-2.8899,-2.9513,-2.9365,-2.8765,-2.9357,-2.8615,-2.7071,-2.6931,-2.6282,-2.5398,-2.5398,-2.5398,-2.537,-2.5259,-2.5203,-2.5175,-2.5063,-2.5007,-2.5007,-2.5007,-2.5007,-2.5007,-2.5007,-2.4553,-2.4089,-2.4089,-2.359,-2.3108,-2.3108,-2.4063,-2.5007,-2.5007,-2.5119,-2.5175,-2.5035,-2.5007,-2.5007,-2.5007,-2.5007,-2.5007,-2.5007,-2.4481,-2.4089,-2.4089,-2.3514,-2.2932,-2.2498,-2.2447,-2.2234,-2.1681,-2.1506,-2.1241,-2.0867,-2.0486,-2.0155,-1.9877,-1.976,-1.9668,-1.9642,-2.0779,-2.0867,-1.9798,-2.027,-2.0192,-1.9579,-1.8847,-1.8501,-1.6285,-1.7077,-1.8311,-1.9755,-1.984,-1.9563,-1.9563,-1.953,-1.9497,-1.9497,-2.0576,-2.1459,-2.1286,-2.2112,-2.2715,-2.2557,-2.3256,-2.3889,-2.4103,-2.4382,-2.468,-2.4899,-2.5224,-2.5373,-2.5301,-2.6101,-2.6373,-2.5749,-2.621,-2.6047,-2.4938,-2.5423,-2.5674,-2.5598,-2.5674,-2.5711,-2.5711,-2.6337,-2.6177,-2.5196,-2.5196,-2.5689,-2.662,-2.5668,-2.638,-2.828,-2.7875,-2.7638,-2.7508,-2.7095,-2.6774,-2.6451,-2.5868,-2.5536,-2.5398,-2.5398,-2.5398,-2.5315,-2.4681,-2.4452,-2.4337,-2.3619,-2.3424,-2.3424,-2.3424,-2.3424,-2.3424,-2.3424,-2.3335,-2.3245,-2.3245,-2.3198,-2.3108,-2.3108,-2.3245,-2.3424,-2.3424,-2.3959,-2.425,-2.3531,-2.3424,-2.3424,-2.3424,-2.3424,-2.3424,-2.3424,-2.3335,-2.3245,-2.3245,-2.3168,-2.3083,-2.3007,-2.2995,-2.2782,-2.2246,-2.1489,-2.117,-2.1377,-1.9648,-1.9074,-2.0087,-1.9524,-1.9134,-1.9005,-2.0204,-2.0478,-1.9798,-1.9763,-1.9441,-1.8821,-1.8085,-1.7743,-1.5738,-1.6204,-1.6784,-1.7519,-1.754,-1.7436,-1.7436,-1.7436,-1.7436,-1.7436,-1.8442,-1.9447,-1.9956,-2.1005,-2.1683,-2.1282,-2.1982,-2.2808,-2.3423,-2.321,-2.334,-2.422,-2.4235,-2.4156,-2.4156,-2.5075,-2.5432,-2.4849,-2.5555,-2.5498,-2.4418,-2.487,-2.5021,-2.4707,-2.5008,-2.5159,-2.5159,-2.5699,-2.5737,-2.5259,-2.5259,-2.5511,-2.5996,-2.5473,-2.5786,-2.6749,-2.6666,-2.635,-2.5919,-2.6143,-2.5758,-2.5047,-2.4737,-2.4423,-2.4121,-2.4121,-2.4121,-2.4063,-2.3738,-2.3632,-2.3573,-2.3215,-2.3108,-2.3108,-2.3108,-2.3108,-2.3108,-2.3108,-2.3108,-2.3108,-2.3108,-2.3108,-2.3108,-2.3108,-2.3108,-2.3108,-2.3108,-2.3365,-2.3501,-2.3168,-2.3108,-2.3108,-2.3108,-2.3371,-2.3471,-2.3158,-2.3384,-2.3318,-2.2512,-2.2445,-2.2249,-2.176,-2.171,-2.1615,-2.1379,-2.1016,-2.0703,-2.0564,-1.9654,-1.9227,-1.9456,-1.916,-1.8951,-1.891,-2.0037,-2.007,-1.8963,-1.921,-1.8907,-1.807,-1.733,-1.6978,-1.5772,-1.5784,-1.5784,-1.5784,-1.5784,-1.5784,-1.5784,-1.5784,-1.5784,-1.5784,-1.6574,-1.7498,-1.8403,-1.9723,-2.0616,-2.0539,-2.1025,-2.1756,-2.2756,-2.2278,-2.2185,-2.3248,-2.3218,-2.311,-2.311,-2.4036,-2.4496,-2.4233,-2.4847,-2.4892,-2.4054,-2.4393,-2.4418,-2.4017,-2.4406,-2.4587,-2.4587,-2.4996,-2.5322,-2.5598,-2.546,-2.5548,-2.5799,-2.5385,-2.5272,-2.5393,-2.5528,-2.5202,-2.4626,-2.5128,-2.4725,-2.3778,-2.3778,-2.3484,-2.3108,-2.3108,-2.3108,-2.3108,-2.3108,-2.3108,-2.3108,-2.3108,-2.3108,-2.3108,-2.3108,-2.3108,-2.3108,-2.3108,-2.3108,-2.3145,-2.3283,-2.3321,-2.3358,-2.3496,-2.3268,-2.3027,-2.3103,-2.3108,-2.3108,-2.3108,-2.3108,-2.3108,-2.3108,-2.3306,-2.3306,-2.2855,-2.2985,-2.2752,-2.1706,-2.1553,-2.1333,-2.0655,-2.059,-2.059,-2.059,-2.0398,-2.0178,-2.0001,-1.9493,-1.913,-1.9004,-1.8689,-1.8556,-1.8674,-1.9403,-1.9306,-1.8286,-1.864,-1.8317,-1.7302,-1.6567,-1.6208,-1.5778,-1.5784,-1.5784,-1.5784,-1.5784,-1.5784,-1.5784,-1.5784,-1.5784,-1.5784,-1.5825,-1.592,-1.5967,-1.7583,-1.9161,-1.9913,-2.0087,-2.0379,-2.1188,-2.1261,-2.1124,-2.0839,-2.1538,-2.2065,-2.2065,-2.2999,-2.3758,-2.4164,-2.4266,-2.4183,-2.3992,-2.4029,-2.4029,-2.4004,-2.4029,-2.4042,-2.4042,-2.4067,-2.4582,-2.5586,-2.5096,-2.541,-2.6399,-2.4795,-2.4368,-2.48,-2.4299,-2.4073,-2.4004,-2.347,-2.3201,-2.3145,-2.3145,-2.3133,-2.3108,-2.3108,-2.3108,-2.3108,-2.3108,-2.3108,-2.3108,-2.3108,-2.3108,-2.3108,-2.3108,-2.3108,-2.3108,-2.3108,-2.3108,-2.3233,-2.3803,-2.3954,-2.4092,-2.4575,-2.3688,-2.2802,-2.3056,-2.3108,-2.3108,-2.3108,-2.3108,-2.3108,-2.3108,-2.25,-2.2006,-2.1982,-2.1293,-2.0752,-2.0687,-2.0655,-2.0655,-2.059,-2.059,-2.059,-2.059,-1.9846,-1.9705,-2.0525,-1.8652,-1.8056,-1.9215,-1.8132,-1.7662,-1.8031,-1.7721,-1.78,-1.8286,-1.8145,-1.7541,-1.6539,-1.5806,-1.5468,-1.5731,-1.5691,-1.5591,-1.5785,-1.5691,-1.5605,-1.5738,-1.5784,-1.5784,-1.5784,-1.5784,-1.5784,-1.5784,-1.7076,-1.8107,-1.8097,-1.8702,-1.9497,-2.031,-2.043,-2.0579,-2.0925,-2.1551,-2.1719,-2.1177,-2.2234,-2.2794,-2.2305,-2.2857,-2.2914,-2.2232,-2.2206,-2.2098,-2.1846,-2.1835,-2.2254,-2.3154,-2.3337,-2.3816,-2.4569,-2.4381,-2.4682,-2.5385,-2.4795,-2.482,-2.5272,-2.4381,-2.3791,-2.3396,-2.3195,-2.3108,-2.3108,-2.3108,-2.3108,-2.3108,-2.3108,-2.3108,-2.3108,-2.3108,-2.3108,-2.3108,-2.3108,-2.2924,-2.2665,-2.2419,-2.2123,-2.1824,-2.1572,-2.1681,-2.194,-2.2159,-2.243,-2.2688,-2.2874,-2.2534,-2.2216,-2.2298,-2.2094,-2.1894,-2.1894,-2.2123,-2.2156,-2.1573,-2.2025,-2.2099,-2.119,-2.1086,-2.0785,-1.9889,-1.9973,-1.9848,-1.9008,-1.9168,-1.9219,-1.8942,-1.8654,-1.8596,-1.8911,-1.8221,-1.7986,-1.8462,-1.8286,-1.8135,-1.8008,-1.8091,-1.7883,-1.7267,-1.6951,-1.6427,-1.5777,-1.5526,-1.541,-1.6437,-1.6287,-1.609,-1.5873,-1.5685,-1.5591,-1.5738,-1.5784,-1.5784,-1.5784,-1.5439,-1.5289,-1.573,-1.6136,-1.6617,-1.7149,-1.7924,-1.8698,-1.9506,-1.9968,-2.0385,-2.0762,-2.1443,-2.166,-2.1104,-2.1748,-2.2064,-2.1747,-2.2026,-2.196,-2.1486,-2.1297,-2.1018,-2.0602,-2.059,-2.1037,-2.2005,-2.2348,-2.2727,-2.3123,-2.3123,-2.3414,-2.3911,-2.3547,-2.3701,-2.4138,-2.3232,-2.3083,-2.3384,-2.3183,-2.3108,-2.3108,-2.3108,-2.3108,-2.3078,-2.2793,-2.2884,-2.3005,-2.2463,-2.2555,-2.2831,-2.2402,-2.2179,-2.2006,-2.1745,-2.1441,-2.1174,-2.1062,-2.1241,-2.1498,-2.1665,-2.2066,-2.233,-2.1848,-2.183,-2.1789,-2.1318,-2.1328,-2.1419,-2.1419,-2.1704,-2.1714,-2.1149,-2.1584,-2.1686,-2.0731,-2.0659,-2.0347,-1.9404,-1.9516,-1.9293,-1.8296,-1.8568,-1.8623,-1.8057,-1.8271,-1.8379,-1.8223,-1.8188,-1.8281,-1.8437,-1.8529,-1.8471,-1.8223,-1.8325,-1.7906,-1.6921,-1.6504,-1.6064,-1.5625,-1.5478,-1.541,0.0,0.0,0.0,-1.615,-1.5859,-1.5805,-1.5778,-1.573,-1.5724,-1.5683,-1.4704,-1.422,-1.5439,-1.4657,-1.4638,-1.7163,-1.7638,-1.7888,-1.8661,-1.9842,-2.0451,-2.0014,-2.1117,-2.1863,-2.1843,-2.1473,-2.163,-2.2585,-2.1751,-2.142,-2.1886,-2.1386,-2.0941,-2.0549,-2.0558,-2.0558,-2.0558,-2.1094,-2.1374,-2.1374,-2.1374,-2.1666,-2.2139,-2.1093,-2.0892,-2.1363,-2.0836,-2.1866,-2.3854,-2.3273,-2.3035,-2.3035,-2.3035,-2.3035,-2.2944,-2.2156,-2.2353,-2.2781,-2.1164,-2.1422,-2.223,-2.1005,-2.085,-2.1174,-2.1174,-2.1141,-2.123,-2.1707,-2.1817,-2.1973,-2.2497,-2.3011,-2.3062,-2.1702,-2.1675,-2.1573,-2.0208,-2.0948,-2.185,-2.1839,-2.1851,-2.184,-2.1851,-2.1156,-2.0603,-2.0567,-1.9837,-1.9287,-1.9287,-1.9297,-1.9141,-1.8666,-1.9043,-1.8965,-1.8115,-1.8809,-1.9102,-1.8646,-1.8617,-1.8812,-1.9268,-1.8851,-1.8592,-1.8562,-1.8173,-1.7731,-1.7327,-1.6921,-1.6514,-1.6105,-1.5615,-1.5391,-1.8783,0.0,0.0,0.0,0.0,0.0,-1.4747,-1.4259,-1.3844,-1.3123,-1.2721,-1.2576,-1.2915,-1.2673,-1.3006,-1.4686,-1.5704,-1.6727,-1.7827,-1.8317,-1.8675,-1.9056,-2.0491,-2.1204,-2.0572,-2.152,-2.1977,-2.166,-2.1342,-2.0841,-2.0103,-1.932,-1.8843,-1.8721,-1.9332,-1.9661,-1.9661,-2.0433,-2.0824,-2.0824,-2.0824,-2.1083,-2.1609,-2.0903,-2.0892,-2.1363,-2.0836,-2.0958,-2.153,-2.1348,-2.129,-2.129,-2.129,-2.129,-2.1259,-2.1037,-2.1101,-2.1227,-2.0751,-2.0841,-2.106,-2.07,-2.0457,-2.0277,-2.0277,-2.0073,-1.9854,-1.9976,-2.024,-2.0548,-2.1042,-2.1293,-2.1316,-2.0889,-2.0921,-2.0865,-2.0487,-2.0693,-2.0842,-2.0518,-2.0715,-2.0779,-2.0124,-2.0329,-2.04,-1.9739,-1.9459,-1.9287,-1.9287,-1.9551,-1.958,-1.915,-1.9492,-1.9521,-1.8984,-1.915,-1.9238,-1.9111,-1.9111,-1.916,-1.9277,-1.8704,-1.8147,-1.7593,-1.7006,-1.6397,-1.5826,-1.6421,-1.6638,-1.6512,-1.5701,-1.4966,0.0,0.0,0.0,-1.9509,0.0,0.0,-1.5826,-1.4514,-1.3453,-1.2882,-1.1896,-1.1268,-1.1804,-1.1458,-1.1536,-1.2943,-1.3794,-1.4925,-1.6676,-1.7365,-1.7841,-1.8267,-1.9627,-2.0535,-2.0522,-2.1259,-2.1702,-2.1512,-2.1298,-2.0703,-1.9609,-1.874,-1.8237,-1.8237,-1.8586,-1.8754,-1.8754,-1.9276,-1.9529,-1.9529,-1.9529,-1.9667,-1.9956,-1.9657,-1.9678,-1.9945,-1.9646,-1.9529,-1.9529,-1.9529,-1.9944,-2.059,-2.059,-2.059,-2.0558,-2.0204,-2.0301,-2.0494,-1.9759,-1.9973,-2.0476,-1.9756,-1.9581,-1.9656,-1.9656,-1.9503,-1.9365,-1.9754,-2.0,-2.0244,-2.0537,-2.0605,-2.0605,-2.0605,-2.0605,-2.0605,-2.0605,-2.0605,-2.0527,-2.0234,-2.0422,-2.0427,-1.9927,-2.0252,-2.0427,-1.9927,-1.9862,-1.9862,-1.9862,-2.0029,-2.0019,-1.96,-1.9932,-1.9941,-1.9336,-1.9609,-1.9746,-1.9561,-1.9133,-1.8976,-1.9156,-1.8163,-1.744,-1.6998,-1.6619,-1.6058,-1.5386,-1.5655,-1.5696,-1.5509,-1.4974,-1.441,0.0,0.0,0.0,-2.2091,-2.0572,0.0,-1.7888,-1.5712,-1.3892,-1.3635,-1.1623,-1.028,-1.1419,-1.06,-1.022,-1.1701,-1.1954,-1.2803,-1.5124,-1.6516,-1.7366,-1.7366,-1.8527,-1.9774,-2.0817,-2.0828,-2.1022,-2.1723,-2.1374,-2.082,-2.0029,-1.9095,-1.8598,-1.8598,-1.8223,-1.8008,-1.8008,-1.8008,-1.8008,-1.8008,-1.8008,-1.8008,-1.8008,-1.8008,-1.8008,-1.8008,-1.8008,-1.8008,-1.8008,-1.8008,-1.8911,-2.0301,-2.0301,-2.0301,-2.0204,-1.9483,-1.9703,-2.0161,-1.865,-1.9148,-2.0194,-1.8666,-1.8662,-1.9297,-1.9346,-1.9355,-1.9521,-2.038,-2.0605,-2.0605,-2.0605,-2.0605,-2.0605,-2.0605,-2.0605,-2.0605,-2.0605,-2.0605,-2.0605,-2.0605,-2.0605,-2.0605,-2.0605,-2.0605,-2.0605,-2.0605,-2.0605,-2.0605,-2.0605,-2.0605,-2.0372,-1.9868,-2.0178,-2.0053,-1.915,-1.9812,-2.0082,-1.9659,-1.8742,-1.8392,-1.878,-1.7369,-1.6578,-1.6537,-1.6386,-1.5954,-1.5286,-1.4795,-1.4349,-1.3872,-1.3872,-1.3806,-2.731,-2.6628,-2.5829,-2.4605,-2.2848,0.0,-1.771,-1.5555,-1.3665,-1.1999,-1.0473,-0.9545,-0.9888,-0.9007,-0.8725,-1.0167,-1.0517,-1.1157,-1.281,-1.4294,-1.5195,-1.5145,-1.705,-1.8493,-1.8674,-2.0235,-2.111,-2.0946,-2.0783,-2.0654,-2.0488,-1.9287,-1.8598,-1.8598,-1.8223,-1.8008,-1.8008,-1.8008,-1.8008,-1.8008,-1.8008,-1.8008,-1.8008,-1.8008,-1.8008,-1.8008,-1.8008,-1.8008,-1.8008,-1.8008,-1.8202,-1.8496,-1.8496,-1.8496,-1.8536,-1.869,-1.8844,-1.8998,-1.9013,-1.9285,-1.9502,-1.9164,-1.915,-1.9346,-1.9687,-1.9795,-1.9902,-2.0458,-2.0605,-2.0605,-2.0605,-2.0605,-2.0605,-2.0605,-2.0605,-2.0605,-2.0605,-2.0605,-2.0605,-2.0605,-2.0605,-2.0605,-2.0605,-2.0605,-2.0605,-2.0605,-2.0605,-2.0605,-2.0605,-2.0605,-2.0246,-1.9291,-1.9277,-1.8854,-1.7775,-1.7854,-1.7914,-1.7797,-1.7588,-1.7542,-1.7617,-1.6489,-1.5797,-1.5578,-1.4457,-1.3719,-1.3341,-1.4516,-1.46,-1.3729,-1.3729,-1.3336,-2.9746,-2.9327,-2.8799,-2.7774,-2.6154,0.0,0.0,-1.8956,-1.6675,-1.5171,-1.3168,-1.1612,-1.1189,-0.9733,-0.8918,-0.9768,-0.9554,-0.9528,-1.0315,-1.2191,-1.3733,-1.4445,-1.5582,-1.6827,-1.7993,-1.9082,-1.9985,-2.0674,-2.0822,-2.0898,-2.0898,-1.9863,-1.9143,-1.8965,-1.8545,-1.8188,-1.8008,-1.8008,-1.8008,-1.8008,-1.8008,-1.8008,-1.8008,-1.8008,-1.8008,-1.8008,-1.8008,-1.8008,-1.8008,-1.8008,-1.8008,-1.8008,-1.8008,-1.8008,-1.8037,-1.8217,-1.8422,-1.8627,-1.8887,-1.9238,-1.957,-1.9355,-1.9434,-1.9639,-1.9853,-2.0068,-2.0283,-2.0546,-2.0605,-2.0605,-2.0605,-2.0605,-2.0605,-2.0605,-2.0605,-2.0605,-2.0605,-2.0605,-2.044,-1.9923,-1.9805,-1.9962,-2.0527,-2.0605,-2.0605,-2.0605,-2.0118,-1.9805,-1.9805,-1.9313,-1.8749,-1.823,-1.8149,-1.7908,-1.7342,-1.7302,-1.7302,-1.7302,-1.6805,-1.6519,-1.6519,-1.5462,-1.4823,-1.4709,-1.3851,-1.3347,-1.3193,-1.3742,-1.3645,-1.2989,-1.2989,-1.2732,-3.1584,-3.1384,-3.111,-3.054,-2.9092,-2.7462,0.0,0.0,0.0,-1.9734,-1.722,-1.4877,-1.3926,-1.1774,-1.0222,-1.0325,-0.941,-0.8702,-0.874,-1.0397,-1.2191,-1.362,-1.3999,-1.5039,-1.7167,-1.7776,-1.8815,-2.065,-2.0917,-2.1065,-2.1317,-2.0439,-1.9756,-1.9424,-1.887,-1.8481,-1.8262,-1.8086,-1.8047,-1.8091,-1.8047,-1.8008,-1.8008,-1.8008,-1.8008,-1.8008,-1.8008,-1.8008,-1.8008,-1.8008,-1.8008,-1.8008,-1.8008,-1.8008,-1.8018,-1.8105,-1.8364,-1.8734,-1.8812,-1.9358,-1.998,-1.9648,-1.9766,-2.0039,-2.0039,-2.0283,-2.0605,-2.0605,-2.0605,-2.0557,-2.0362,-2.0284,-2.0245,-2.004,-1.9962,-1.9962,-1.9962,-1.9962,-1.9717,-1.8838,-1.8669,-1.8957,-1.9835,-1.9962,-1.9962,-1.9962,-1.9234,-1.8669,-1.8669,-1.7868,-1.7212,-1.7009,-1.7009,-1.6895,-1.669,-1.669,-1.6714,-1.6745,-1.5906,-1.5401,-1.5467,-1.4601,-1.4088,-1.4088,-1.3848,-1.366,-1.36,-1.31,-1.2717,-1.2385,-1.2325,-1.2305,-3.1237,-3.06,-3.0232,-3.1551,-3.0017,-2.823,-2.828,0.0,-2.5122,-2.3165,0.0,-1.8478,-1.7631,0.0,0.0,-1.2381,-1.1013,-0.9916,-0.9677,-0.9225,-0.9462,-1.0949,-1.2025,-1.3203,-1.4605,-1.6559,-1.8703,-2.1051,-2.0542,-2.062,-2.1765,-2.0605,-1.9893,-1.9844,-1.9026,-1.8763,-1.9141,-1.8389,-1.8159,-1.8529,-1.8184,-1.8008,-1.8008,-1.8008,-1.8008,-1.8008,-1.8008,-1.8008,-1.8008,-1.8008,-1.8008,-1.8008,-1.8008,-1.8008,-1.8057,-1.8393,-1.8802,-1.9268,-1.9639,-2.0088,-2.0517,-2.0478,-2.0488,-2.0537,-2.0537,-2.0566,-2.0605,-2.0605,-2.0605,-2.0362,-1.9441,-1.9195,-1.8917,-1.7908,-1.7658,-1.7658,-1.7658,-1.7658,-1.7626,-1.7504,-1.7496,-1.7536,-1.7658,-1.7658,-1.7658,-1.7658,-1.7577,-1.7496,-1.7496,-1.7374,-1.6927,-1.5985,-1.5861,-1.5504,-1.4538,-1.4454,-1.4564,-1.4788,-1.4477,-1.4408,-1.4622,-1.4307,-1.4088,-1.4088,-1.4055,-1.3908,-1.36,-1.3313,-1.2999,-1.273,-1.2425,-1.2305,-3.1838,-3.1652,-3.1582,-3.2658,-3.1976,-3.1098,-3.1227,-3.0349,-2.898,-2.6949,0.0,0.0,0.0,0.0,0.0,0.0,-1.3508,-1.1712,-1.0043,-0.9569,-0.9701,-1.0565,-1.114,-1.2157,-1.4118,-1.5639,-1.7299,-1.9085,-1.9947,-2.0543,-2.0787,-2.0694,-2.0401,-1.9932,-1.957,-1.9228,-1.8916,-1.852,-1.8305,-1.8237,-1.8096,-1.8008,-1.8008,-1.8008,-1.8008,-1.8008,-1.8008,-1.8008,-1.8008,-1.8008,-1.8008,-1.8008,-1.8008,-1.8008,-1.8057,-1.8451,-1.8916,-1.9346,-1.9766,-2.0195,-2.0605,-2.0605,-2.0429,-2.0234,-2.0527,-2.0605,-2.0479,-1.9844,-1.9678,-1.9402,-1.831,-1.802,-1.7908,-1.7423,-1.7458,-1.7573,-1.7573,-1.7573,-1.7465,-1.6993,-1.6741,-1.6461,-1.6042,-1.6711,-1.7302,-1.7302,-1.6764,-1.6355,-1.6355,-1.5835,-1.5269,-1.4817,-1.4776,-1.4573,-1.413,-1.4088,-1.4135,-1.4262,-1.4155,-1.4142,-1.4262,-1.4155,-1.4088,-1.4088,-1.4088,-1.4021,-1.3901,-1.2927,-1.2395,-1.2265,-1.2497,-1.2659,-3.1768,-3.1916,-3.2168,-3.3021,-3.3094,-3.2998,-3.3173,-3.2877,-3.2059,-3.0383,-2.8547,0.0,0.0,0.0,-1.9825,-1.8469,0.0,-1.4362,-1.1696,-1.0817,-1.0353,-0.9935,-1.0259,-1.1346,-1.3429,-1.4581,-1.5893,-1.7591,-1.8934,-1.9791,-2.0012,-2.0438,-2.0513,-2.0117,-1.998,-1.9668,-1.917,-1.8773,-1.851,-1.8359,-1.8115,-1.8008,-1.8008,-1.8008,-1.8008,-1.8008,-1.8008,-1.8008,-1.8008,-1.8008,-1.8008,-1.8018,-1.8135,-1.7967,-1.7798,-1.8385,-1.8984,-1.9502,-1.9805,-2.0195,-2.0605,-2.0605,-2.0352,-2.0156,-2.0507,-2.0401,-2.0001,-1.9244,-1.8798,-1.827,-1.7131,-1.6846,-1.6805,-1.6486,-1.6669,-1.6877,-1.6877,-1.6955,-1.688,-1.625,-1.5973,-1.5639,-1.5102,-1.5922,-1.6685,-1.6685,-1.6022,-1.5516,-1.5516,-1.4746,-1.4208,-1.4208,-1.4135,-1.4088,-1.4088,-1.4088,-1.4122,-1.4202,-1.4282,-1.4289,-1.4208,-1.4282,-1.4289,-1.4208,-1.4208,-1.4074,-1.372,-1.2493,-1.1774,-1.1533,-1.1808,-1.2068,-3.0394,-3.0484,-3.0881,-3.2183,-3.2527,-3.2691,-3.3349,-3.3961,-3.414,-3.3167,-3.0966,-2.9118,-2.8809,-2.6062,-2.3371,-2.1983,-2.0208,0.0,0.0,-1.3189,-1.0782,-0.8177,-0.9176,-1.0551,-1.1863,-1.3156,-1.5019,-1.7498,-1.7363,-1.794,-1.9885,-1.9668,-1.9808,-2.0557,-2.0137,-2.0098,-2.0537,-1.9258,-1.8812,-1.9238,-1.8408,-1.8008,-1.8008,-1.8008,-1.8008,-1.8008,-1.8008,-1.8008,-1.8008,-1.8008,-1.8008,-1.8047,-1.8422,-1.7967,-1.7162,-1.8199,-1.9134,-1.9893,-1.9912,-2.0195,-2.0605,-2.0605,-2.0595,-2.0586,-2.0595,-1.9883,-1.9036,-1.9006,-1.823,-1.709,-1.6026,-1.5737,-1.5504,-1.4454,-1.4394,-1.4603,-1.4603,-1.4875,-1.5084,-1.5053,-1.504,-1.504,-1.5008,-1.5033,-1.5064,-1.5064,-1.5026,-1.5026,-1.5026,-1.4727,-1.4502,-1.4502,-1.4255,-1.4088,-1.4088,-1.4088,-1.4208,-1.4489,-1.4776,-1.4847,-1.4516,-1.4783,-1.4803,-1.4466,-1.4502,-1.3917,-1.2835,-1.2193,-1.1483,-1.0633,-1.0063,-0.9822,-3.0997,-3.1114,-3.1376,-3.2273,-3.2512,-3.2691,-3.335,-3.3664,-3.3684,-3.3212,-3.2425,-3.153,-3.0608,-2.8883,-2.6747,-2.4137,-2.2566,-2.0218,0.0,-1.2559,-0.9856,-0.8146,-0.9178,-1.0485,-1.1799,-1.3102,-1.4603,-1.6292,-1.7069,-1.7847,-1.8741,-1.9439,-2.0044,-2.0586,-2.0458,-2.0273,-2.0137,-1.9697,-1.9424,-1.9277,-1.8701,-1.8393,-1.8383,-1.8135,-1.8008,-1.8008,-1.8008,-1.8008,-1.8037,-1.8276,-1.8393,-1.8362,-1.8123,-1.7962,-1.7881,-1.8265,-1.8156,-1.783,-1.8092,-1.8101,-1.807,-1.8342,-1.8246,-1.8079,-1.8342,-1.8149,-1.7738,-1.7009,-1.6552,-1.5985,-1.4936,-1.4657,-1.4579,-1.4408,-1.4596,-1.481,-1.481,-1.5044,-1.5251,-1.5251,-1.5251,-1.5311,-1.5504,-1.5538,-1.5404,-1.5068,-1.5008,-1.5008,-1.5008,-1.4703,-1.4522,-1.4522,-1.4262,-1.4088,-1.4088,-1.4088,-1.4208,-1.4502,-1.4616,-1.471,-1.481,-1.4955,-1.4545,-1.353,-1.3441,-1.2765,-1.1478,-1.0429,-0.977,-0.9444,-0.8453,-0.882,-3.0629,-3.0972,-3.1241,-3.1689,-3.2168,-3.2617,-3.3051,-3.332,-3.345,-3.3282,-3.3187,-3.2695,-3.1311,-3.0542,-2.9107,-2.6069,-2.5142,-2.2955,0.0,-1.3999,-1.1279,-0.9587,-0.9752,-1.0485,-1.1799,-1.3102,-1.4411,-1.5683,-1.6574,-1.7209,-1.7632,-1.8751,-1.9552,-2.0029,-2.0401,-2.0468,-2.0146,-1.999,-1.9707,-1.9277,-1.8812,-1.8334,-1.7891,-1.7624,-1.7329,-1.701,-1.701,-1.701,-1.7028,-1.7287,-1.7389,-1.7374,-1.7218,-1.708,-1.7034,-1.7557,-1.7375,-1.6964,-1.7211,-1.7137,-1.6972,-1.7219,-1.7129,-1.698,-1.7219,-1.7009,-1.6601,-1.5902,-1.5421,-1.4999,-1.4421,-1.4242,-1.4315,-1.4609,-1.4903,-1.5117,-1.5117,-1.5344,-1.5551,-1.5551,-1.5551,-1.5611,-1.5751,-1.5784,-1.5705,-1.5331,-1.5271,-1.5271,-1.5271,-1.4923,-1.4676,-1.4676,-1.4322,-1.4088,-1.4088,-1.4088,-1.4208,-1.4502,-1.4623,-1.4763,-1.5001,-1.4695,-1.4091,-1.3146,-1.2581,-1.1639,-1.0338,-0.9424,-0.8733,-0.8237,-0.7445,-0.7921]},{"header":{"parameterUnit":"m.s-1","parameterCategory":1,"la1":30.6,"la2":29.2853,"lo1":-89.7004,"lo2":-87.6739,"dy":0.0162,"dx":0.0183,"nx":112,"ny":82,"refTime":"2024-04-12T18:00:00:Z","depth":0,"parameterNumber":3,"parameterNumberName":"V-component_of_WINDS"},"data":[0.0,0.0,0.0,0.0,0.0,0.0,0.0,0.0,0.0,0.0,0.0,0.0,0.0,0.0,0.0,0.0,0.0,0.0,0.0,0.0,0.0,0.0,0.0,0.0,0.0,0.0,0.0,0.0,0.0,0.0,0.0,0.0,0.0,0.0,0.0,0.0,0.0,0.0,0.0,0.0,0.0,0.0,0.0,0.0,0.0,0.0,0.0,0.0,0.0,0.0,0.0,0.0,0.0,0.0,0.0,0.0,0.0,0.0,0.0,0.0,0.0,0.0,0.0,0.0,0.0,0.0,0.0,0.0,0.0,0.0,0.0,0.0,0.0,0.0,0.0,0.0,0.0,0.0,0.0,0.0,0.0,0.0,0.0,0.0,0.0,0.0,0.0,0.0,0.0,0.0,0.4344,-0.0687,-0.6661,-1.073,-1.1799,-1.545,-1.8165,-1.9245,0.0,0.0,0.0,0.0,0.0,0.0,0.0,0.0,0.0,0.0,0.0,0.0,0.0,0.0,0.0,0.0,0.0,0.0,0.0,0.0,0.0,0.0,0.0,0.0,0.0,0.0,0.0,0.0,0.0,0.0,0.0,0.0,0.0,0.0,0.0,0.0,0.0,0.0,0.0,0.0,0.0,0.0,0.0,0.0,0.0,0.0,0.0,0.0,0.0,0.0,0.0,0.0,0.0,0.0,0.0,0.0,0.0,0.0,0.0,0.0,0.0,0.0,0.0,0.0,0.0,0.0,0.0,0.0,0.0,0.0,0.0,0.0,0.0,0.0,0.0,0.0,0.0,0.0,0.0,0.0,0.0,0.0,0.0,0.0,0.0,0.0,0.0,0.0,0.0,0.0,0.0,0.0,0.0,0.0,0.0,0.0,0.0,0.0,0.0,0.0,0.0,0.0,0.0,0.0,0.2739,-0.2877,-0.8351,-1.1707,-1.1896,-1.604,-1.8524,-1.8422,0.0,0.0,0.0,0.0,0.0,0.0,0.0,0.0,0.0,0.0,0.0,0.0,0.0,0.0,0.0,0.0,0.0,0.0,0.0,0.0,0.0,0.0,0.0,0.0,0.0,0.0,0.0,0.0,0.0,0.0,0.0,0.0,0.0,0.0,0.0,0.0,0.0,0.0,0.0,0.0,0.0,0.0,0.0,0.0,0.0,0.0,0.0,0.0,0.0,0.0,0.0,0.0,0.0,0.0,0.0,0.0,0.0,0.0,0.0,0.0,0.0,0.0,0.0,0.0,0.0,0.0,0.0,0.0,0.0,0.0,0.0,0.0,0.0,0.0,0.0,0.0,0.0,0.0,0.0,0.0,0.0,0.0,0.0,0.0,0.0,0.0,0.0,0.0,0.0,0.0,0.0,0.0,0.0,0.0,0.0,0.0,0.0,0.0,0.0,0.0,0.0,0.0,0.0,0.3565,0.0273,-0.3592,-0.8728,-1.1896,-1.1896,-1.639,-1.8916,-1.8249,-2.1746,0.0,0.0,0.0,0.0,0.0,0.0,0.0,0.0,0.0,0.0,0.0,0.0,0.0,0.0,0.0,0.0,0.0,0.0,0.0,0.0,0.0,0.0,0.0,0.0,0.0,0.0,0.0,0.0,0.0,0.0,0.0,0.0,0.0,0.0,0.0,0.0,0.0,0.0,0.0,0.0,0.0,0.0,0.0,0.0,0.0,0.0,0.0,0.0,0.0,0.0,0.0,0.0,0.0,0.0,0.0,0.0,0.0,0.0,0.0,0.0,0.0,0.0,0.0,0.0,0.0,0.0,0.0,0.0,0.0,0.0,0.0,0.0,0.0,0.0,0.0,0.0,0.0,0.0,0.0,0.0,0.0,0.0,0.0,0.0,0.0,0.0,0.0,0.0,0.0,0.0,0.0,0.0,0.0,0.0,0.0,0.0,0.0,0.0,0.0,0.0,0.0,0.0,0.1348,-0.1855,-0.4101,-0.8862,-1.1961,-1.225,-1.654,-1.8837,-1.7954,-2.1256,0.0,0.0,0.0,0.0,0.0,0.0,0.0,0.0,0.0,0.0,0.0,0.0,0.0,0.0,0.0,0.0,0.0,0.0,0.0,0.0,0.0,0.0,0.0,0.0,0.0,0.0,0.0,0.0,0.0,0.0,0.0,0.0,0.0,0.0,0.0,0.0,0.0,0.0,0.0,0.0,0.0,0.0,0.0,0.0,0.0,0.0,0.0,0.0,0.0,0.0,0.0,0.0,0.0,0.0,0.0,0.0,0.0,0.0,0.0,0.0,0.0,0.0,0.0,0.0,0.0,0.0,0.0,0.0,0.0,0.0,0.0,0.0,0.0,0.0,0.0,0.0,0.0,0.0,0.0,0.0,0.0,0.0,0.0,0.0,0.0,0.0,0.0,0.0,0.0,0.0,0.0,0.0,0.0,0.0,0.0,0.0,0.0,0.0,0.0,0.0,0.0,0.0,0.0224,-0.2815,-0.5132,-0.9194,-1.2152,-1.3186,-1.6349,-1.7939,-1.7066,-2.0808,0.0,0.0,0.0,0.0,0.0,0.0,0.0,0.0,0.0,0.0,0.0,0.0,0.0,0.0,0.0,0.0,0.0,0.0,0.0,0.0,0.0,0.0,0.0,0.0,0.0,0.0,0.0,0.0,0.0,0.0,0.0,0.0,0.0,0.0,0.0,0.0,0.0,0.0,0.0,0.0,0.0,0.0,0.0,0.0,0.0,0.0,0.0,0.0,0.0,0.0,0.0,0.0,0.0,0.0,0.0,0.0,0.0,0.0,0.0,0.0,0.0,0.0,0.0,0.0,0.0,0.0,0.0,0.0,0.0,0.0,0.0,0.0,0.0,0.0,0.0,0.0,0.0,0.0,0.0,0.0,0.0,0.0,0.0,0.0,0.0,0.0,0.0,0.0,0.0,0.0,0.0,0.0,0.0,0.0,0.0,0.0,0.0,0.0,0.0,0.0,0.0,0.0,-0.0354,-0.3002,-0.5253,-0.922,-1.2172,-1.3298,-1.657,-1.8118,-1.696,0.0,0.0,0.0,0.0,0.0,0.0,0.0,0.0,0.0,0.0,0.0,0.0,0.0,0.0,0.0,0.0,0.0,0.0,0.0,0.0,0.0,0.0,0.0,0.0,0.0,0.0,0.0,0.0,0.0,0.0,0.0,0.0,0.0,0.0,0.0,0.0,0.0,0.0,0.0,0.0,0.0,0.0,0.0,0.0,0.0,0.0,0.0,0.0,0.0,0.0,0.0,0.0,0.0,0.0,0.0,0.0,0.0,0.0,0.0,0.0,0.0,0.0,0.0,0.0,0.0,0.0,0.0,0.0,0.0,0.0,0.0,0.0,0.0,0.0,0.0,0.0,0.0,0.0,0.0,0.0,0.0,0.0,0.0,0.0,0.0,0.0,0.0,0.0,0.0,0.0,0.0,0.0,0.0,0.0,0.0,0.0,0.0,0.0,0.0,0.0,0.0,0.0,0.0893,-0.1138,-0.3637,-0.6253,-0.9515,-1.214,-1.3622,-1.6418,-1.7684,-1.6823,0.0,0.0,0.0,0.0,0.0,0.0,0.0,0.0,0.0,0.0,0.0,0.0,0.0,0.0,0.0,0.0,0.0,0.0,0.0,0.0,0.0,0.0,0.0,0.0,0.0,0.0,0.0,0.0,0.0,0.0,0.0,0.0,0.0,0.0,0.0,0.0,0.0,0.0,0.0,0.0,0.0,0.0,0.0,0.0,0.0,0.0,0.0,0.0,0.0,0.0,0.0,0.0,0.0,0.0,0.0,0.0,0.0,0.0,0.0,0.0,0.0,0.0,0.0,0.0,0.0,0.0,0.0,0.0,0.0,0.0,0.0,0.0,0.0,0.0,0.0,0.0,0.0,0.0,0.0,0.0,0.0,0.0,0.0,0.0,0.0,0.0,0.0,0.0,0.0,0.0,0.0,0.0,0.0,0.0,0.0,0.0,0.0,0.0,0.0,0.0,0.0,0.0,-0.0332,-0.2213,-0.4933,-0.8427,-1.0211,-1.201,-1.4298,-1.5707,-1.6506,0.0,0.0,0.0,0.0,0.0,0.0,0.0,0.0,0.0,0.0,0.0,0.0,0.0,0.0,0.0,0.0,0.0,0.0,0.0,0.0,0.0,0.0,0.0,0.0,0.0,0.0,0.0,0.0,0.0,0.0,0.0,0.0,0.0,0.0,0.0,0.0,0.0,0.0,0.0,0.0,0.0,0.0,0.0,0.0,0.0,0.0,0.0,0.0,0.0,0.0,0.0,0.0,0.0,0.0,0.0,0.0,0.0,0.0,0.0,0.0,0.0,0.0,0.0,0.0,0.0,0.0,0.0,0.0,0.0,0.0,0.0,0.0,0.0,0.0,0.0,0.0,0.0,0.0,0.0,0.0,0.0,0.0,0.0,0.0,0.0,0.0,0.0,0.0,0.0,0.0,0.0,0.0,0.0,0.0,0.0,0.0,0.0,0.0,0.0,0.0,0.0,0.0,0.0,-0.2376,-0.3637,-0.5624,-0.8502,-1.0679,-1.2651,-1.4365,-1.5974,-1.6822,-1.6522,0.0,0.0,0.0,0.0,0.0,0.0,0.0,0.0,0.0,0.0,0.0,0.0,0.0,0.0,0.0,0.0,0.0,0.0,0.0,0.0,0.0,0.0,0.0,0.0,0.0,0.0,0.0,0.0,0.0,0.0,0.0,0.0,0.0,0.0,0.0,0.0,0.0,0.0,0.0,0.0,0.0,0.0,0.0,0.0,0.0,0.0,0.0,0.0,0.0,0.0,0.0,0.0,0.0,0.0,0.0,0.0,0.0,0.0,0.0,0.0,0.0,0.0,0.0,0.0,0.0,0.0,0.0,0.0,0.0,0.0,0.0,0.0,0.0,0.0,0.0,0.0,0.0,0.0,0.0,0.0,0.0,0.0,0.0,0.0,0.0,0.0,0.0,0.0,0.0,0.0,0.0,0.0,0.0,0.0,0.0,0.0,0.0,0.0,0.0,0.0,0.0,0.0,-0.3913,-0.4866,-0.6463,-0.8979,-1.0868,-1.2559,-1.4014,-1.5584,-1.6397,-1.6092,0.0,0.0,0.0,0.0,0.0,0.0,0.0,0.0,0.0,0.0,0.0,0.0,0.0,0.0,0.0,0.0,0.0,0.0,0.0,0.0,0.0,0.0,0.0,0.0,0.0,0.0,0.0,0.0,0.0,0.0,0.0,0.0,0.0,0.0,0.0,0.0,0.0,0.0,0.0,0.0,0.0,0.0,0.0,0.0,0.0,0.0,0.0,0.0,0.0,0.0,0.0,0.0,0.0,0.0,0.0,0.0,0.0,0.0,0.0,0.0,0.0,0.0,0.0,0.0,0.0,0.0,0.0,0.0,0.0,0.0,0.0,0.0,0.0,0.0,0.0,0.0,0.0,0.0,0.0,0.0,0.0,0.0,0.0,0.0,0.0,0.0,0.0,0.0,0.0,0.0,0.0,0.0,0.0,0.0,0.0,0.0,0.0,0.0,0.0,0.0,0.0,0.0,-0.5178,-0.6003,-0.7468,-0.9842,-1.1032,-1.2163,-1.3567,-1.4858,-1.5589,-1.5553,0.0,0.0,0.0,0.0,0.0,0.0,0.0,0.0,0.0,0.0,0.0,0.0,0.0,0.0,0.0,0.0,0.0,0.0,0.0,0.0,0.0,0.0,0.0,0.0,0.0,0.0,0.0,0.0,0.0,0.0,0.0,0.0,0.0,0.0,0.0,0.0,0.0,0.0,0.0,0.0,0.0,0.0,0.0,0.0,0.0,0.0,0.0,0.0,0.0,0.0,0.0,0.0,0.0,0.0,0.0,0.0,0.0,0.0,0.0,0.0,-0.696,-0.6648,0.0,0.0,0.0,0.0,0.0,0.0,0.0,0.0,0.0,0.0,0.0,0.0,0.0,0.0,0.0,0.0,0.0,0.0,0.0,0.0,0.0,0.0,0.0,0.0,0.0,0.0,0.0,0.0,0.0,0.0,0.0,0.0,0.0,0.0,0.0,0.0,0.0,0.0,0.0,0.0,-0.7378,-0.7605,-0.8565,-1.1208,-1.2107,-1.3024,-1.4259,-1.513,-1.592,-1.6593,-1.7305,0.0,0.0,0.0,0.0,0.0,0.0,0.0,0.0,0.0,0.0,0.0,0.0,0.0,0.0,0.0,0.0,0.0,0.0,0.0,0.0,0.0,0.0,0.0,0.0,0.0,0.0,0.0,0.0,0.0,0.0,0.0,0.0,0.0,0.0,0.0,0.0,0.0,0.0,0.0,0.0,0.0,0.0,0.0,0.0,0.0,0.0,0.0,0.0,0.0,0.0,0.0,0.0,0.0,0.0,0.0,0.0,0.0,0.0,0.0,-0.6597,-0.7005,0.0,0.0,0.0,0.0,0.0,0.0,0.0,0.0,0.0,0.0,0.0,0.0,0.0,0.0,0.0,0.0,0.0,0.0,0.0,0.0,0.0,0.0,0.0,0.0,0.0,0.0,0.0,0.0,0.0,0.0,0.0,0.0,0.0,0.0,0.0,0.0,0.0,0.0,0.0,0.0,-0.789,-0.8392,-0.9286,-1.1174,-1.2088,-1.2872,-1.3666,-1.4766,-1.5588,-1.6028,-1.6896,0.0,0.0,0.0,0.0,0.0,0.0,0.0,0.0,0.0,0.0,0.0,0.0,0.0,0.0,0.0,0.0,0.0,0.0,0.0,0.0,0.0,0.0,0.0,0.0,0.0,0.0,0.0,0.0,0.0,0.0,0.0,0.0,0.0,0.0,0.0,0.0,0.0,0.0,0.0,0.0,0.0,0.0,0.0,0.0,0.0,0.0,0.0,0.0,0.0,0.0,0.0,0.0,0.0,-0.166,-0.2301,-0.3481,-0.3493,-0.3028,-0.2398,-0.5846,-0.6644,-0.5583,-0.6657,0.0,0.0,0.0,0.0,0.0,0.0,0.0,0.0,0.0,0.0,0.0,0.0,0.0,0.0,0.0,0.0,0.0,0.0,0.0,0.0,0.0,0.0,-0.7206,-0.7183,-0.7319,-0.7576,-0.799,0.0,0.0,0.0,0.0,0.0,0.0,0.0,0.0,0.0,0.0,0.0,-0.7987,-0.8975,-0.9992,-1.1047,-1.1837,-1.2472,-1.291,-1.4325,-1.5234,-1.5269,-1.6606,-1.7256,0.0,0.0,0.0,0.0,0.0,0.0,0.0,0.0,0.0,0.0,0.0,0.0,0.0,0.0,0.0,0.0,0.0,0.0,0.0,0.0,0.0,0.0,0.0,0.0,0.0,0.0,0.0,0.0,0.0,0.0,0.0,0.0,0.861,0.8249,0.0,0.0,0.0,0.0,0.0,0.0,0.0,0.0,0.0,0.0,0.0,0.0,0.0,0.0,0.0,0.0,-0.0107,-0.0259,-0.0271,-0.0983,-0.2226,-0.226,-0.2816,-0.3894,-0.4478,0.0,-0.2472,-0.3814,0.0,0.0,0.0,0.0,0.0,0.0,0.0,0.0,0.0,0.0,0.0,0.0,0.0,0.0,0.0,0.0,0.0,0.0,0.0,0.0,0.0,0.0,-0.7692,-0.7567,-0.7556,-0.76,-0.7677,-0.8173,-0.8698,-0.8746,-0.9498,-1.0019,0.0,0.0,0.0,0.0,0.0,0.0,-0.9331,-1.0241,-1.1245,-1.2412,-1.2377,-1.2643,-1.3521,-1.4589,-1.5552,-1.6349,-1.702,-1.7519,-1.7832,-1.6794,0.0,0.0,0.0,0.0,0.0,0.0,0.0,0.0,0.0,0.0,0.0,0.0,0.0,0.0,0.0,0.0,0.0,0.0,0.0,0.0,0.0,0.0,0.0,0.0,0.0,0.0,0.0,0.0,0.0,1.267,1.1074,0.9508,0.7942,0.6488,0.0,0.0,0.0,0.0,0.0,0.0,0.0,0.0,0.0,0.0,0.0,0.0,0.0,0.0,0.0,0.0,0.0,-0.0334,-0.0877,-0.0875,-0.1202,-0.1855,-0.1837,-0.1426,-0.0973,-0.3064,-0.3846,-0.3759,0.0,0.0,0.0,0.0,-0.58,-0.643,-0.656,-0.701,-0.7499,-0.7404,0.0,0.0,0.0,0.0,0.0,0.0,0.0,-0.7373,-0.7394,-0.7546,-0.7695,-0.7712,-0.7719,-0.7695,-0.7617,-0.7923,-0.831,-0.8709,-0.9048,-0.9192,-0.8909,-0.8421,0.0,0.0,0.0,-0.8343,-0.9337,-1.0154,-1.1082,-1.2178,-1.1984,-1.2048,-1.2649,-1.3575,-1.4598,-1.5746,-1.6517,-1.7277,-1.7964,-1.7461,-1.7379,0.0,0.0,0.0,0.0,0.0,0.0,0.0,0.0,0.0,0.0,0.0,0.0,0.0,0.0,0.0,0.0,0.0,0.0,0.0,0.0,0.0,0.0,0.0,0.0,0.0,0.0,0.0,0.0,1.4818,1.3579,1.0966,1.0049,0.8822,0.0,0.0,0.0,0.0,0.0,0.0,0.3437,0.2666,0.1758,0.0652,0.022,0.0,0.0,0.0,0.0,0.0,0.0,0.0,0.0,0.0,0.0,0.0,0.0,0.0,-0.0156,-0.2172,-0.2941,-0.2854,-0.3102,-0.3171,-0.3206,-0.3558,-0.4319,-0.5172,-0.5275,-0.5979,-0.6759,-0.6599,-0.6761,-0.6994,-0.6954,0.0,0.0,0.0,0.0,-0.7443,-0.7512,-0.757,-0.7628,-0.7733,-0.7756,-0.7729,-0.7624,-0.7651,-0.7911,-0.8534,-0.8516,-0.8301,-0.8023,-0.7845,0.0,-0.6447,-0.7401,-0.8482,-0.9193,-1.0219,-1.1166,-1.1906,-1.1784,-1.1744,-1.1964,-1.2856,-1.3909,-1.5111,-1.586,-1.668,-1.7613,-1.7303,-1.7007,-1.6853,0.0,0.0,0.0,0.0,0.0,0.0,0.0,0.0,0.0,0.0,0.0,0.0,0.0,0.0,0.0,0.0,0.0,0.0,0.0,0.0,0.0,0.0,0.0,0.0,0.0,0.0,0.0,0.0,0.0,1.2853,1.2087,0.0,0.0,0.0,0.0,0.8217,0.7229,0.6609,0.6506,0.3914,0.2469,0.2397,0.0801,0.0,0.0,0.0,0.0,0.0,0.0,0.0,0.0,0.0,0.0,0.0,0.0,0.0,0.0,-0.0156,-0.0205,-0.0302,-0.1607,-0.1987,-0.2058,-0.3483,-0.3963,-0.3913,-0.4035,-0.4065,-0.4016,-0.4129,-0.4937,-0.6109,-0.7221,-0.7458,0.0,0.0,-0.7248,-0.7419,-0.7426,-0.7492,-0.76,-0.7607,-0.7611,-0.7607,-0.76,-0.7492,-0.7436,-0.7464,-0.7454,-0.7307,-0.686,0.0,-0.6801,-0.6364,-0.8082,-0.9369,-0.9322,-1.1013,-1.2204,-1.2278,-1.2265,-1.2265,-1.2278,-1.3142,-1.4119,-1.5128,-1.5234,-1.5693,-1.6636,-1.5377,-1.4869,-1.5307,-1.5375,0.0,0.0,0.0,0.0,0.0,0.0,0.0,0.0,0.0,0.0,0.0,0.0,0.0,0.0,0.0,0.0,0.0,0.0,0.0,0.0,0.0,0.0,0.0,0.0,0.0,0.0,0.0,0.0,1.4571,1.4631,0.0,1.0575,1.0371,0.9977,0.8948,0.8543,0.7906,0.702,0.6032,0.4578,0.2542,0.1912,0.108,0.0,0.0,0.0,0.0,0.0,0.0,0.0,0.0,0.0,0.0,0.0,0.0,0.0,0.0,0.0,-0.0051,-0.0504,-0.0703,-0.07,-0.1257,-0.1955,-0.2642,-0.2709,-0.3252,-0.3917,-0.3898,-0.4111,-0.4591,-0.5834,-0.6133,-0.6266,-0.6931,-0.7251,-0.7415,-0.7415,-0.7456,-0.7451,-0.7451,-0.7451,-0.7424,-0.7326,-0.7339,-0.7316,-0.7122,-0.716,-0.7112,-0.6759,-0.6746,-0.6664,-0.6354,-0.749,-0.8621,-0.9231,-1.0353,-1.1318,-1.1988,-1.185,-1.1817,-1.2004,-1.2341,-1.3021,-1.4155,-1.4243,-1.4665,-1.5649,-1.5215,-1.4889,-1.4747,-1.4296,-1.435,0.0,0.0,0.0,0.0,0.0,0.0,0.0,0.0,0.0,0.0,0.0,0.0,0.0,0.0,0.0,0.0,0.0,0.0,0.0,0.0,0.0,0.0,0.0,0.0,0.0,1.7221,1.7354,1.5551,1.6105,1.5479,1.2495,1.1804,1.1129,1.0126,0.9617,0.8939,0.7973,0.7495,0.6288,0.4236,0.359,0.2492,0.0844,0.0767,0.0521,0.0,0.0,0.0,0.0,0.0,0.0,0.0,0.0,0.0,0.0,0.0,0.0,0.0,0.0,0.0,0.0,0.0,-0.0555,-0.1309,-0.13,-0.1894,-0.2725,-0.3072,-0.3155,-0.3293,-0.4494,-0.4874,-0.4999,-0.5722,-0.6311,-0.6747,-0.6747,-0.7021,-0.7292,-0.7292,-0.7292,-0.7251,-0.7058,-0.7149,-0.7149,-0.6898,-0.6927,-0.693,-0.6675,-0.6624,-0.6539,-0.6337,-0.7176,-0.8024,-0.8632,-0.9704,-1.0629,-1.123,-1.1456,-1.1657,-1.1886,-1.1993,-1.2525,-1.3622,-1.3317,-1.3545,-1.4532,-1.4242,-1.3956,-1.3627,-1.3156,-1.3148,-1.3598,0.0,0.0,0.0,0.0,0.0,0.0,0.0,0.0,0.0,0.0,0.0,0.0,0.0,0.0,0.0,0.0,0.0,0.0,0.0,0.0,0.0,0.0,0.0,1.6774,1.7456,1.7471,1.588,1.652,1.6258,1.42,1.2816,1.1974,1.1804,1.0461,0.9615,0.9608,0.8277,0.7418,0.7416,0.5684,0.4082,0.2583,0.2386,0.1535,0.0112,0.011,0.0054,0.0052,0.0,0.0,0.0,0.0,0.0,0.0,0.0,0.0,0.0,0.0,0.0,0.0,0.0,0.0,0.0,0.0,0.0,-0.0195,-0.1532,-0.1949,-0.2179,-0.3381,-0.3726,-0.3711,-0.3635,-0.4463,-0.5359,-0.5359,-0.6157,-0.7,-0.7003,-0.7,-0.6957,-0.687,-0.6837,-0.6832,-0.6722,-0.681,-0.6814,-0.6562,-0.6511,-0.6463,-0.632,-0.7134,0.0,-0.7516,-0.9124,-1.0266,-1.0142,-1.1163,-1.187,-1.1919,-1.2138,-1.2696,-1.3585,-1.2556,-1.2325,-1.3224,-1.2389,-1.1899,-1.1893,-1.1956,-1.2307,-1.2917,0.0,0.0,0.0,0.0,0.0,0.0,0.0,0.0,0.0,0.0,0.0,0.0,0.0,0.0,0.0,0.0,0.0,0.0,0.0,0.0,0.0,1.6482,1.7246,1.7321,1.8116,1.8476,1.8056,1.8209,1.7791,1.6304,1.4629,1.3126,1.2037,1.0562,0.972,0.9615,0.9315,0.8548,0.7248,0.6674,0.5639,0.3944,0.3751,0.346,0.3017,0.1972,0.1464,0.1398,0.046,0.0,0.0,0.0,0.0,0.0,0.0,0.0,0.0,0.0,0.0,0.0,0.0,0.0,0.0,0.0,0.0,-0.0048,-0.0422,-0.0559,-0.0789,-0.1998,-0.2345,-0.2522,-0.3353,-0.3838,-0.4105,-0.4105,-0.4326,-0.4557,-0.4579,-0.4578,-0.4744,-0.5435,-0.5594,-0.5788,-0.6441,-0.6525,-0.6491,-0.6508,-0.6511,-0.6463,-0.632,-0.6429,-0.6742,-0.743,-0.7875,-0.875,-1.0301,-1.0772,-1.1297,-1.2128,-1.2258,-1.2321,-1.2392,-1.2089,-1.2013,-1.2254,-1.2041,-1.1806,-1.155,-1.1805,-1.17,0.0,0.0,0.0,0.0,0.0,0.0,0.0,0.0,0.0,0.0,0.0,0.0,0.0,0.0,0.0,0.0,0.0,0.0,0.0,0.0,0.0,0.0,1.6907,1.7662,1.8083,1.8591,1.8971,1.9092,1.9112,1.882,1.8085,1.6419,1.4707,1.3101,1.1561,1.0401,0.9612,0.9629,0.9205,0.8164,0.8057,0.7169,0.5547,0.5254,0.482,0.4199,0.3299,0.2831,0.2808,0.2023,0.136,0.0857,0.0857,0.0504,0.0,0.0,0.0,0.0,0.0,0.0,0.0,0.0,0.0,0.0,0.0,0.0,0.0,0.0,0.0,-0.0137,-0.0855,-0.1031,-0.1208,-0.1903,-0.2442,-0.2847,-0.2839,-0.3211,-0.3597,-0.3608,-0.3585,-0.3722,-0.4238,-0.4349,-0.4511,-0.4985,-0.5319,0.0,-0.5634,-0.5956,-0.6162,-0.6119,-0.5993,-0.6091,-0.6633,-0.6958,-0.7734,-0.9335,-1.002,-1.0824,-1.1846,-1.2158,0.0,0.0,0.0,-1.1852,-1.169,-1.1683,0.0,0.0,0.0,-1.1223,-1.0593,-1.1022,0.0,0.0,-1.2187,-1.2353,0.0,0.0,0.0,0.0,0.0,0.0,0.0,0.0,0.0,0.0,0.0,0.0,0.0,0.0,0.0,0.0,1.7741,1.823,1.8838,1.8951,1.9072,1.9339,1.9397,1.9319,1.9319,1.7855,1.6187,1.4436,1.2817,1.1255,0.9617,0.9445,0.0,0.0,0.0,0.8511,0.7126,0.6843,0.6029,0.4665,0.4364,0.4235,0.4216,0.4066,0.3364,0.2213,0.2213,0.1561,0.0454,0.0303,0.0151,0.0,0.0,0.0,0.0,0.0,0.0,0.0,0.0,0.0,0.0,0.0,0.0,0.0,0.0,0.0,0.0,0.0,-0.0793,-0.1591,-0.1611,-0.2378,-0.3211,-0.3197,-0.3208,-0.3198,-0.3113,-0.3151,-0.3177,-0.3114,-0.3763,-0.4365,-0.4436,-0.5206,-0.58,-0.58,-0.5786,-0.5732,-0.5606,-0.6249,-0.7021,-0.7821,-0.9,0.0,-1.1033,-1.1611,-1.1928,-1.2012,-1.1768,-1.1469,-1.1069,-1.1088,-1.0978,-1.0725,-1.0718,-1.0614,-1.0466,-1.0685,-1.0763,-1.066,-1.1477,-1.1937,0.0,0.0,0.0,0.0,0.0,0.0,0.0,0.0,0.0,0.0,0.0,0.0,0.0,0.0,0.0,1.8721,1.8373,1.8195,1.8838,1.9132,1.9305,1.9417,1.9158,1.9011,1.9011,1.7339,1.5609,1.3963,1.2416,1.0904,0.936,0.933,0.934,0.9303,0.9241,0.8984,0.853,0.8243,0.7976,0.7629,0.6259,0.0,0.5575,0.4468,0.3865,0.3615,0.3615,0.3465,0.3165,0.2063,0.0999,0.0,0.0,0.0,0.0,0.0,0.0,0.0,0.0,0.0,0.0,0.0,0.0,0.0,0.0,0.0,0.0,0.0,-0.0175,-0.0348,-0.0339,-0.0541,-0.0703,-0.0712,-0.0685,-0.0929,-0.1759,-0.1935,-0.2168,-0.2947,-0.3175,-0.3445,-0.4147,-0.5113,-0.58,-0.58,-0.5705,-0.5623,-0.5593,-0.5647,-0.6104,-0.7148,-0.7534,-0.8122,-0.9192,-0.94,-0.9694,-1.0164,-1.0137,-0.9773,-0.9,-0.918,-0.9169,-0.8902,-0.8896,-0.9119,-0.9562,-0.961,-1.0083,-1.0915,-1.1323,-1.1416,0.0,0.0,0.0,0.0,0.0,0.0,0.0,0.0,0.0,0.0,0.0,2.3252,2.3197,0.0,1.9659,2.0114,1.9184,1.8582,1.9085,1.9145,1.9199,1.941,1.9239,1.9145,1.9145,1.8172,1.6799,1.5122,1.3531,1.192,1.0321,0.9546,0.9157,0.921,0.9083,0.9011,0.8885,0.871,0.8557,0.8479,0.7587,0.7098,0.6983,0.6326,0.5622,0.502,0.502,0.4618,0.3966,0.3265,0.2189,0.0982,0.1001,0.0598,0.0,0.0,0.0,0.0,0.0,0.0,0.0,0.0,0.0,0.0,0.0,0.0,0.0,0.0,0.0,0.0,0.0,0.0,0.0,0.0,0.0,-0.0154,-0.0683,-0.0815,-0.0939,-0.1442,-0.1832,-0.2222,-0.2666,-0.3937,-0.5055,-0.5545,-0.5556,-0.5511,-0.5511,-0.5511,-0.5876,-0.6802,-0.7069,-0.7593,-0.8521,-0.8727,-0.8922,-0.9223,-0.9252,-0.8987,-0.8425,-0.8528,-0.843,-0.8054,-0.8049,-0.8164,-0.8382,-0.8382,-0.8697,-0.9256,-0.9388,-1.0094,0.0,0.0,0.0,0.0,0.0,0.0,0.0,2.8068,2.7849,2.7943,2.6799,2.5743,2.5711,2.3456,2.1569,2.1502,2.0278,1.9333,1.9303,1.9078,1.8991,1.9178,1.9256,1.9256,1.9256,1.8931,1.7989,1.6279,1.4845,1.3362,1.1757,1.0204,0.9429,0.955,0.9109,0.8885,0.8885,0.8788,0.8648,0.8523,0.8353,0.8204,0.8032,0.8005,0.7434,0.6381,0.6381,0.5625,0.4368,0.4368,0.3569,0.2338,0.2334,0.1679,0.0631,0.0196,0.0,0.0,0.0,0.0,0.0,0.0,0.0,0.0,0.0,0.0,0.0,0.0,0.0,0.0,0.0,0.0,0.0,0.0,0.0,0.0,0.0,0.0,0.0,0.0,-0.0572,-0.1106,-0.1273,-0.2509,-0.3849,-0.4957,-0.5292,-0.5395,-0.5395,-0.5501,-0.58,-0.6379,-0.6724,-0.7181,-0.7769,-0.8181,-0.8315,-0.8141,-0.8315,-0.8215,-0.7769,-0.776,-0.7577,-0.7161,-0.7157,-0.7197,-0.724,-0.724,-0.7329,-0.7512,-0.7512,-0.8623,2.6284,2.6817,2.8008,3.014,3.1032,3.1928,0.0,3.3238,3.2111,3.2203,3.0239,2.8572,2.8522,2.6326,2.4202,2.3157,2.1812,2.046,1.9128,1.8945,1.8844,1.8617,1.8591,1.8591,1.8591,1.8317,1.7402,1.563,1.5315,1.4595,1.3137,1.166,1.0844,1.0865,0.9599,0.8885,0.8885,0.8788,0.8703,0.8682,0.8401,0.8313,0.8241,0.8102,0.7939,0.7786,0.7786,0.7033,0.5777,0.5777,0.492,0.3578,0.3602,0.3452,0.2934,0.0774,0.0,0.0,0.0,0.0,0.0,0.0,0.0,0.0,0.0,0.0,0.0,0.0,0.0,0.0,0.0,0.0,0.0,0.0,0.0,0.0,0.0,0.0,0.0,0.0,-0.0067,-0.0404,-0.1173,-0.1474,-0.2175,-0.3915,-0.4855,-0.5395,-0.5395,-0.5409,-0.5446,-0.5528,-0.5589,-0.5637,-0.5715,-0.6478,-0.6622,-0.584,-0.649,-0.6502,-0.5503,-0.5463,-0.5385,-0.5216,-0.5213,-0.5589,-0.634,-0.634,-0.6729,-0.7512,-0.7512,-0.7654,2.9616,3.0267,3.1149,3.2326,3.3605,3.4782,3.5777,3.5186,3.4534,3.4914,3.3023,3.1109,3.0559,2.8239,2.6061,2.5063,2.2758,2.0933,2.0341,1.9167,1.843,1.8484,1.8176,1.8103,1.8457,1.8223,1.772,1.6978,1.5993,1.5144,1.4556,1.3156,1.2403,1.2403,1.0945,1.0186,1.0186,0.9253,0.8798,0.871,0.8496,0.8402,0.8316,0.8109,0.7988,0.7988,0.7988,0.7686,0.7176,0.7097,0.6222,0.4935,0.4879,0.4342,0.3465,0.2475,0.2091,0.2099,0.2081,0.2092,0.2102,0.2102,0.2042,0.1847,0.1232,0.0997,0.0805,0.0166,0.0,0.0,0.0,0.0,0.0,0.0,0.0,0.0,0.0,0.0,0.0,0.0,0.0,-0.0101,-0.0471,-0.0973,-0.1541,-0.2309,-0.3647,-0.4788,-0.5329,-0.5474,-0.5528,-0.5528,-0.5446,-0.5395,-0.5395,-0.5719,-0.5741,-0.5266,-0.5574,-0.5534,-0.5013,-0.4975,-0.4908,-0.4789,-0.4785,-0.4914,-0.5216,-0.5216,-0.5388,-0.5755,-0.5755,-0.5755,3.1585,3.2642,3.3676,3.4153,3.5601,3.6981,3.701,3.6725,3.6425,3.6419,3.4754,3.3051,3.2185,2.9823,2.7712,2.6803,2.4195,2.2143,2.1681,1.9852,1.8651,1.8926,1.8185,1.7883,1.8323,1.8096,1.7862,1.7862,1.6725,1.6009,1.6009,1.4663,1.3857,1.3857,1.2457,1.1483,1.1105,1.0025,0.9239,0.871,0.8557,0.8408,0.8316,0.8109,0.7988,0.7988,0.7988,0.7965,0.7917,0.7858,0.7168,0.6254,0.6112,0.548,0.4572,0.4547,0.4175,0.3585,0.3545,0.3554,0.3607,0.3478,0.3401,0.32,0.2409,0.2071,0.1862,0.106,0.0849,0.0841,0.0866,0.0666,0.0432,0.0432,0.0196,0.0,0.0,0.0,0.0,0.0,0.0,0.0,0.0,-0.0538,-0.1006,-0.1274,-0.241,-0.368,-0.4855,-0.5319,-0.5562,-0.5562,-0.5423,-0.5347,-0.5392,-0.532,-0.5209,-0.5103,-0.5063,-0.4975,-0.4863,-0.4857,-0.4782,-0.4658,-0.4655,-0.46,-0.4491,-0.4491,-0.4491,-0.4491,-0.4491,-0.4491,3.1206,3.3027,3.5101,3.5762,3.7137,3.8379,3.8577,3.8566,3.8093,3.6591,3.5193,3.4073,3.3541,3.1257,2.9127,2.8176,2.6505,2.4667,2.2913,2.113,2.0022,2.0037,1.8824,1.7989,1.8002,1.7776,1.7595,1.7595,1.7536,1.7529,1.7529,1.6121,1.5364,1.5364,1.3965,1.2566,1.1105,1.1051,1.026,0.871,0.8557,0.8408,0.8316,0.8109,0.7988,0.7988,0.7988,0.7907,0.7818,0.7814,0.7641,0.7331,0.7331,0.7192,0.7013,0.6972,0.5565,0.3572,0.3389,0.3426,0.3546,0.3231,0.3192,0.3277,0.3123,0.3052,0.3037,0.2995,0.3024,0.3008,0.3007,0.2268,0.1568,0.1568,0.0745,0.0,0.0,0.0,0.0,0.0,0.0,0.0,0.0,-0.0034,-0.0337,-0.1173,-0.134,-0.2043,-0.3813,-0.4824,-0.5402,-0.5402,-0.523,-0.5199,-0.5382,-0.5098,-0.4958,-0.509,-0.4972,-0.4857,-0.4704,-0.4697,-0.4655,-0.4501,-0.4498,-0.4494,-0.4491,-0.4491,-0.4491,-0.4491,-0.4491,-0.4491,3.4102,3.5929,3.7654,3.8982,4.04,4.1484,4.1527,4.0788,3.9982,3.9456,3.7097,3.4763,3.3719,3.1736,2.9891,2.8665,2.663,2.4912,2.4298,2.2697,2.1534,2.1534,2.0529,1.9816,1.9816,1.8636,1.7802,1.7595,1.7582,1.7582,1.7582,1.7147,1.6876,1.6876,1.547,1.4371,1.3683,1.2728,1.1407,0.9805,0.882,0.8262,0.8116,0.8012,0.7988,0.7985,0.7884,0.7858,0.7794,0.76,0.7461,0.7405,0.7258,0.7142,0.7095,0.7095,0.6589,0.5894,0.5857,0.5855,0.5918,0.579,0.5684,0.5409,0.4652,0.432,0.4032,0.3319,0.3103,0.3085,0.3085,0.2851,0.2579,0.2579,0.2306,0.2058,0.2049,0.1518,0.1047,0.1055,0.048,0.0,0.0,0.0,-0.01,-0.0393,-0.1458,-0.2444,-0.3045,-0.3413,-0.3621,-0.3617,-0.3547,-0.3546,-0.3612,-0.3949,-0.3945,-0.3417,-0.3803,-0.3727,-0.3065,-0.3034,-0.3016,-0.2982,-0.2982,-0.2982,-0.2982,-0.2982,-0.2982,-0.2982,-0.2982,-0.2982,3.5085,3.6788,3.8433,3.9519,4.0573,4.1429,4.1712,4.1034,4.0271,3.9866,3.7484,3.5135,3.4144,3.2229,3.0384,2.9166,2.7241,2.5819,2.5531,2.3957,2.2937,2.3339,2.2363,2.1433,2.0888,1.9797,1.8755,1.7983,1.7809,1.7749,1.7749,1.7642,1.7582,1.7582,1.6658,1.5775,1.4989,1.4038,1.2727,1.1053,1.0066,0.9522,0.941,0.941,0.9325,0.9205,0.8713,0.8413,0.824,0.7629,0.7339,0.7278,0.7136,0.7095,0.7095,0.7095,0.7095,0.7088,0.7038,0.7055,0.7078,0.6974,0.6854,0.6574,0.5898,0.5502,0.5179,0.4506,0.4307,0.43,0.4265,0.3945,0.3669,0.3669,0.3396,0.3112,0.3104,0.2586,0.212,0.2065,0.125,0.0544,0.0472,0.02,0.0,0.0,-0.1004,-0.1853,-0.2145,-0.2502,-0.2709,-0.2691,-0.2658,-0.2633,-0.2707,-0.3011,-0.3019,-0.2523,-0.2869,-0.2823,-0.2233,-0.2202,-0.2202,-0.2202,-0.2202,-0.2202,-0.2202,-0.2202,-0.2202,-0.2202,-0.2202,-0.2202,3.4418,3.5917,3.7701,3.7716,3.8053,3.8616,3.937,3.9458,3.9066,3.8005,3.6509,3.5272,3.4753,3.2684,3.0742,2.9681,2.8466,2.7431,2.6685,2.5036,2.4271,2.5341,2.4306,2.2903,2.1473,2.1211,2.0441,1.8746,1.8223,1.7982,1.7969,1.7742,1.7575,1.7562,1.7562,1.6768,1.5104,1.4982,1.406,1.2298,1.2041,1.1896,1.1896,1.1886,1.1761,1.1455,1.0355,0.9575,0.9107,0.8034,0.7406,0.7183,0.7183,0.7139,0.7095,0.7095,0.7095,0.7075,0.6933,0.6974,0.7041,0.681,0.6712,0.6702,0.6709,0.6607,0.6525,0.6525,0.6518,0.648,0.6344,0.5556,0.4766,0.4766,0.4021,0.3279,0.3279,0.3222,0.3145,0.2992,0.2274,0.1591,0.1414,0.0656,0.0065,0.0064,0.0031,-0.0308,-0.114,-0.1999,-0.255,-0.2577,-0.2448,-0.2434,-0.2565,-0.2315,-0.2206,-0.2365,-0.2214,-0.212,-0.2091,-0.2091,-0.2091,-0.2091,-0.2091,-0.2091,-0.2091,-0.2091,-0.2091,-0.2091,-0.2091,-0.2091,3.7188,3.81,3.8718,3.9242,3.8984,3.8608,3.8803,3.873,3.8352,3.76,3.6582,3.5461,3.4101,3.292,3.1787,3.0742,2.9804,2.9063,2.8897,2.732,2.627,2.6544,2.5596,2.4746,2.4352,2.2577,2.1219,2.0574,1.8974,1.7896,1.7716,1.7622,1.7482,1.732,1.7313,1.6854,1.5991,1.4771,1.3955,1.3434,1.2408,1.1896,1.1891,1.1667,1.1557,1.1482,1.0845,1.0469,1.0354,0.9932,0.9231,0.8452,0.8452,0.7885,0.7095,0.7095,0.7095,0.7075,0.6933,0.691,0.6943,0.6974,0.6878,0.6722,0.6834,0.6763,0.6644,0.6644,0.6559,0.6504,0.6467,0.6179,0.5906,0.5906,0.567,0.5473,0.5473,0.4868,0.4261,0.4116,0.3178,0.2397,0.2345,0.1573,0.0959,0.0969,0.0426,-0.009,-0.0307,-0.0555,-0.0703,-0.0686,-0.065,-0.0643,-0.069,-0.1101,-0.1178,-0.068,-0.1096,-0.1146,-0.0588,-0.056,-0.056,-0.056,-0.056,-0.056,-0.056,-0.056,-0.056,-0.056,-0.056,-0.056,3.7204,3.7343,3.7374,3.7795,3.7121,3.6432,3.6501,3.6596,3.6503,3.5898,3.5317,3.4528,3.3219,3.3001,3.2453,3.073,3.0176,2.9784,2.946,2.7885,2.6885,2.7256,2.6579,2.5838,2.5189,2.3815,2.2596,2.1665,1.9526,1.811,1.7802,1.7535,1.7373,1.7206,1.7072,1.6734,1.6279,1.5239,1.4752,1.4704,1.398,1.3596,1.359,1.344,1.3251,1.298,1.2207,1.1698,1.1401,1.0835,1.0221,0.9666,0.9666,0.9226,0.8619,0.8619,0.8619,0.8646,0.8552,0.8508,0.8284,0.7317,0.6844,0.6654,0.6893,0.6824,0.6614,0.6681,0.659,0.6497,0.6436,0.6361,0.63,0.63,0.63,0.63,0.63,0.5841,0.5228,0.4634,0.382,0.3145,0.2778,0.2257,0.191,0.1823,0.1408,0.1059,0.0974,0.0414,0.0,0.0,0.0,0.0,0.0,-0.0392,-0.0448,-0.0028,-0.0392,-0.042,-0.0028,0.0,0.0,0.0,0.0,0.0,0.0,0.0,0.0,0.0,0.0,0.0,3.5847,3.5302,3.5145,3.4984,3.407,3.3197,3.3309,3.3729,3.3875,3.3276,3.3394,3.3308,3.2262,3.2909,3.2843,3.0615,3.0224,3.0046,2.9543,2.7783,2.6816,2.75,2.7246,2.6461,2.5112,2.4889,2.4104,2.243,2.0177,1.868,1.8259,1.7553,1.7166,1.7085,1.6747,1.6466,1.6219,1.5959,1.5784,1.5784,1.5784,1.5784,1.5784,1.5744,1.5478,1.4963,1.3865,1.3057,1.2462,1.1472,1.0956,1.0826,1.0826,1.074,1.0611,1.0611,1.0611,1.0605,1.0575,1.0461,1.0028,0.8041,0.7204,0.702,0.7415,0.7242,0.6929,0.6905,0.6912,0.6799,0.6436,0.643,0.6451,0.6338,0.63,0.63,0.63,0.6269,0.5929,0.4862,0.441,0.3949,0.3178,0.2941,0.2828,0.2729,0.258,0.2438,0.2254,0.1009,0.0196,0.028,0.0112,0.0028,0.014,0.014,0.014,0.014,0.0224,0.028,0.028,0.028,0.028,0.028,0.028,0.028,0.028,0.028,0.0252,0.014,0.014,0.0084,3.5539,3.5122,3.4755,3.3923,3.2329,3.0855,3.0505,3.0816,3.0945,2.9942,3.1803,3.312,3.1641,3.2237,3.2878,3.2574,3.1445,3.086,3.1601,2.925,2.7363,2.7148,2.706,2.6773,2.6162,2.5321,2.4412,2.3494,2.1918,2.0488,1.936,1.7995,1.6978,1.6489,1.6139,1.5911,1.5905,1.5804,1.5784,1.5784,1.5784,1.5784,1.5771,1.5578,1.5284,1.495,1.4476,1.4087,1.3779,1.3561,1.2905,1.2029,1.2029,1.1423,1.0611,1.0611,1.0611,1.0585,1.0483,1.0227,0.9978,0.9966,0.9666,0.9371,0.9578,0.9428,0.8973,0.8156,0.843,0.8584,0.6911,0.7004,0.7326,0.649,0.63,0.63,0.63,0.6098,0.5828,0.5627,0.5352,0.5123,0.4957,0.4281,0.3776,0.3758,0.3038,0.2488,0.2443,0.1534,0.1146,0.1758,0.0727,0.0252,0.0866,0.0923,0.0923,0.0923,0.148,0.1813,0.1813,0.1813,0.1813,0.1813,0.1813,0.1813,0.1813,0.1813,0.1507,0.0923,0.0923,0.0588,3.5561,3.4885,3.4323,3.2996,3.1125,2.9413,2.8723,2.8944,2.8966,2.7937,3.019,3.1981,3.071,3.1772,3.2671,3.2268,3.1699,3.1359,3.1468,2.9455,2.7723,2.7063,2.6621,2.6269,2.6064,2.5555,2.5139,2.4794,2.3188,2.1337,1.9127,1.7588,1.6543,1.6052,1.5905,1.5784,1.5784,1.5784,1.5784,1.5784,1.5784,1.5784,1.5778,1.5685,1.5384,1.5001,1.481,1.4496,1.4088,1.4088,1.3779,1.3245,1.3245,1.2905,1.2431,1.2431,1.2431,1.2413,1.2367,1.22,1.2076,1.2146,1.1004,0.9626,0.9882,0.9832,0.9582,0.9018,0.9226,0.9355,0.8242,0.8266,0.8313,0.7326,0.6679,0.6451,0.6984,0.6858,0.6674,0.6674,0.6476,0.6112,0.5579,0.5084,0.4699,0.4594,0.4108,0.3733,0.364,0.2819,0.2232,0.2202,0.1563,0.1284,0.1647,0.1675,0.1675,0.1675,0.2009,0.2202,0.2202,0.2202,0.2202,0.2202,0.2202,0.2202,0.2202,0.2202,0.2009,0.1675,0.1675,0.148,3.52,3.4436,3.3967,3.2303,3.0273,2.8474,2.7569,2.7561,2.747,2.6512,2.8762,3.0658,2.9934,3.1112,3.1978,3.147,3.1374,3.1214,3.0751,2.9214,2.7863,2.7106,2.6338,2.5791,2.5703,2.5693,2.5606,2.5421,2.3669,2.1496,1.8934,1.7683,1.6793,1.6211,1.6204,1.6062,1.5784,1.5784,1.5784,1.5784,1.5784,1.5751,1.5684,1.5684,1.5418,1.4914,1.4914,1.4569,1.4088,1.4088,1.4088,1.4088,1.4088,1.4088,1.4088,1.4088,1.4088,1.4088,1.4088,1.4048,1.3941,1.3606,1.1991,1.0149,1.0309,1.0319,1.0208,0.9854,1.0009,1.0132,0.9456,0.9448,0.9367,0.8351,0.7518,0.7176,0.7936,0.7968,0.7859,0.7859,0.7584,0.7116,0.6337,0.606,0.5902,0.5734,0.5428,0.5191,0.5066,0.4216,0.338,0.2789,0.2408,0.2258,0.2425,0.2426,0.2426,0.2426,0.2593,0.2704,0.2704,0.2704,0.2704,0.2704,0.2704,0.2704,0.2704,0.2704,0.2619,0.2454,0.2454,0.2343,3.3561,3.3546,3.3862,3.1932,2.9804,2.7958,2.7049,2.6755,2.6395,2.553,2.7794,2.9895,2.983,2.9945,3.0374,3.1276,3.0398,2.9857,3.0617,2.9155,2.7754,2.7055,2.6611,2.6172,2.5723,2.5693,2.5352,2.46,2.2637,2.0954,1.9823,1.9618,1.8942,1.7559,1.7552,1.699,1.5832,1.5784,1.5784,1.5784,1.5784,1.5691,1.5438,1.5438,1.5117,1.4563,1.4563,1.4382,1.4088,1.4088,1.4088,1.4088,1.4088,1.4088,1.4088,1.4088,1.4088,1.4088,1.4088,1.3908,1.3593,1.3347,1.3074,1.2805,1.2582,1.2308,1.1887,1.0936,1.1353,1.162,0.9793,0.9965,1.0415,0.941,0.9112,0.9036,0.9145,0.9045,0.8958,0.8958,0.8594,0.8251,0.8155,0.7943,0.7762,0.7737,0.689,0.626,0.6243,0.5258,0.4551,0.4465,0.3095,0.2482,0.3148,0.3204,0.3204,0.3204,0.3873,0.4294,0.4294,0.4294,0.4294,0.4294,0.4294,0.4294,0.4294,0.4294,0.3932,0.3289,0.3231,0.2843,3.4037,3.4306,3.46,3.1174,2.9038,2.7646,2.7197,2.6573,2.6153,2.6516,2.8307,2.9792,2.9792,2.9792,2.993,3.0357,3.0242,2.9947,2.9385,2.8523,2.7613,2.6764,2.6016,2.5635,2.5674,2.5488,2.4971,2.4102,2.3252,2.2511,2.187,2.0437,1.9415,1.8818,1.8772,1.8542,1.8025,1.7311,1.6943,1.6943,1.6019,1.5816,1.6358,1.5522,1.5253,1.5433,1.477,1.4355,1.4088,1.4088,1.4088,1.4088,1.4088,1.4088,1.4088,1.4088,1.4088,1.4088,1.4088,1.4008,1.3834,1.336,1.3213,1.312,1.2625,1.2556,1.2494,1.1856,1.2127,1.2375,1.1366,1.0944,1.0708,1.0303,0.9744,0.9485,1.0078,1.015,1.0114,1.0114,0.9759,0.9216,0.8631,0.8228,0.7994,0.7994,0.7548,0.7188,0.7188,0.6563,0.6149,0.6149,0.4622,0.3707,0.3984,0.4015,0.4015,0.4015,0.4322,0.4491,0.4491,0.4491,0.4491,0.4491,0.4491,0.4491,0.4491,0.4491,0.4349,0.407,0.4042,0.3873,3.4023,3.4242,3.4393,3.0993,2.879,2.7485,2.7369,2.6562,2.6012,2.6854,2.8492,2.9792,2.9792,2.9792,2.9792,2.9792,3.0118,2.985,2.8386,2.8009,2.7396,2.6152,2.5449,2.5195,2.5508,2.5137,2.457,2.3848,2.3672,2.3467,2.311,2.1498,2.0404,2.0034,2.0034,1.9852,1.9497,1.868,1.8226,1.8226,1.6982,1.6769,1.7362,1.6308,1.6074,1.6419,1.5681,1.5057,1.4573,1.4573,1.437,1.4088,1.4088,1.4088,1.413,1.4454,1.4573,1.4573,1.4573,1.4573,1.4434,1.3521,1.3213,1.31,1.2485,1.2452,1.261,1.2365,1.2452,1.2603,1.2358,1.1768,1.1236,1.1236,1.072,1.0383,1.1087,1.1236,1.1236,1.1236,1.085,1.0274,0.9533,0.9059,0.8769,0.8769,0.8429,0.8163,0.8163,0.7636,0.7259,0.7163,0.6027,0.5227,0.512,0.5117,0.5117,0.5117,0.5117,0.5117,0.5117,0.5117,0.5117,0.5117,0.5117,0.5117,0.5117,0.5117,0.5117,0.5117,0.5117,0.5117,3.2855,3.2728,3.2607,3.1618,2.9427,2.7485,2.7485,2.6644,2.5813,2.5813,2.792,2.9792,2.9792,2.9792,2.9792,2.9792,2.9792,2.9328,2.7912,2.7688,2.7047,2.5303,2.5125,2.5116,2.5125,2.4678,2.4248,2.3828,2.3389,2.3101,2.3091,2.3091,2.2536,2.1337,2.1293,2.0711,1.9488,1.9497,1.9497,1.9488,1.8991,1.863,1.8364,1.7968,1.7606,1.7302,1.7261,1.669,1.5696,1.5696,1.5054,1.4088,1.4088,1.4088,1.4208,1.5296,1.5696,1.5696,1.5696,1.5696,1.5393,1.3747,1.3213,1.31,1.2485,1.2305,1.2305,1.2305,1.2305,1.2305,1.2305,1.2298,1.2261,1.2261,1.2268,1.2268,1.2261,1.2261,1.2261,1.2261,1.1788,1.1389,1.1354,1.0942,1.0561,1.0561,0.9849,0.9268,0.9268,0.8358,0.7588,0.7339,0.7155,0.6936,0.6603,0.6588,0.6588,0.6588,0.6588,0.6588,0.6588,0.6588,0.6588,0.6588,0.6588,0.6588,0.6588,0.6588,0.6588,0.6588,0.6588,0.6588,3.2032,3.229,3.2384,3.0159,2.8819,2.8116,2.8333,2.7659,2.7274,2.8334,2.9215,2.9792,2.9792,2.9792,2.9792,2.9792,2.9792,2.9495,2.8567,2.8482,2.7931,2.6377,2.5799,2.5293,2.4678,2.4502,2.4121,2.3398,2.3169,2.3091,2.3091,2.3091,2.2906,2.2536,2.2269,2.1944,2.1544,2.0418,1.9835,1.9835,1.8648,1.8456,1.9042,1.7961,1.7816,1.843,1.7626,1.709,1.6805,1.6805,1.6601,1.6281,1.6281,1.6281,1.6322,1.6683,1.6805,1.6805,1.6805,1.6805,1.6604,1.5584,1.5242,1.5118,1.4473,1.3339,1.2305,1.2305,1.2769,1.3091,1.2482,1.2776,1.3098,1.2445,1.2305,1.2305,1.2305,1.2305,1.2305,1.2305,1.1824,1.1389,1.1389,1.0949,1.0593,1.0593,1.0364,1.0174,1.0174,0.9693,0.9297,0.9216,0.8802,0.8005,0.6717,0.6588,0.6588,0.6588,0.6588,0.6588,0.6588,0.6588,0.6588,0.6588,0.6588,0.6588,0.6588,0.6588,0.6588,0.6588,0.6588,0.6588,3.1384,3.1626,3.169,2.9938,2.8875,2.8411,2.8762,2.8152,2.7801,2.8917,2.9495,2.9792,2.9792,2.9456,2.9314,2.9714,2.9443,2.908,2.885,2.9213,2.8838,2.7066,2.6294,2.5388,2.4023,2.4082,2.3896,2.3149,2.3091,2.3091,2.3091,2.3091,2.3023,2.2867,2.2646,2.251,2.251,2.1287,2.0736,2.0685,1.9617,1.9429,2.0033,1.9008,1.8948,1.9559,1.8868,1.831,0.0,1.7948,1.7706,1.7302,1.7302,1.7302,1.7342,1.7779,1.7948,1.7948,1.7948,1.7948,1.774,1.6583,1.6046,1.5741,1.5331,1.4343,1.3375,1.3375,1.381,1.4135,1.3557,1.3846,1.4135,1.352,1.3091,1.2842,1.2842,1.2556,1.2305,1.2305,1.1917,1.1557,1.1409,1.1035,1.0809,1.1035,1.1045,1.117,1.1483,1.1062,1.0679,1.0567,1.0077,0.9182,0.7691,0.748,0.7423,0.7423,0.7423,0.7423,0.7423,0.7423,0.7423,0.7423,0.7423,0.7423,0.7423,0.7423,0.7423,0.7423,0.7423,0.7423,0.0,3.083,3.0557,3.0557,2.9487,2.8479,2.8877,2.8283,0.0,2.816,2.9067,2.9792,2.9792,2.8858,2.8466,2.9624,2.8858,2.8314,2.892,2.9826,2.963,2.7575,2.6838,2.5646,2.3602,2.3757,2.3816,2.3251,2.3222,2.3178,2.3091,2.3091,2.2906,2.2519,2.248,2.2451,2.2422,2.2002,2.1797,2.1787,2.1377,2.1142,2.1132,2.0752,2.0605,2.0605,2.0605,2.004,1.9116,1.9116,1.847,1.7536,1.7511,1.752,1.7658,1.8656,1.907,1.9107,1.9052,1.9052,1.8777,1.6962,1.5945,1.5411,1.5411,1.5305,1.5199,1.5199,1.5234,1.5269,1.5234,1.5234,1.5269,1.5234,1.4486,1.3818,1.3818,1.3127,1.2519,1.2519,1.226,1.1954,1.1641,1.1329,1.1309,1.1817,1.1888,1.2174,1.2917,1.2358,1.1775,1.1458,1.1083,1.0449,0.948,0.9112,0.8936,0.8883,0.891,0.8936,0.8936,0.8936,0.8936,0.8936,0.8936,0.8936,0.8936,0.8936,0.8936,0.8936,0.8936,0.8936,3.0279,0.0,2.9993,2.9993,2.9724,2.9481,0.0,2.9404,0.0,0.0,0.0,2.9792,2.9792,2.8858,2.8466,2.9624,2.8858,2.8567,3.0016,3.0314,3.0221,2.9686,2.8689,2.758,2.627,2.6281,2.5808,2.4498,2.4414,2.4006,2.3135,2.3091,2.2906,2.2519,2.2197,2.1875,2.1492,2.1094,2.0918,2.0918,2.0811,2.0723,2.0723,2.0654,2.0605,2.0605,2.0605,2.044,2.0206,2.0206,2.0079,1.9806,1.9438,1.9513,1.9798,1.9363,1.9649,2.011,1.9467,1.9448,1.9497,1.8392,1.7699,1.7329,1.7329,1.6332,1.5199,1.5199,1.572,1.6114,1.5376,1.572,1.6079,1.5376,1.5021,1.4843,1.4843,1.4665,1.4522,1.4522,1.3989,1.3548,1.3469,1.2948,1.2576,1.2712,1.2734,1.2795,1.2978,1.2826,1.2702,1.2613,1.2319,1.1906,1.1304,1.0685,1.0115,0.9588,1.0038,1.0346,1.0346,1.0346,1.0346,1.0346,1.0346,1.0346,1.0346,1.0346,1.0346,1.0346,1.0346,1.0346,3.123,3.047,2.9792,2.9792,2.9792,2.9792,2.9792,0.0,0.0,0.0,0.0,2.9792,2.9792,2.9053,2.8755,2.9661,2.9272,2.9475,3.1098,3.1062,3.0701,3.0179,2.9301,2.8251,2.6931,2.6822,2.6459,2.5652,2.5588,2.5083,2.392,2.4392,2.4125,2.2896,2.2736,2.217,2.12,2.0791,2.0605,2.0605,2.0605,2.0605,2.0605,2.0605,2.0605,2.0605,2.0605,2.0605,2.0605,2.0605,2.0605,2.0556,2.0088,2.0185,2.0498,1.9637,1.9707,2.0166,1.9512,1.9307,1.9212,1.8754,1.8315,1.8008,1.8008,1.7295,1.6472,1.6472,1.6862,1.7139,1.662,1.6725,1.6881,1.6575,1.5982,1.5584,1.5791,1.5517,1.5199,1.5199,1.4884,1.4512,1.4173,1.376,1.3603,1.3838,1.3873,1.4027,1.4362,1.4088,1.3804,1.3563,1.3248,1.2823,1.226,1.2113,1.154,1.032,1.0593,1.0788,1.0788,1.0788,1.0788,1.0788,1.0788,1.0788,1.0788,1.0788,1.0788,1.0788,1.0788,1.0788,3.2629,3.1505,3.0318,3.0062,2.9895,2.9792,2.9792,0.0,0.0,0.0,0.0,0.0,3.0125,2.9392,2.9088,3.002,3.0105,3.0554,3.2001,3.1813,3.1145,3.0163,2.9503,2.8597,2.7144,2.7017,2.6935,2.676,2.6719,2.6254,2.5126,2.5898,2.5488,2.3623,2.3578,2.295,2.1551,2.1055,2.0905,2.1049,2.0905,2.0828,2.0828,2.0673,2.0605,2.0605,2.0605,2.0605,2.0605,2.0605,2.0605,2.0556,2.0088,2.0137,2.04,1.9502,1.9453,1.9756,1.9336,1.8906,1.851,1.851,1.8266,1.7998,1.7939,1.7959,1.7998,1.793,1.7959,1.8008,1.8008,1.7744,1.7568,1.793,1.709,1.633,1.6736,1.6184,1.5623,1.5623,1.558,1.5316,1.4636,1.4484,1.4616,1.5027,1.5142,1.5417,1.6004,1.5496,1.49,1.4437,1.409,1.3613,1.3003,1.3403,1.3009,1.1413,1.1184,1.1124,1.1124,1.1124,1.1124,1.1124,1.1124,1.1124,1.1124,1.1124,1.1124,1.1124,1.1124,1.1124,3.282,3.2799,3.2707,3.1349,3.0381,2.9792,2.9792,0.0,0.0,0.0,0.0,0.0,0.0,2.9847,2.9001,3.146,3.1467,3.141,3.2085,3.2139,3.1872,3.1231,3.0667,3.0052,2.9349,2.9287,2.891,2.7936,2.7844,2.736,2.6307,2.5935,2.5416,2.477,2.4321,2.3802,2.3156,2.2258,2.2215,2.3036,2.2178,2.1773,2.1773,2.0972,2.0605,2.0605,2.0605,2.0605,2.0605,2.0605,2.0605,2.0556,2.0088,1.9951,1.9912,1.9017,1.9014,1.9316,1.8887,1.8432,1.8105,1.8105,1.8057,1.7939,1.7588,1.7725,1.7939,1.7578,1.7734,1.8008,1.8008,1.7959,1.793,1.7998,1.7813,1.7707,1.7774,1.7691,1.7579,1.7579,1.7302,1.6901,1.6383,1.6297,1.6217,1.594,1.6191,1.636,1.6144,1.5994,1.5738,1.5274,1.5177,1.4936,1.4496,1.4547,1.4313,1.3637,1.295,1.2569,1.2569,1.2569,1.2569,1.2569,1.2569,1.2569,1.2569,1.2569,1.2569,1.2569,1.2569,1.2569,3.4259,3.4002,3.3628,3.2889,3.2535,3.214,3.1189,0.0,0.0,0.0,0.0,0.0,0.0,3.172,3.1906,3.3726,3.254,3.1486,3.1738,3.1524,3.1148,3.0595,3.0319,3.0068,2.9817,2.9792,2.9573,2.9067,2.8707,2.8044,2.6994,2.6948,2.6467,2.5347,2.5168,2.5091,2.5099,2.4108,2.3599,2.3478,2.3036,2.2813,2.2813,2.2376,2.1859,2.1375,2.1375,2.1088,2.0605,2.0605,2.0895,2.1296,2.0886,2.118,2.1718,2.079,2.0239,1.9965,1.9754,1.9577,1.9398,1.9398,1.9398,1.9313,1.8849,1.9039,1.9303,1.8807,1.8342,1.7959,1.7734,1.75,1.735,1.7617,1.749,1.7418,1.791,1.8008,1.8008,1.8008,1.7852,1.7588,1.7158,1.708,1.7012,1.6838,1.6953,1.6924,1.6484,1.6426,1.6162,1.5459,1.541,1.5505,1.5695,1.5507,1.4945,1.3838,1.3437,1.3125,1.2915,1.2905,1.2905,1.2905,1.2905,1.2905,1.2905,1.3224,1.3214,1.2905,1.3238,1.3396,3.531,3.4938,3.4549,3.439,3.4236,3.3849,3.2847,0.0,0.0,0.0,0.0,0.0,3.2492,3.3495,3.43,3.4853,3.2952,3.1436,3.1562,3.1022,3.0457,3.0043,2.988,2.9792,2.9792,2.9792,2.9792,2.9792,2.9377,2.8759,2.7915,2.8002,2.7519,2.6225,2.6033,2.6125,2.6499,2.5734,2.4957,2.4217,2.3963,2.3854,2.3854,2.3599,2.3073,2.2366,2.2366,2.1924,2.127,2.127,2.1707,2.2334,2.2019,2.2393,2.303,2.2192,2.133,2.059,2.059,2.059,2.059,2.059,2.0501,2.0312,1.9943,2.001,2.0145,1.9845,1.8998,1.822,1.8155,1.7791,1.7536,1.8023,1.778,1.7637,1.8458,1.863,1.8556,1.8455,1.8402,1.823,1.7686,1.7686,1.7716,1.7616,1.7809,1.7738,1.7152,1.7172,1.6921,1.6012,1.5911,1.614,1.6708,1.6479,1.5727,1.4399,1.4104,1.3816,1.3531,1.3395,1.332,1.332,1.332,1.332,1.331,1.3779,1.3779,1.3344,1.3813,1.4003,3.4726,3.5427,3.6153,3.5556,3.4045,0.0,3.4163,3.3187,0.0,3.3542,0.0,0.0,3.3881,3.4303,3.4083,3.3146,3.2113,3.1574,3.2077,3.126,3.0608,3.0557,3.0105,2.9792,2.9792,2.9792,2.9792,2.9792,2.9754,2.969,2.96,2.865,2.8048,2.7925,2.6972,2.6468,2.6499,2.6418,2.6349,2.6267,2.5335,2.4898,2.4862,2.3927,2.3441,2.3404,2.3404,2.3331,2.3294,2.3294,2.3331,2.3404,2.3371,2.2849,2.2046,2.1599,2.1071,2.059,2.059,2.059,2.059,2.059,2.0202,1.978,1.9882,1.9488,1.914,1.9717,1.9374,1.9069,2.0109,1.9944,1.9616,2.0231,1.9976,1.9734,2.0287,2.0398,2.0264,1.9778,1.9616,1.9276,1.839,1.853,1.8673,1.8291,1.8986,1.9218,1.8291,1.8626,1.8555,1.754,1.744,1.7457,1.7523,1.749,1.7272,1.6796,1.5867,1.5354,1.5309,1.4828,1.456,1.456,1.456,1.456,1.456,1.4606,1.4606,1.456,1.4606,1.4629,3.5766,3.5847,3.5934,3.6115,0.0,0.0,0.0,3.5498,3.535,3.4448,3.4374,0.0,3.5822,3.5625,3.5337,3.5278,3.359,3.2211,3.2109,3.1233,3.0495,3.0143,2.9917,2.9792,2.9792,2.9792,2.9792,2.9792,2.9453,2.9101,2.8762,2.8009,2.7444,2.7128,2.6713,2.6499,2.6499,2.6499,2.6499,2.6499,2.6094,2.5921,2.5908,2.5534,2.5028,2.4409,2.4409,2.4072,2.3514,2.3514,2.3854,2.448,2.5134,2.4707,2.371,2.3562,2.2935,2.2144,2.2144,2.2144,2.2144,2.2144,2.1783,2.132,2.1379,2.1205,2.0995,2.0921,2.1193,2.123,2.0003,1.9496,1.9287,1.9175,1.9507,1.9907,2.0066,2.0378,2.0534,2.0355,2.0279,2.0156,1.9787,1.9876,1.9789,1.9268,1.9513,1.9401,1.842,1.8483,1.8337,1.7673,1.8004,1.8274,1.8274,1.8688,1.8907,1.8766,1.6968,1.5982,1.6056,1.5498,1.5204,1.5204,1.5567,1.5397,1.4698,1.5418,1.5383,1.4698,1.5073,1.5253,3.6578,3.6445,3.6337,0.0,0.0,0.0,3.6655,3.6968,3.6928,3.5977,3.6031,3.633,3.6603,3.6086,3.5712,3.6129,3.4389,3.2858,3.2495,3.1753,3.1111,3.0723,3.0419,3.0355,3.0671,3.0152,2.9934,3.0203,2.9593,2.895,2.8398,2.7846,2.7329,2.6776,2.6587,2.6499,2.6499,2.6499,2.6499,2.6499,2.6499,2.6499,2.6499,2.6499,2.6129,2.5476,2.5476,2.5063,2.4433,2.4433,2.485,2.5546,2.6245,2.5787,2.4788,2.4788,2.4073,2.3108,2.3108,2.3108,2.3108,2.3108,2.2732,2.2309,2.2309,2.2184,2.2008,2.1807,2.2171,2.2208,2.0529,1.9965,1.9767,1.939,1.9744,2.0175,2.0319,2.0749,2.1094,2.09,2.1036,2.1047,2.0691,2.0761,2.0691,2.0109,2.0347,2.0284,1.9413,1.9465,1.9314,1.8655,1.8875,1.9044,1.9044,1.9501,1.9798,1.9798,1.8096,1.7132,1.7218,1.6665,1.636,1.636,1.6771,1.6572,1.5811,1.6584,1.6488,1.5566,1.5974,1.6078,3.6982,3.729,3.7793,0.0,0.0,0.0,3.8494,3.7227,3.6489,3.8414,3.7253,3.5906,3.5906,3.5353,3.4901,3.4901,3.4062,3.3418,3.3418,3.2944,3.2593,3.2593,3.1779,3.1573,3.25,3.0921,3.0216,3.1143,3.0343,2.9528,2.895,2.8398,2.7846,2.7329,2.6788,2.6499,2.6499,2.6499,2.6499,2.6499,2.6499,2.6499,2.6499,2.6499,2.6499,2.6499,2.6499,2.6499,2.6499,2.6499,2.6499,2.6499,2.6499,2.5787,2.4788,2.4788,2.4073,2.3108,2.3108,2.3108,2.3108,2.3108,2.2732,2.2309,2.2322,2.1933,2.1606,2.2159,2.192,2.1631,2.2171,2.1895,2.1493,2.1493,2.1106,2.0867,2.138,2.1933,2.2159,2.1606,2.1945,2.197,2.0905,2.1169,2.1345,2.0792,2.1606,2.2121,2.1556,2.197,2.1882,2.0805,2.0176,1.9811,1.9798,1.9798,1.9824,1.9798,1.9321,1.9008,1.9008,1.8505,1.8216,1.8216,1.824,1.824,1.8204,1.8204,1.7928,1.741,1.741,1.7096,3.8193,3.8028,3.7921,3.8442,0.0,0.0,0.0,3.8629,0.0,0.0,3.7686,3.6458,3.6902,3.6054,3.533,3.533,3.4466,3.3837,3.3837,3.3108,3.2593,3.2593,3.2357,3.2285,3.2558,3.2119,3.1865,3.2177,3.1474,3.0574,2.9363,2.8707,2.7884,2.6751,2.6575,2.6499,2.6499,2.6499,2.6499,2.6499,2.6499,2.6499,2.6499,2.6499,2.6499,2.6499,2.6499,2.6499,2.6499,2.6499,2.6499,2.6499,2.6499,2.5787,2.4788,2.4788,2.4073,2.3108,2.3108,2.3108,2.3108,2.3108,2.2732,2.2355,2.2744,2.2481,2.2096,2.2272,2.2443,2.2481,2.1895,2.1895,2.197,2.1581,2.1958,2.2347,2.2121,2.2468,2.2807,2.2656,2.2744,2.2757,2.2431,2.2506,2.2431,2.1907,2.2108,2.2121,2.1556,2.1631,2.1455,2.0767,2.0912,2.0733,1.9888,2.0607,2.0953,2.0522,2.0758,2.0494,1.9598,1.9498,1.9465,1.9465,2.0247,2.0057,1.8826,1.9256,1.8943,1.7976,1.8387,1.8278,3.9262,3.9049,3.8898,3.9628,3.9809,3.9829,3.9937,0.0,3.9605,3.9927,3.8629,3.7441,3.7463,3.6609,3.5831,3.5569,3.4986,3.461,3.461,3.4109,3.3754,3.3754,3.3394,3.3212,3.3363,3.2667,3.2256,3.2386,3.1647,3.0747,2.9672,2.9228,2.8538,2.753,2.7484,2.7484,2.7484,2.7162,2.6973,2.6973,2.6973,2.6973,2.6973,2.6658,2.6499,2.6499,2.6499,2.6499,2.6499,2.6499,2.6361,2.6147,2.6147,2.5448,2.4494,2.4494,2.3885,2.3108,2.3108,2.3108,2.3108,2.3108,2.2882,2.2631,2.2744,2.2706,2.2556,2.2372,2.2904,2.3449,2.2786,2.3078,2.3186,2.1825,2.1995,2.2385,2.2058,2.2393,2.2782,2.2782,2.2957,2.3032,2.2819,2.2957,2.292,2.2397,2.2747,2.2962,2.2657,2.2667,2.2467,2.1904,2.1954,2.1631,2.0635,2.1256,2.1544,2.1186,2.1496,2.1363,2.0582,2.062,2.0685,2.0685,2.1366,2.1174,2.0119,2.0496,2.0201,1.9284,1.9649,1.9508,4.0254,4.0255,4.0425,4.101,4.1205,4.1047,4.0431,4.0619,4.0875,4.075,3.9697,3.8593,3.7842,3.7157,3.6477,3.5814,3.5651,3.5587,3.5587,3.5477,3.5415,3.5415,3.4545,3.4086,3.4379,3.2792,3.1901,3.2184,3.1321,3.0547,2.996,2.9877,2.9601,2.9016,2.9002,2.9002,2.9002,2.8214,2.7835,2.7835,2.7835,2.7808,2.769,2.6947,2.6555,2.6499,2.6499,2.6499,2.6499,2.6436,2.6097,2.5586,2.5548,2.4895,2.4004,2.4004,2.364,2.3108,2.3185,2.3215,2.3215,2.3305,2.3305,2.3217,2.274,2.293,2.3191,2.2714,2.3453,2.4408,2.4408,2.4908,2.4818,2.2407,2.1855,2.1855,2.1855,2.2192,2.2501,2.2575,2.2934,2.3094,2.2635,2.3006,2.3128,2.2651,2.3605,2.4408,2.4408,2.4517,2.4347,2.3741,2.3261,2.2637,2.1872,2.1912,2.1908,2.1805,2.1838,2.1862,2.1862,2.1828,2.1805,2.1805,2.1852,2.1852,2.1805,2.1805,2.1504,2.0969,2.1051,2.0762,4.1424,4.1551,4.1571,4.1088,4.1075,4.133,4.1711,4.1483,4.0774,3.9519,3.901,3.8743,3.8577,3.7991,3.7485,3.7324,3.6783,3.6353,3.6353,3.5425,3.4728,3.4728,3.406,3.3626,3.3724,3.3337,3.3107,3.3207,3.2519,3.1737,3.0942,3.0468,2.9831,2.9034,2.9002,2.9002,2.9002,2.8812,2.8716,2.8716,2.8716,2.8438,2.7939,2.759,2.7095,2.6499,2.6499,2.6499,2.6461,2.5996,2.5711,2.5548,2.5146,2.4582,2.4004,2.4004,2.364,2.3198,2.3826,2.4031,2.4147,2.4724,2.4922,2.4867,2.4773,2.4814,2.4895,2.4773,2.494,2.5147,2.5147,2.5287,2.5246,2.4681,2.4557,2.4557,2.4557,2.4201,2.4037,2.4621,2.4359,2.4182,2.4634,2.4841,2.4868,2.4746,2.4981,2.5147,2.5147,2.5191,2.4983,2.4361,2.4676,2.424,2.2613,2.3405,2.3549,2.2549,2.2928,2.3194,2.3194,2.2748,2.2475,2.2475,2.295,2.2972,2.2475,2.2475,2.216,2.154,2.2055,2.1969,4.181,4.1873,4.1943,4.1855,4.194,4.2096,4.2493,4.2009,4.1247,4.0409,3.9781,3.9308,3.891,3.8545,3.8218,3.7863,3.7141,3.6648,3.6584,3.5401,3.4501,3.449,3.3903,3.3365,3.3051,3.3021,3.2901,3.2587,3.2213,3.1663,3.0911,3.0866,3.0528,2.9734,3.0036,3.0208,3.0208,2.9827,2.9628,2.9628,2.9628,2.9428,2.9057,2.8216,2.7784,2.767,2.7263,2.7317,2.7644,2.6926,2.6505,2.6354,2.6064,2.5432,2.4682,2.4682,2.4484,2.4266,2.4681,2.4823,2.4908,2.5287,2.5398,2.5398,2.5398,2.5398,2.5398,2.5398,2.5646,2.5933,2.5933,2.6188,2.6455,2.6455,2.5905,2.5398,2.5398,2.5091,2.4922,2.5315,2.5091,2.4951,2.5315,2.5398,2.5398,2.5398,2.5701,2.5933,2.5933,2.6242,2.621,2.5563,2.581,2.5506,2.4202,2.469,2.467,2.3671,2.3896,2.3939,2.361,2.3312,2.312,2.312,2.4067,2.4082,2.312,2.3443,2.3271,2.2614,2.3231,2.3334,4.2085,4.2021,4.2111,4.2749,4.2793,4.2727,4.2727,4.2231,4.181,4.181,4.0961,4.0011,3.9204,3.8994,3.8667,3.795,3.7182,3.6681,3.6644,3.5408,3.4529,3.4516,3.3804,3.3141,3.2554,3.2391,3.2034,3.1376,3.1436,3.1152,3.0387,3.0957,3.1062,3.0522,3.1032,3.1331,3.1331,3.0778,3.0408,3.019,3.019,3.0306,3.0465,2.8955,2.8485,2.8774,2.7946,2.7988,2.8577,2.7798,2.7274,2.7012,2.6931,2.6282,2.5398,2.5398,2.5398,2.5425,2.5536,2.5591,2.5618,2.5728,2.5783,2.5783,2.5783,2.5783,2.5783,2.5783,2.6215,2.6695,2.6695,2.7137,2.76,2.76,2.6666,2.5783,2.5783,2.5673,2.5618,2.5755,2.5783,2.5783,2.5783,2.5783,2.5783,2.5783,2.631,2.6695,2.6695,2.7229,2.739,2.6811,2.6752,2.6497,2.5839,2.5858,2.5596,2.4814,2.4852,2.4669,2.4113,2.4185,2.4234,2.4255,2.504,2.4814,2.3595,2.4372,2.4386,2.3752,2.4287,2.4552,4.3267,4.294,4.262,4.2853,4.2426,4.1952,4.1952,4.1881,4.181,4.181,4.1268,4.0573,3.9824,3.9282,3.8756,3.801,3.7218,3.6698,3.6676,3.5476,3.46,3.4587,3.3474,3.2696,3.2604,3.2017,3.1361,3.0687,3.1167,3.0972,2.9786,3.0298,3.0597,3.0507,3.0597,3.0642,3.0642,3.1111,3.0785,2.9697,2.9697,3.0278,3.1306,2.9987,2.8915,2.8095,2.7393,2.716,2.7209,2.6626,2.6368,2.6278,2.5812,2.5536,2.5398,2.5398,2.5398,2.5481,2.6122,2.6336,2.6443,2.7111,2.7306,2.7306,2.7306,2.7306,2.7306,2.7306,2.7382,2.7458,2.7458,2.7524,2.76,2.76,2.7458,2.7306,2.7306,2.6785,2.6522,2.7188,2.7306,2.7306,2.7306,2.7306,2.7306,2.7306,2.7382,2.7458,2.7458,2.7549,2.757,2.748,2.7465,2.721,2.6512,2.6955,2.6734,2.5533,2.5839,2.6073,2.6118,2.6566,2.6824,2.6892,2.5457,2.435,2.3595,2.4734,2.4939,2.4307,2.4835,2.5105,4.3386,4.3339,4.316,4.3225,4.3006,4.2753,4.2753,4.2753,4.2753,4.2753,4.2286,4.1704,4.1029,4.0458,3.9832,3.9094,3.8075,3.722,3.6767,3.5486,3.4603,3.459,3.3742,3.3172,3.3172,3.2532,3.183,3.117,3.1001,3.0387,2.9101,2.9639,2.9819,2.9445,2.9804,2.9983,2.9983,3.0627,3.0672,3.0103,3.0103,3.0402,3.0913,3.0357,2.986,2.9319,2.8223,2.8011,2.841,2.7669,2.7442,2.7514,2.7294,2.6946,2.6613,2.6613,2.6613,2.6666,2.7008,2.7126,2.7178,2.7484,2.76,2.76,2.76,2.76,2.76,2.76,2.76,2.76,2.76,2.76,2.76,2.76,2.76,2.76,2.76,2.7357,2.7214,2.7549,2.76,2.76,2.76,2.7914,2.8034,2.766,2.7929,2.8162,2.8113,2.8091,2.8222,2.8551,2.8614,2.849,2.8179,2.8402,2.8171,2.7228,2.7364,2.7332,2.7026,2.7237,2.7382,2.7387,2.7328,2.6573,2.5108,2.6021,2.5904,2.4871,2.5392,2.5652,4.3332,4.3515,4.3515,4.3515,4.3515,4.3515,4.3515,4.3515,4.3515,4.3515,4.3178,4.277,4.2324,4.1466,4.057,3.9666,3.8723,3.7777,3.6862,3.5826,3.5077,3.4876,3.426,3.3862,3.3862,3.3235,3.2507,3.1652,3.1097,3.0129,2.8667,2.9071,2.9101,2.8622,2.9086,2.9367,2.9367,2.9789,3.0178,3.0507,3.0342,3.0447,3.0746,3.0253,3.0118,3.0195,2.8918,2.8737,2.9283,2.8464,2.8194,2.8338,2.8338,2.8049,2.76,2.76,2.76,2.76,2.76,2.76,2.76,2.76,2.76,2.76,2.76,2.76,2.76,2.76,2.76,2.7645,2.7809,2.7854,2.7899,2.8064,2.8101,2.7996,2.7655,2.76,2.76,2.76,2.76,2.76,2.76,2.8147,2.8399,2.7911,2.8384,2.8796,2.874,2.8732,2.8896,2.9361,2.9406,2.9406,2.9406,2.954,2.9359,2.8698,2.8763,2.863,2.8174,2.8103,2.8168,2.8347,2.9176,2.8488,2.6298,2.7122,2.6776,2.5411,2.5943,2.6191,4.3496,4.3515,4.3515,4.3515,4.3515,4.3515,4.3515,4.3515,4.3515,4.3515,4.3479,4.3444,4.3427,4.1931,4.0285,3.8977,3.869,3.8227,3.6977,3.6732,3.6405,3.5644,3.4975,3.4552,3.4552,3.3937,3.3002,3.1705,3.1553,3.0676,2.8719,2.8637,2.8637,2.8607,2.8637,2.8652,2.8652,2.8682,2.9295,3.0492,2.9909,3.0283,3.1391,2.9549,2.9041,2.9621,2.8895,2.8626,2.8607,2.7908,2.7649,2.7645,2.7645,2.763,2.76,2.76,2.76,2.76,2.76,2.76,2.76,2.76,2.76,2.76,2.76,2.76,2.76,2.76,2.76,2.775,2.8368,2.8547,2.8712,2.9352,2.9448,2.9054,2.7846,2.76,2.76,2.76,2.76,2.76,2.76,2.8097,2.8486,2.8455,2.8974,2.9364,2.9339,2.9361,2.9361,2.9406,2.9406,2.9406,2.9406,2.9913,2.9983,2.9381,2.9777,3.0051,3.0161,3.0028,3.0285,3.0996,3.0386,2.8835,2.6298,2.7479,2.7336,2.5961,2.6436,2.6657,4.3368,4.3112,4.2837,4.3369,4.3112,4.2873,4.3386,4.3515,4.3515,4.3515,4.3515,4.3515,4.3515,4.2667,4.1644,4.0646,4.022,3.9536,3.8198,3.8023,3.7609,3.6519,3.6585,3.6326,3.5331,3.5069,3.4357,3.2991,3.2492,3.1539,2.9908,2.9805,2.9593,2.9123,2.9107,2.9133,2.9174,2.8374,2.8382,2.928,2.9056,2.9415,3.0253,2.9549,2.9579,3.0118,2.9056,2.8353,2.7944,2.7705,2.76,2.76,2.76,2.76,2.76,2.76,2.76,2.76,2.76,2.76,2.76,2.76,2.8182,2.8815,2.8311,2.8766,2.9359,2.8889,2.91,2.9516,2.9742,3.0174,3.0591,3.0842,3.0874,3.0718,3.0272,2.9791,2.9453,2.9453,2.8766,2.8295,2.8693,2.8964,2.9128,2.9098,2.963,3.0032,2.9979,3.0392,3.0636,3.0568,3.0975,3.1058,3.0609,3.074,3.0797,3.0559,3.0703,3.0842,3.0878,3.1277,3.141,3.119,3.1413,3.0359,2.804,2.7935,2.7407,2.6453,2.6624,2.6691,4.2959,4.2849,4.261,4.3316,4.3094,4.2837,4.3386,4.3515,4.3515,4.3515,4.3597,4.3629,4.3513,4.3302,4.2869,4.2048,4.1595,4.091,3.9553,3.919,3.8644,3.7553,3.7708,3.7516,3.6462,3.6195,3.5568,3.4383,3.3436,3.2329,3.0901,3.0628,3.0156,2.9422,2.9406,2.9425,2.9468,2.8863,2.8765,2.92,2.92,2.9567,3.0195,2.9735,2.9863,3.0413,2.9337,2.8505,2.7929,2.769,2.76,2.76,2.76,2.76,2.7625,2.7835,2.776,2.766,2.8052,2.8229,2.8257,2.8226,2.8969,2.9807,2.932,2.9784,3.0452,3.022,3.0477,3.0917,3.1157,3.1734,3.2264,3.2239,3.244,3.2609,3.2593,3.1695,3.0876,3.0876,3.0149,2.9683,3.0064,3.033,3.0473,3.0448,3.0991,3.1407,3.1357,3.1769,3.1951,3.161,3.2242,3.2256,3.1275,3.1647,3.1833,3.1562,3.1582,3.1664,3.1935,3.2175,3.2073,3.1562,3.1819,3.1092,2.9382,2.8586,2.7824,2.7063,2.681,2.6691,0.0,0.0,0.0,4.3339,4.3425,4.3424,4.3496,4.3513,4.3495,4.3531,4.3788,4.3927,4.3597,4.3804,4.3749,4.2884,4.2713,4.2269,4.0948,4.0237,3.9601,3.886,3.8294,3.7963,3.7929,3.7286,3.6538,3.5795,3.4473,3.3062,3.1622,3.0899,3.0186,2.9483,2.9429,2.9429,2.9429,3.0055,3.0384,3.0384,3.0384,3.0727,3.1326,2.9984,2.9767,3.0368,2.9687,2.9084,2.8554,2.792,2.7635,2.7635,2.7635,2.7635,2.771,2.8295,2.8165,2.782,2.8996,2.9485,2.9567,2.9448,2.9916,3.0523,3.0523,3.0546,3.0746,3.1437,3.167,3.1823,3.2505,3.3171,3.3634,3.3578,3.4105,3.4608,3.4565,3.304,3.1718,3.1702,3.1646,3.163,3.1646,3.2115,3.2496,3.2518,3.3014,3.3406,3.3406,3.3423,3.3152,3.2412,3.2983,3.2848,3.1376,3.2577,3.3085,3.2378,3.2327,3.2666,3.3372,3.2733,3.2364,3.2313,3.1636,3.0944,3.0163,2.9382,2.8602,2.7824,2.7114,2.6792,4.0978,0.0,0.0,0.0,0.0,0.0,4.3444,4.3401,4.3248,4.4125,4.4364,4.4406,4.4308,4.4378,4.4261,4.3733,4.344,4.3014,4.2253,4.2,4.1457,4.0291,4.0108,3.9669,3.8589,3.8427,3.7874,3.6589,3.6142,3.5031,3.2967,3.1683,3.0899,3.0699,3.0272,3.0059,3.0059,2.98,2.9671,2.9671,2.9671,3.0039,3.0648,2.9783,2.9767,3.0368,2.9687,2.9314,2.9163,2.8982,2.8904,2.8904,2.8904,2.8904,2.8927,2.9088,2.9042,2.895,2.9293,2.9421,2.9457,2.9425,3.0186,3.115,3.115,3.1814,3.2639,3.2839,3.3273,3.3862,3.4591,3.4918,3.5041,3.5025,3.5165,3.5334,3.5307,3.4869,3.4347,3.3812,3.291,3.2383,3.284,3.2691,3.2646,3.3096,3.3284,3.3406,3.3406,3.3863,3.3914,3.3169,3.3761,3.3812,3.2882,3.3169,3.3322,3.3102,3.3102,3.3186,3.3389,3.4093,3.395,3.2829,3.3466,3.3159,3.1829,2.9932,2.8891,2.8671,2.8768,2.8981,0.0,0.0,0.0,4.1481,0.0,0.0,4.3042,4.3378,4.3494,4.4196,4.4593,4.4776,4.4637,4.4707,4.4808,4.4768,4.4595,4.4126,4.316,4.2845,4.2416,4.1638,4.1382,4.0852,3.974,3.9462,3.8751,3.7354,3.6981,3.5949,3.3964,3.2459,3.1667,3.1667,3.1009,3.0679,3.0679,3.033,3.0145,3.0145,3.0145,3.0358,3.0729,3.0341,3.0374,3.0713,3.0325,3.0145,3.0145,3.0145,2.9848,2.9406,2.9406,2.9406,2.9429,2.9673,2.9607,2.9473,2.9995,3.0392,3.0644,3.0277,3.1108,3.2233,3.2233,3.2782,3.3541,3.4129,3.4641,3.5064,3.5481,3.56,3.56,3.56,3.56,3.56,3.56,3.56,3.5464,3.5047,3.4326,3.3913,3.4255,3.404,3.3913,3.4255,3.4315,3.4315,3.4315,3.4692,3.4675,3.3947,3.4523,3.4539,3.3491,3.3964,3.4201,3.388,3.4078,3.4322,3.4647,3.5265,3.5171,3.4279,3.494,3.4535,3.2995,3.0976,2.9834,2.9557,2.9788,3.0043,0.0,0.0,0.0,3.9853,4.0593,0.0,4.2269,4.3021,4.3561,4.3744,4.4342,4.4752,4.4556,4.4798,4.5167,4.5653,4.581,4.5397,4.4079,4.3451,4.3118,4.3118,4.2483,4.1809,4.13,4.044,3.9434,3.8201,3.7208,3.6062,3.4692,3.3156,3.2293,3.2293,3.1562,3.119,3.119,3.119,3.119,3.119,3.119,3.119,3.119,3.119,3.119,3.119,3.119,3.119,3.119,3.119,3.0559,2.9607,2.9607,2.9607,2.9673,3.029,3.0195,2.9891,3.1039,3.1947,3.2475,3.1688,3.2324,3.3423,3.3508,3.3525,3.3812,3.5211,3.56,3.56,3.56,3.56,3.56,3.56,3.56,3.56,3.56,3.56,3.56,3.56,3.56,3.56,3.56,3.56,3.56,3.56,3.56,3.56,3.56,3.56,3.5374,3.4762,3.5304,3.5174,3.3934,3.5018,3.5494,3.4836,3.5249,3.5806,3.6464,3.6314,3.6167,3.6078,3.6061,3.5313,3.3836,3.2278,3.1215,3.0617,3.0617,3.0647,3.418,3.5985,3.7846,3.7351,3.7745,0.0,4.073,4.0787,4.0841,4.2194,4.28,4.3276,4.392,4.4269,4.4624,4.5159,4.578,4.6251,4.6389,4.6035,4.5745,4.5762,4.4418,4.3434,4.3335,4.1719,4.0337,3.9497,3.7206,3.5684,3.5397,3.3406,3.2293,3.2293,3.1562,3.119,3.119,3.119,3.119,3.119,3.119,3.119,3.119,3.119,3.119,3.119,3.119,3.119,3.119,3.119,3.1055,3.0858,3.0858,3.0858,3.0925,3.1651,3.1832,3.1854,3.2684,3.3069,3.3191,3.3026,3.3169,3.3508,3.41,3.4286,3.4472,3.5346,3.56,3.56,3.56,3.56,3.56,3.56,3.56,3.56,3.56,3.56,3.56,3.56,3.56,3.56,3.56,3.56,3.56,3.56,3.56,3.56,3.56,3.56,3.5693,3.5996,3.6159,3.6315,3.6443,3.6708,3.6831,3.6693,3.6772,3.6881,3.7039,3.7363,3.7216,3.6587,3.6352,3.5739,3.4754,3.3089,3.241,3.264,3.264,3.2803,3.2321,3.3588,3.4781,3.4683,3.5751,0.0,0.0,3.8974,3.9644,4.0848,4.1291,4.1694,4.2497,4.3454,4.4327,4.4987,4.5931,4.6833,4.7506,4.714,4.6735,4.652,4.5739,4.4858,4.3981,4.2986,4.1666,3.9926,3.7564,3.6197,3.6197,3.4404,3.3241,3.2848,3.2121,3.1582,3.119,3.119,3.119,3.119,3.119,3.119,3.119,3.119,3.119,3.119,3.119,3.119,3.119,3.119,3.119,3.119,3.119,3.119,3.1241,3.1633,3.1989,3.2344,3.2713,3.3322,3.3897,3.3525,3.366,3.4015,3.4387,3.4759,3.5131,3.5498,3.56,3.56,3.56,3.56,3.56,3.56,3.56,3.56,3.56,3.56,3.5672,3.5941,3.6006,3.592,3.5644,3.56,3.56,3.56,3.5832,3.6006,3.6006,3.6228,3.6501,3.6764,3.6803,3.6921,3.719,3.7209,3.7209,3.7209,3.7415,3.7542,3.7542,3.8032,3.8118,3.7701,3.7171,3.667,3.6248,3.4555,3.3668,3.3508,3.3508,3.3606,3.0835,3.1316,3.1589,3.2113,3.3689,3.5229,0.0,0.0,0.0,3.9046,3.9367,3.979,4.0732,4.2278,4.3623,4.4281,4.5741,4.6954,4.7444,4.7388,4.714,4.6727,4.6513,4.5776,4.4289,4.3859,4.2634,4.0202,3.8225,3.7137,3.7015,3.5402,3.4218,3.3643,3.2767,3.209,3.163,3.1326,3.1258,3.1413,3.1258,3.119,3.119,3.119,3.119,3.119,3.119,3.119,3.119,3.119,3.119,3.119,3.119,3.119,3.1207,3.136,3.1887,3.253,3.2666,3.3613,3.4607,3.4032,3.4235,3.4709,3.4709,3.5131,3.56,3.56,3.56,3.5605,3.5717,3.5761,3.5783,3.5876,3.592,3.592,3.592,3.592,3.6032,3.6478,3.6542,3.6416,3.5968,3.592,3.592,3.592,3.627,3.6542,3.6542,3.6941,3.7229,3.7323,3.7323,3.7396,3.7487,3.7487,3.7541,3.772,3.7933,3.8119,3.8282,3.8538,3.8707,3.8707,3.8046,3.7658,3.7492,3.5991,3.4821,3.4027,3.3862,3.3807,2.8875,2.955,3.0232,2.9941,3.0746,3.1978,3.3406,0.0,3.4498,3.5841,0.0,3.7163,3.8799,0.0,0.0,4.1798,4.4376,4.6154,4.5526,4.6914,4.7843,4.7424,4.6497,4.5669,4.5117,4.3707,4.2257,4.0874,3.9356,3.8276,3.7794,3.569,3.4455,3.437,3.3038,3.2581,3.3152,3.185,3.1532,3.2175,3.1495,3.119,3.119,3.119,3.119,3.119,3.119,3.119,3.119,3.119,3.119,3.119,3.119,3.119,3.1275,3.1938,3.2649,3.3372,3.4015,3.4793,3.5447,3.538,3.5397,3.5481,3.5481,3.5532,3.56,3.56,3.56,3.5717,3.6182,3.6291,3.6437,3.6921,3.702,3.702,3.702,3.702,3.7057,3.7114,3.7097,3.7078,3.702,3.702,3.702,3.702,3.7058,3.7097,3.7097,3.7154,3.736,3.7772,3.7825,3.8015,3.8499,3.853,3.8823,3.9552,3.898,3.8923,3.9635,3.9043,3.8707,3.8707,3.8615,3.8212,3.7492,3.6578,3.5716,3.4857,3.4137,3.3807,2.7738,2.8127,2.8499,2.864,2.9688,3.0828,3.1501,3.2052,3.2828,3.4415,0.0,0.0,0.0,0.0,0.0,0.0,4.317,4.4682,4.4386,4.5509,4.6638,4.7411,4.7079,4.6382,4.5292,4.3858,4.2682,4.2,4.0337,3.9047,3.8385,3.6763,3.5424,3.4523,3.3897,3.3305,3.2763,3.2158,3.1785,3.1667,3.1343,3.119,3.119,3.119,3.119,3.119,3.119,3.119,3.119,3.119,3.119,3.119,3.119,3.119,3.1275,3.2039,3.2763,3.3508,3.4235,3.4979,3.56,3.56,3.5295,3.5047,3.5464,3.56,3.565,3.5985,3.6054,3.6203,3.6724,3.6845,3.6921,3.7152,3.7546,3.7901,3.7901,3.7901,3.8102,3.8848,3.8617,3.8546,3.9335,3.8204,3.7209,3.7209,3.7433,3.7614,3.7614,3.7878,3.8152,3.835,3.8366,3.8465,3.8692,3.8707,3.8836,3.9184,3.8891,3.8854,3.9184,3.8891,3.8707,3.8707,3.8707,3.8524,3.8193,3.7544,3.7044,3.6655,3.517,3.478,2.7192,2.7139,2.6992,2.7708,2.8705,2.9581,2.9738,3.0325,3.1299,3.2796,3.3204,0.0,0.0,0.0,3.9438,3.9833,0.0,4.3079,4.3271,4.4204,4.5297,4.6489,4.6759,4.6366,4.5155,4.4056,4.3225,4.2732,4.1189,3.9804,3.8751,3.7641,3.6349,3.4844,3.4607,3.4066,3.3203,3.2598,3.2141,3.1799,3.1376,3.119,3.119,3.119,3.119,3.119,3.119,3.119,3.119,3.119,3.119,3.1207,3.141,3.1596,3.1781,3.2167,3.2882,3.3778,3.4303,3.4979,3.56,3.56,3.525,3.4912,3.543,3.5694,3.5898,3.6287,3.6498,3.6744,3.7267,3.7396,3.7415,3.7578,3.8222,3.8814,3.8814,3.8993,3.9408,4.0347,4.0037,3.9958,4.0936,3.9531,3.8258,3.8258,3.8562,3.8768,3.8768,3.8921,3.9038,3.9038,3.8836,3.8707,3.8707,3.8707,3.8799,3.9019,3.9239,3.9258,3.9038,3.9239,3.9258,3.9038,3.9038,3.9065,3.915,3.8307,3.8064,3.8321,3.6476,3.5938,2.7307,2.6675,2.5912,2.7065,2.7354,2.7553,2.8045,2.8623,2.9287,3.0326,3.1237,3.2338,3.388,3.6036,3.7584,3.76,3.966,0.0,0.0,4.331,4.4272,4.439,4.4852,4.503,4.4662,4.4237,4.3619,4.277,4.1917,4.0651,3.8816,3.7983,3.696,3.5605,3.4878,3.481,3.5481,3.3355,3.2666,3.3322,3.1884,3.119,3.119,3.119,3.119,3.119,3.119,3.119,3.119,3.119,3.119,3.1258,3.1989,3.2581,3.2968,3.2497,3.3224,3.4455,3.4489,3.4979,3.56,3.56,3.5583,3.5566,3.5583,3.5963,3.6374,3.6412,3.6764,3.7285,3.7755,3.7876,3.8015,3.853,3.9282,3.985,3.985,4.0457,4.1026,4.1079,4.1042,4.1042,4.1095,4.1024,4.0971,4.0971,4.1005,4.1005,4.1005,4.0325,3.9845,3.9845,3.9166,3.8707,3.8707,3.8707,3.9038,3.9808,4.0598,4.0655,3.9882,4.0616,4.0671,3.9879,3.9845,3.9991,4.0249,3.867,3.8459,3.9512,3.7885,3.7141,2.665,2.6574,2.6386,2.714,2.7281,2.7431,2.7984,2.8247,2.8768,3.0102,3.0636,3.153,3.3623,3.5116,3.6479,3.7979,3.9383,4.0661,0.0,4.309,4.4228,4.5051,4.5111,4.4966,4.4618,4.4233,4.3802,4.3286,4.2648,4.1416,3.9403,3.867,3.7499,3.5656,3.5346,3.5115,3.4878,3.4117,3.3643,3.3389,3.2391,3.1938,3.1921,3.141,3.119,3.119,3.119,3.119,3.1241,3.1735,3.1938,3.2046,3.312,3.396,3.4532,3.4352,3.4785,3.5566,3.609,3.6107,3.5948,3.6489,3.6297,3.5966,3.6489,3.6803,3.6981,3.7323,3.7506,3.7772,3.8283,3.8433,3.8608,3.9318,4.0102,4.0689,4.0689,4.1332,4.1901,4.1901,4.1901,4.2066,4.2598,4.269,4.2323,4.126,4.1095,4.1095,4.1095,4.0396,3.99,3.99,3.9184,3.8707,3.8707,3.8707,3.9038,3.9845,4.0157,4.0414,4.0689,4.0948,4.1075,4.103,4.0463,4.0333,4.0697,3.9789,3.9553,3.9913,3.9556,3.9176,2.5757,2.6047,2.6273,2.659,2.6992,2.7369,2.7733,2.7959,2.838,2.938,3.0013,3.0891,3.2565,3.392,3.5388,3.723,3.8166,3.9362,0.0,4.2767,4.4007,4.5105,4.515,4.4966,4.4618,4.4233,4.3865,4.3531,4.3178,4.2065,3.9954,3.9312,3.8065,3.5949,3.5694,3.5363,3.4895,3.4624,3.4134,3.3389,3.2666,3.2241,3.211,3.1632,3.1506,3.1657,3.1657,3.1657,3.1691,3.2173,3.2362,3.2504,3.3884,3.4826,3.5413,3.5505,3.5921,3.6483,3.7014,3.6855,3.6501,3.7032,3.6837,3.6519,3.7032,3.7323,3.7506,3.7807,3.8048,3.8322,3.8959,3.9129,3.9331,4.0139,4.0946,4.1534,4.1534,4.2158,4.2727,4.2727,4.2727,4.2892,4.3423,4.3515,4.3149,4.2121,4.1956,4.1956,4.1956,4.1001,4.0322,4.0322,3.935,3.8707,3.8707,3.8707,3.9038,3.9845,4.0175,4.0561,4.1077,4.1498,4.181,4.2015,4.131,4.1098,4.1465,4.0821,4.0435,4.026,4.0414,4.0283]}]]